GFSSGP_sfc_thetae_000.txt.gz
Theta_e
338 336 325 323 306 296 291 293 296 295 296 299 299 298 297 297 297 290 306 316 322 320 330 343 352 347 345 344 342 341 338 335 334 333 331 330 331 334 335 337 338 338 339 338 338 340 340 340 343
329 327 321 311 299 288 290 293 295 297 299 299 300 299 298 297 307 308 308 316 320 324 328 337 351 350 346 344 344 343 338 337 335 334 332 331 332 334 335 336 336 337 339 339 338 339 339 340 342
325 327 315 305 295 292 290 294 297 298 299 299 297 303 303 303 310 310 312 315 316 322 328 335 349 349 346 343 343 343 338 338 337 335 333 332 332 333 334 335 335 336 337 338 338 339 339 340 341
323 319 309 301 297 297 294 295 297 297 298 299 300 300 306 311 311 311 313 314 312 318 328 335 346 348 345 342 342 342 339 338 337 336 334 333 332 333 333 333 333 335 336 337 339 339 339 340 341
316 309 300 296 297 294 295 297 298 297 296 297 301 301 303 310 313 311 309 310 308 315 326 333 344 345 344 342 341 342 340 340 337 334 334 333 333 333 333 333 333 333 335 337 337 339 342 343 345
307 306 298 296 298 297 297 298 299 297 297 299 301 301 302 308 309 306 312 311 314 321 323 326 337 343 345 341 341 339 338 338 336 336 336 334 333 333 333 334 333 332 333 336 336 339 342 344 346
305 302 298 298 298 293 297 298 297 297 296 298 303 299 301 304 304 305 305 305 307 311 313 314 313 320 327 329 331 332 332 333 333 333 334 333 333 333 333 333 332 332 333 335 336 338 339 342 344
309 305 295 294 293 292 298 297 297 299 298 305 306 298 297 302 304 304 305 305 304 306 307 307 312 315 316 317 327 329 329 329 330 332 332 332 332 333 333 333 332 332 333 335 336 337 339 340 343
306 298 295 297 293 295 295 294 299 303 302 303 304 303 304 305 305 304 303 305 306 310 310 310 314 315 316 317 319 323 325 328 328 326 327 326 322 323 327 330 332 332 333 335 336 337 339 340 341
303 297 298 301 297 296 296 297 300 301 301 300 301 304 305 305 303 303 303 304 305 308 311 312 313 314 315 318 316 315 318 319 320 321 319 322 320 321 323 328 331 331 333 335 335 337 339 339 337
302 300 302 303 300 299 298 296 300 300 297 300 299 302 303 303 303 304 304 305 306 309 312 311 312 314 314 314 315 314 316 320 322 321 319 323 324 321 322 324 325 326 329 329 333 335 334 333 336
299 304 303 303 303 298 298 300 301 300 301 305 303 304 303 303 303 304 305 306 309 309 311 312 313 313 313 314 314 314 318 321 321 319 320 319 320 320 318 319 321 323 324 326 328 328 331 333 333
301 302 302 302 299 300 301 299 300 301 304 305 303 304 303 302 304 305 307 310 310 309 311 311 314 314 314 314 315 315 318 320 320 317 317 318 317 317 318 319 321 322 324 325 326 329 330 331 333
304 301 301 299 297 298 299 298 300 302 305 303 302 302 302 304 304 305 308 309 310 311 311 312 313 315 314 313 314 315 316 316 319 316 316 318 317 317 318 319 320 321 323 325 326 328 330 332 334
301 298 300 299 298 297 299 296 298 302 303 301 301 301 303 304 305 307 309 309 310 310 312 311 315 315 314 313 314 315 316 316 316 317 318 319 319 318 321 320 319 321 323 325 326 328 330 332 332
298 295 292 297 299 300 298 292 299 302 301 299 300 301 302 303 305 308 312 310 311 310 312 311 315 316 315 314 315 316 318 318 318 318 318 320 321 321 320 319 319 321 324 325 326 329 329 330 331
296 292 293 296 299 298 296 294 299 301 301 299 299 300 302 302 305 308 313 311 311 311 312 312 312 315 315 315 316 318 318 319 320 321 321 322 325 325 321 322 324 325 326 326 327 328 328 328 330
291 292 294 294 297 296 294 294 297 301 301 300 299 300 301 302 305 309 312 313 312 312 311 312 311 314 314 316 317 318 318 319 320 320 322 324 325 324 325 324 326 326 326 326 326 327 328 329 329
297 294 294 297 299 296 295 295 299 299 299 298 298 299 300 302 305 309 311 313 313 314 312 311 310 311 311 314 314 315 316 318 318 321 323 324 325 324 326 326 325 328 326 327 327 327 327 327 330
295 293 292 296 298 295 295 295 296 298 299 299 298 298 300 301 304 308 310 311 311 311 313 312 311 312 312 313 314 315 316 320 320 322 323 325 326 326 326 327 327 327 327 327 327 326 325 327 328
294 292 292 293 296 295 292 291 293 297 299 300 298 299 300 301 302 305 307 307 310 309 310 314 312 310 309 313 316 317 319 321 322 322 322 324 327 327 326 327 327 326 327 326 326 327 327 324 327
291 298 297 295 292 287 293 283 291 294 296 299 297 297 299 300 303 305 306 304 309 310 312 312 312 311 312 312 317 316 316 317 320 322 323 324 325 327 327 326 326 326 327 325 326 327 327 326 322
296 299 296 295 290 287 289 284 289 294 295 296 298 297 299 300 303 304 305 306 309 312 312 313 313 313 313 314 318 319 318 319 320 321 321 323 325 327 328 327 327 327 326 326 326 326 326 327 324
301 295 293 291 288 281 288 287 286 290 295 297 299 298 299 300 302 305 306 306 307 311 313 312 314 315 313 315 317 317 314 314 315 317 319 322 324 326 328 327 327 327 326 327 326 326 326 325 326
294 289 283 281 280 282 289 287 289 296 298 300 301 299 299 301 302 304 304 304 306 309 312 313 314 313 313 314 316 317 313 314 315 317 319 321 323 325 325 326 326 326 327 327 327 325 325 326 324
291 290 284 279 278 282 290 286 292 298 302 304 303 301 300 300 302 304 304 304 306 308 312 314 313 312 312 313 314 314 314 313 313 315 320 320 323 323 325 326 326 326 327 327 328 326 325 325 323
292 288 291 286 286 283 286 292 299 302 303 302 299 299 299 300 301 304 304 305 306 307 310 314 314 311 311 312 313 314 314 313 313 313 315 319 322 325 324 323 322 324 326 327 326 326 324 326 325
296 296 287 285 280 279 284 288 290 296 299 302 300 298 299 300 301 303 304 305 306 307 309 314 314 311 311 311 312 312 312 313 312 312 313 316 317 318 317 316 317 317 319 322 323 322 324 323 322
292 291 291 288 286 281 278 285 296 299 303 304 301 299 299 301 302 303 305 305 306 306 308 313 313 310 310 309 311 312 312 312 312 312 312 314 315 317 316 317 317 318 318 320 319 318 321 319 319
297 294 294 287 285 287 285 288 300 303 306 307 305 300 300 302 303 304 304 304 305 306 308 311 312 310 309 309 311 311 311 311 311 312 311 313 314 316 317 318 317 316 316 317 318 317 317 316 317

GFSSGP_sfc_thetae_003.txt.gz
Theta_e
341 340 334 330 315 308 305 304 305 304 304 307 307 305 306 306 306 300 321 324 332 330 337 343 355 352 350 349 349 348 346 342 338 336 335 333 332 333 335 337 339 340 340 341 340 340 341 341 344
337 332 329 322 310 304 304 303 304 307 307 307 307 306 305 303 311 315 319 327 331 329 339 339 352 354 351 350 349 348 345 343 339 338 337 335 333 333 335 337 338 338 340 341 341 340 341 342 343
331 331 324 317 310 304 303 304 305 306 307 307 306 309 308 307 313 316 322 325 327 330 335 340 347 353 351 350 348 345 343 341 340 339 338 337 335 334 335 336 337 338 339 339 341 340 340 341 342
329 327 319 312 306 308 308 311 305 306 305 306 307 305 312 316 316 319 321 321 322 323 330 337 343 349 351 347 345 345 343 342 341 339 338 338 336 335 335 335 336 336 337 339 339 341 342 341 342
326 320 312 308 307 308 305 305 306 306 305 305 307 306 309 315 318 318 318 318 320 322 333 337 341 347 347 346 345 343 342 341 340 337 339 337 337 335 335 335 335 335 335 336 339 340 342 344 345
318 318 308 305 307 309 307 306 306 306 307 306 306 307 310 316 316 316 320 322 323 323 335 338 339 343 344 343 344 341 338 336 337 337 336 338 337 335 335 335 335 335 334 334 337 340 339 344 346
314 313 305 306 307 306 307 306 305 306 305 305 310 306 310 313 313 315 315 317 320 322 323 328 329 328 327 329 331 331 332 333 333 333 334 335 335 335 335 335 335 335 334 334 335 339 340 340 343
318 314 307 306 305 306 307 305 305 306 306 310 312 306 307 312 312 314 315 316 316 317 318 321 322 324 327 327 327 328 329 330 330 331 331 333 333 333 334 335 334 334 334 334 335 338 339 339 341
315 308 303 305 305 307 305 304 306 308 307 308 310 309 310 311 312 313 314 315 318 319 321 323 323 325 325 325 325 326 327 328 328 328 328 329 331 331 332 332 333 333 334 335 335 337 339 339 340
312 306 306 311 310 308 306 306 307 306 306 306 307 308 309 310 311 312 312 314 316 319 321 323 323 323 325 324 326 327 326 326 326 327 327 328 330 329 326 330 332 332 334 334 335 336 337 339 340
310 305 309 309 311 309 306 304 307 306 304 308 308 308 309 310 312 312 312 314 317 320 322 322 323 323 325 324 326 326 325 322 323 324 326 327 328 330 327 327 329 335 333 334 335 336 339 340 339
306 309 310 310 309 305 304 306 304 307 309 310 311 311 310 310 311 311 312 316 319 320 321 322 322 324 326 325 326 327 324 325 325 324 327 326 325 327 324 326 329 332 334 333 334 337 340 340 340
307 309 308 308 305 305 305 304 305 306 309 310 309 309 309 311 312 313 316 319 320 320 321 322 323 325 326 327 326 327 327 325 326 324 326 323 325 325 325 325 328 329 329 331 333 336 336 337 338
310 308 306 304 304 304 304 303 305 307 310 308 308 308 309 310 311 314 316 319 320 321 322 323 325 326 327 326 327 328 328 327 324 323 327 328 327 328 327 325 325 327 329 332 336 337 336 335 337
307 304 304 304 304 304 305 302 303 309 309 308 308 308 309 311 312 314 318 319 321 322 323 323 325 328 327 327 327 328 329 328 327 328 329 328 329 328 328 329 328 328 332 334 335 334 335 334 338
304 303 300 303 303 303 304 299 308 308 308 307 306 306 308 310 312 315 319 320 322 323 323 324 325 328 328 328 328 328 330 329 329 330 331 330 331 330 330 329 331 330 331 332 332 330 330 332 334
302 299 300 301 304 302 302 300 307 306 307 307 306 306 307 309 312 317 320 320 322 323 323 323 325 327 328 329 329 329 331 330 330 331 331 331 332 332 331 329 330 332 330 331 332 332 331 331 333
298 298 299 299 303 302 301 300 306 307 306 306 306 306 307 309 312 317 321 321 323 324 323 323 324 325 325 327 329 329 332 330 331 331 330 330 333 331 332 330 328 329 330 330 331 332 332 333 333
303 301 300 302 305 302 302 303 305 307 305 305 306 306 308 309 314 318 321 321 322 325 325 324 325 326 325 326 325 326 326 326 330 329 325 326 329 329 332 332 332 332 327 329 332 332 332 333 336
301 299 299 302 303 302 303 302 305 306 306 307 307 306 308 310 312 316 319 321 322 322 323 326 323 324 322 324 327 323 327 328 328 328 329 329 327 329 330 330 329 331 330 330 332 333 332 332 335
301 300 300 300 301 302 300 299 302 307 305 306 308 309 309 309 311 315 317 320 321 320 320 324 325 324 323 325 328 329 330 328 326 326 325 325 327 328 331 330 332 332 333 332 333 335 332 326 332
299 303 302 300 299 295 300 292 300 304 305 305 307 307 308 309 312 315 317 318 321 321 321 321 323 325 323 327 330 329 327 324 326 327 329 330 328 328 328 328 328 328 331 333 333 336 332 329 326
302 304 302 301 299 297 297 294 298 301 302 306 310 307 308 310 312 314 316 317 320 322 324 326 325 326 325 329 330 327 326 327 329 330 328 332 330 333 331 329 331 329 328 329 333 331 329 331 330
306 302 299 298 297 292 297 295 296 300 303 307 309 309 308 309 311 315 317 317 319 323 323 325 327 325 326 328 328 327 325 326 326 327 326 327 328 332 333 332 332 330 332 330 333 335 335 334 334
304 300 293 291 292 290 295 294 298 305 307 307 308 309 308 309 311 314 314 314 317 320 323 324 325 323 324 326 329 328 325 326 323 323 325 325 327 327 328 329 329 327 330 331 331 329 335 334 330
301 301 294 287 288 292 295 293 298 308 309 311 311 311 309 309 311 314 315 315 316 319 323 323 323 322 322 324 327 326 326 324 322 330 325 328 327 327 327 329 329 329 328 332 335 336 335 335 332
298 297 302 296 294 292 295 299 305 309 309 310 308 307 307 309 311 313 315 316 317 319 322 325 325 323 322 323 326 326 325 325 323 325 328 330 329 329 330 326 329 333 332 330 329 333 332 327 326
303 303 295 296 288 287 292 294 297 304 306 309 308 307 307 309 311 313 315 316 318 320 321 325 327 323 321 322 325 324 323 323 324 325 328 328 327 325 324 322 323 330 332 328 329 331 333 328 331
299 298 298 298 296 291 290 294 307 308 310 313 312 310 308 309 311 313 315 316 318 320 319 323 326 322 322 322 323 323 322 322 324 323 325 326 326 325 322 323 323 324 328 326 326 329 331 330 330
305 301 302 295 294 296 295 295 308 311 314 315 313 310 310 311 312 313 315 316 316 318 319 321 326 322 322 321 322 322 322 322 323 323 324 326 327 327 326 326 326 324 325 325 323 326 329 330 329

GFSSGP_sfc_thetae_006.txt.gz
Theta_e
340 340 342 335 319 314 309 310 313 312 311 313 313 311 310 310 306 303 326 330 331 332 338 342 354 353 352 351 351 350 350 346 341 339 338 337 336 334 334 335 337 339 341 342 342 341 342 343 344
340 339 335 328 313 308 310 312 310 313 313 314 312 310 309 307 313 315 321 330 331 331 336 336 352 355 354 353 351 348 348 346 343 340 340 339 337 336 335 335 337 339 340 341 342 342 341 343 343
336 335 326 320 313 307 309 312 313 313 313 313 311 313 311 310 316 319 325 329 329 329 330 333 348 354 354 353 348 349 348 346 344 341 341 341 339 338 336 335 337 338 339 340 341 342 341 342 343
332 331 326 313 309 312 311 314 315 312 312 314 313 309 314 319 319 322 325 326 325 325 326 334 338 345 350 351 348 349 345 344 342 340 341 339 339 338 338 336 336 337 338 339 340 340 341 341 343
332 324 314 311 310 312 315 316 314 312 313 312 311 309 312 319 323 324 323 323 323 324 327 329 340 343 347 348 346 346 343 343 339 338 338 339 340 338 337 337 336 336 336 337 338 340 340 342 345
321 321 311 307 310 313 316 316 313 312 313 311 309 310 313 321 322 322 323 325 326 325 331 332 337 341 339 341 340 337 336 336 336 336 336 336 336 337 336 336 336 336 336 336 336 338 340 340 344
318 315 310 310 310 311 312 315 312 312 311 311 313 308 315 318 321 323 322 323 324 326 325 327 329 330 332 328 328 330 330 331 333 333 333 334 334 335 336 336 336 336 335 335 335 335 339 339 341
321 316 310 311 309 309 314 312 313 311 311 314 315 308 311 320 321 322 321 321 321 322 322 325 328 327 330 331 329 329 330 330 330 331 332 333 333 334 335 336 335 335 335 335 335 335 338 339 339
322 310 307 309 310 312 317 313 314 314 312 312 314 314 316 319 320 319 319 319 322 322 323 326 326 329 331 330 329 329 330 329 329 329 329 330 332 332 334 334 334 335 334 334 335 335 337 338 338
315 308 308 313 315 314 316 315 315 310 311 311 312 315 315 317 318 317 317 318 319 320 322 323 329 330 330 329 332 333 331 328 327 328 328 329 330 333 330 330 331 334 334 334 334 335 337 338 340
314 308 312 313 316 316 314 314 315 311 310 313 312 315 315 316 318 317 317 318 318 322 322 322 329 331 331 330 331 330 329 329 329 328 330 328 328 333 332 329 329 332 333 333 334 334 336 337 339
310 312 313 315 316 313 312 314 311 311 313 315 315 316 317 316 317 317 317 318 320 320 321 326 329 331 333 332 330 329 329 330 328 331 329 331 329 329 330 330 328 332 332 334 336 333 336 339 340
311 312 314 316 314 313 312 311 310 312 315 315 315 316 316 317 318 318 319 321 322 319 326 329 330 333 333 332 331 330 330 330 330 330 330 332 329 330 328 328 329 330 332 334 335 334 336 339 339
314 313 313 314 313 311 309 310 309 313 314 314 314 315 316 316 317 318 320 321 321 320 327 328 331 334 334 333 333 332 332 332 331 330 330 333 331 331 331 328 330 334 331 331 333 333 335 337 336
314 309 312 311 311 310 310 307 307 314 314 312 313 315 315 316 317 318 320 321 321 323 328 328 330 333 334 334 333 333 332 332 331 330 332 332 333 334 332 330 327 329 335 335 334 336 337 336 335
309 310 305 311 310 309 308 302 309 314 312 312 313 314 314 316 317 318 321 322 323 325 324 328 330 332 334 335 334 333 335 334 334 334 333 333 334 334 334 334 334 336 335 334 331 332 332 332 333
308 302 305 307 312 309 308 306 311 314 313 312 314 314 314 315 317 320 323 323 322 323 324 327 330 332 333 334 334 335 336 334 336 335 335 333 334 334 336 336 336 337 334 334 332 330 332 330 332
303 303 305 304 309 308 307 307 310 312 312 312 314 314 314 314 316 320 323 323 322 323 325 327 331 333 333 333 333 335 336 337 336 331 327 332 335 333 336 337 336 336 332 334 334 334 332 332 332
307 305 304 307 310 307 308 308 309 312 312 313 314 314 314 315 318 321 323 323 322 322 324 328 328 332 329 330 330 332 331 329 334 331 328 327 332 333 333 333 334 334 333 334 335 335 333 332 334
307 305 305 308 309 307 307 306 309 311 311 313 314 315 315 316 317 320 323 323 322 319 322 328 328 329 328 331 334 333 331 331 326 327 327 329 330 333 333 335 333 334 330 334 334 335 331 334 337
306 304 305 304 308 308 306 304 307 310 312 314 315 316 316 316 316 319 321 322 322 320 321 324 327 329 331 336 338 336 335 332 333 329 329 329 330 332 333 333 333 333 333 332 336 336 334 330 335
303 308 306 305 303 298 306 296 304 308 309 311 314 315 316 316 317 319 321 321 321 321 324 324 327 331 332 336 332 333 332 328 330 334 334 330 333 329 330 334 334 335 333 338 337 341 336 335 330
304 308 307 306 303 303 302 299 303 306 305 307 310 315 316 317 317 318 320 320 320 323 324 329 328 330 334 335 333 330 331 336 335 336 332 333 335 334 333 333 334 335 337 337 336 337 338 336 329
309 306 306 305 303 296 301 300 300 304 305 308 311 315 317 316 317 319 321 320 319 323 324 327 327 327 332 334 333 332 328 329 328 329 329 329 333 335 333 332 332 337 338 338 340 339 339 339 340
307 304 296 295 295 294 302 298 301 307 309 310 312 314 316 317 317 318 319 318 319 322 324 326 324 325 327 330 332 331 332 331 328 328 327 328 328 333 332 331 334 335 336 336 339 339 338 337 333
305 304 297 290 292 296 301 296 302 308 312 314 316 318 318 316 317 318 319 320 318 321 324 325 324 324 325 328 329 331 331 328 328 333 330 330 331 328 330 330 334 334 335 335 339 338 338 337 333
304 301 307 300 301 296 299 302 308 310 311 313 315 315 316 316 317 318 320 320 318 320 325 326 325 324 324 326 328 329 329 330 330 337 337 332 331 331 333 332 331 334 335 334 338 340 338 336 330
307 308 299 300 292 291 296 298 300 304 307 314 315 315 316 316 317 318 320 320 319 321 325 328 328 323 325 325 326 326 327 329 331 334 334 332 332 328 330 333 335 334 336 337 337 338 336 333 333
304 303 304 304 301 294 293 298 308 307 311 313 318 317 316 317 317 319 320 320 319 322 323 327 328 324 323 324 325 326 325 327 329 329 331 331 329 331 329 325 326 328 333 334 337 335 330 329 329
307 304 305 298 297 300 299 299 310 312 315 318 319 318 318 318 318 319 320 319 318 321 322 325 327 324 321 323 324 325 325 327 328 329 330 333 332 331 331 330 326 326 326 330 331 334 332 332 330

GFSSGP_sfc_thetae_009.txt.gz
Theta_e
335 331 341 336 320 316 311 313 317 313 314 317 317 315 312 313 309 305 326 328 329 330 337 344 355 353 351 352 351 351 350 349 347 343 340 339 338 338 336 336 335 336 339 341 343 343 342 344 344
335 339 338 329 314 309 309 316 312 315 317 318 316 314 312 310 315 316 321 330 329 330 335 335 353 355 354 353 353 352 350 348 346 344 342 340 340 339 339 338 337 336 338 340 342 343 343 343 344
340 338 326 321 315 310 309 314 315 317 317 316 314 316 314 314 317 317 328 330 330 330 332 337 354 355 353 353 353 353 350 348 346 344 344 342 341 341 340 339 338 337 337 339 341 342 342 343 344
333 331 327 313 310 314 313 315 317 316 316 317 316 311 317 322 320 322 327 327 326 326 327 340 343 342 346 351 351 350 347 346 342 340 342 341 340 342 340 339 339 338 337 339 340 341 341 342 343
332 325 315 312 313 315 317 318 317 314 315 314 315 312 314 322 325 325 325 325 324 325 327 329 342 341 343 346 346 344 342 341 340 340 339 340 340 340 339 338 338 339 338 336 338 340 341 341 343
321 322 311 309 310 315 318 318 316 315 315 315 313 313 315 325 324 325 325 325 326 326 329 330 339 341 340 336 334 334 335 335 335 336 336 336 336 336 336 337 338 338 337 337 337 337 338 340 340
318 315 311 312 311 312 315 319 315 314 314 314 316 311 317 320 323 326 325 326 326 327 326 328 329 335 335 335 331 328 330 331 332 333 333 333 334 335 335 336 338 338 338 337 336 336 336 338 339
320 317 312 312 310 311 317 317 319 315 314 318 317 310 312 322 325 325 324 323 324 325 325 327 328 326 329 331 334 329 330 331 331 332 332 332 333 334 335 335 336 337 337 336 335 336 335 337 338
324 312 309 310 310 313 318 316 319 319 316 316 316 316 319 323 323 322 322 321 322 324 325 327 325 329 332 332 333 330 334 333 332 331 331 331 331 333 333 335 336 336 337 336 335 336 336 337 338
317 311 310 314 315 314 316 316 317 316 315 314 315 318 319 320 321 319 320 320 321 322 324 324 326 332 334 331 333 333 332 333 332 331 331 330 331 332 332 331 332 334 336 335 334 335 336 336 336
317 311 315 314 315 316 315 315 318 315 312 316 313 316 319 319 320 320 319 320 321 324 325 324 330 334 334 332 331 331 332 331 331 330 331 331 329 331 335 333 330 333 334 333 332 333 333 331 335
313 316 315 314 315 316 314 317 314 315 315 317 317 316 318 318 319 319 319 320 321 323 323 328 332 334 336 334 331 331 331 332 330 331 334 331 330 334 332 331 331 334 333 335 337 332 333 334 339
314 314 315 315 316 317 317 314 314 314 317 317 317 317 317 318 319 321 321 322 324 323 324 330 334 336 336 335 333 333 332 330 332 331 332 332 333 333 330 330 332 331 331 334 337 333 333 336 336
316 315 315 316 315 316 313 314 313 315 316 314 316 317 316 316 319 322 322 323 324 322 327 331 333 335 335 334 336 334 336 333 333 331 330 333 332 333 331 333 331 333 335 332 337 335 333 333 338
316 311 313 314 314 314 315 310 311 315 317 315 314 315 317 319 320 320 323 324 324 323 329 330 332 332 334 336 335 336 337 338 334 334 334 332 335 335 334 334 334 336 339 338 339 332 334 335 336
312 312 307 313 314 314 312 305 314 317 316 315 315 316 317 319 320 321 323 326 325 325 325 329 330 331 334 335 335 335 337 337 337 333 332 334 334 334 335 333 334 336 338 334 331 330 330 333 333
310 304 306 308 315 313 311 307 314 317 316 315 315 316 317 318 320 322 324 326 325 325 326 327 331 331 334 336 335 337 338 339 338 334 332 332 335 334 336 337 335 336 339 333 331 331 333 334 331
305 306 307 306 312 313 310 309 314 316 315 315 316 317 318 317 319 322 325 327 325 325 329 328 331 334 334 334 334 338 337 337 338 332 328 329 334 334 336 338 336 337 336 333 334 335 336 331 330
309 308 306 310 312 310 310 310 312 316 315 314 315 316 318 319 321 323 325 326 325 325 329 329 328 333 332 331 331 337 337 332 334 335 330 331 333 333 335 338 337 337 335 335 337 334 334 332 332
309 307 306 310 312 311 310 309 312 313 313 315 315 316 317 319 319 321 325 326 325 325 327 328 328 331 333 335 335 334 335 334 331 334 334 332 332 333 334 335 332 334 332 335 335 337 329 328 335
308 306 306 306 310 312 309 306 308 313 314 315 315 317 319 320 319 321 323 325 325 323 327 328 328 332 336 338 338 337 337 336 335 334 332 333 332 333 334 334 333 333 334 333 338 335 333 329 336
305 310 308 307 306 301 309 298 306 310 310 312 314 316 318 320 321 322 323 324 324 323 328 329 330 333 335 337 334 334 334 332 337 335 336 334 334 333 334 334 334 335 333 336 336 340 337 335 329
307 311 308 308 305 304 304 301 305 310 307 309 312 315 318 320 321 321 322 324 323 323 327 330 332 333 334 336 336 335 335 335 337 336 333 335 335 333 333 334 335 336 340 340 337 338 336 341 331
312 308 307 307 305 297 302 302 302 305 306 308 312 315 319 320 320 322 324 324 322 323 327 329 331 331 333 334 334 334 333 333 333 329 332 331 334 333 334 334 335 337 338 338 340 339 339 338 338
309 305 297 296 297 295 305 301 304 309 309 310 311 315 319 320 320 321 322 321 322 322 325 328 329 328 329 332 332 334 334 334 333 333 328 328 333 328 334 336 336 338 338 339 338 341 339 338 335
306 305 298 292 294 298 305 298 304 310 311 313 314 318 321 320 320 321 322 322 321 322 324 326 327 327 328 330 331 333 334 334 333 330 331 329 330 334 335 335 336 335 337 338 339 340 340 340 334
305 302 308 302 303 298 302 305 309 309 311 314 315 318 320 320 320 321 322 323 321 322 324 326 326 326 327 328 331 331 332 334 337 336 336 332 336 334 335 334 336 336 336 337 339 339 336 337 335
308 310 301 302 294 293 299 301 303 306 308 315 316 318 319 320 320 321 322 323 320 322 326 328 327 325 326 327 328 329 330 333 334 333 333 334 331 335 333 334 332 334 336 337 339 338 335 331 333
304 303 305 306 302 296 295 299 310 309 311 313 317 320 319 319 319 320 322 323 320 322 324 327 327 323 325 326 327 327 328 330 332 332 333 331 335 331 333 333 334 333 333 336 337 335 333 330 330
309 305 307 300 299 302 301 302 312 312 312 316 318 320 319 320 320 321 322 322 319 321 323 325 327 322 323 324 325 325 327 329 331 332 333 334 333 331 328 332 333 332 333 333 334 333 331 329 328

GFSSGP_sfc_thetae_012.txt.gz
Theta_e
336 329 328 330 317 316 310 311 318 313 313 317 317 314 312 312 308 304 328 328 327 339 348 348 355 354 353 352 352 351 351 351 349 347 345 342 340 339 339 338 337 335 335 337 339 343 344 343 343
326 327 334 326 314 309 309 315 313 314 316 317 316 315 312 310 315 316 322 329 328 333 345 347 354 354 354 354 353 352 352 351 348 347 345 342 341 340 340 340 339 338 337 337 338 342 343 344 343
335 337 324 318 314 309 308 315 314 316 317 315 314 317 314 313 317 317 328 330 329 335 337 349 354 354 355 354 354 354 352 350 348 346 345 345 343 342 341 341 340 340 339 338 338 339 342 343 344
334 329 324 313 309 313 314 316 317 315 316 317 316 311 317 321 319 322 326 326 325 326 336 350 354 353 351 350 351 351 349 348 346 343 342 343 341 342 342 339 340 340 340 339 338 340 341 342 342
331 323 313 312 311 314 318 319 317 313 314 315 315 311 314 320 323 324 325 325 325 330 332 337 346 343 344 344 345 344 341 340 340 340 340 339 340 340 340 339 339 339 340 340 338 339 340 341 341
319 320 309 307 310 315 318 319 316 314 315 315 313 312 316 323 322 323 324 326 326 329 335 338 343 344 343 344 343 339 334 333 334 335 335 336 337 337 337 336 336 337 338 339 339 338 339 341 341
317 314 310 310 309 312 315 321 316 315 313 313 316 310 318 321 323 326 326 328 330 330 331 333 334 340 343 342 337 333 331 330 331 332 333 333 334 334 335 335 336 337 339 339 339 339 340 340 341
320 315 309 310 309 310 317 318 320 317 314 319 318 310 312 321 325 325 324 324 324 325 325 332 335 332 336 336 337 334 332 333 332 333 333 333 332 333 334 335 336 337 338 338 338 338 339 339 339
323 310 307 309 309 311 316 315 320 321 317 317 318 316 319 323 323 321 322 321 321 324 330 332 327 333 335 335 335 336 335 334 334 334 332 331 330 330 332 334 336 337 337 337 337 338 339 338 339
315 310 310 315 315 312 314 314 316 315 315 316 316 318 320 321 320 318 319 319 322 325 327 329 332 335 337 332 337 337 336 336 336 333 333 331 331 331 331 332 333 334 336 337 337 336 336 335 332
316 310 314 315 317 316 313 313 316 314 312 315 314 316 318 318 320 319 318 322 322 327 328 328 335 339 338 335 335 333 334 335 335 334 334 334 330 329 330 332 332 333 334 333 334 332 332 331 329
312 316 316 316 317 314 312 315 314 314 314 318 317 318 318 319 318 317 319 327 323 327 330 333 338 338 342 338 333 333 334 334 332 333 335 332 330 332 332 331 331 332 332 331 333 330 331 331 331
314 315 316 317 316 315 315 313 314 314 318 318 317 317 317 319 320 325 327 328 327 329 328 334 337 341 343 341 337 337 336 332 334 333 331 332 332 331 331 331 331 331 330 331 330 331 332 328 333
316 315 315 315 315 315 312 313 314 315 318 316 316 315 317 318 320 323 325 327 329 329 332 335 338 341 341 338 339 337 337 334 334 333 328 333 332 331 332 332 331 330 330 332 331 331 331 332 334
315 310 312 313 314 312 315 310 311 316 317 316 316 317 317 319 319 320 325 329 331 330 335 336 336 338 340 339 338 337 336 337 334 336 332 334 333 332 334 331 331 330 330 331 331 331 332 332 335
309 309 304 311 313 314 313 304 313 317 316 315 316 316 317 319 320 323 326 330 333 332 334 336 331 335 340 340 339 338 339 338 337 337 333 332 333 334 333 330 331 332 332 328 330 330 330 330 332
307 302 303 307 314 313 311 307 313 316 316 316 317 317 317 319 323 327 326 329 332 333 335 334 337 336 339 339 333 339 339 339 338 338 332 330 331 334 334 330 332 333 330 329 330 328 328 330 330
301 302 304 305 311 312 309 309 313 315 315 317 317 318 318 319 321 324 326 329 331 332 335 337 337 339 339 337 339 340 339 337 339 335 330 330 330 333 335 332 331 333 329 328 328 328 330 330 330
306 305 305 309 312 310 309 311 312 315 315 315 317 318 320 321 323 325 326 329 329 332 334 337 337 340 338 336 335 336 337 336 337 337 333 331 332 332 334 332 329 333 330 328 329 329 328 328 330
305 304 305 308 311 310 309 308 312 314 315 315 315 317 319 321 321 323 326 328 329 330 333 336 337 339 340 338 338 338 336 336 335 336 334 333 331 333 335 332 330 332 331 330 329 329 326 327 328
305 304 305 305 309 310 308 306 309 313 315 316 317 319 321 321 320 322 324 327 328 329 331 334 336 340 341 341 340 338 337 335 332 333 330 331 333 333 334 334 331 331 333 331 329 330 327 325 327
302 308 308 307 304 299 308 298 307 310 311 313 314 317 318 321 322 322 324 326 328 327 331 334 337 340 340 340 337 335 332 330 332 328 333 330 333 333 333 334 332 332 332 331 331 330 327 325 324
306 310 308 308 305 304 303 299 303 310 308 311 312 315 319 321 321 321 323 326 326 327 330 334 337 340 341 341 339 335 333 334 335 332 331 329 328 334 333 333 334 332 332 332 333 330 329 327 327
311 308 308 307 304 297 302 301 301 305 307 309 311 315 318 320 321 323 325 326 325 325 329 334 336 338 340 340 339 334 332 331 331 329 329 331 332 332 334 333 335 335 332 334 336 333 330 330 331
308 306 297 295 294 294 303 300 303 310 310 310 310 315 320 321 321 322 323 322 323 323 328 330 333 333 336 337 337 335 334 333 331 329 327 330 329 330 332 333 335 336 336 336 336 334 332 330 331
307 306 298 291 292 295 305 298 303 311 313 313 313 317 321 320 321 322 323 323 322 323 327 329 330 330 334 334 336 336 335 335 330 330 331 330 330 332 333 334 331 334 335 335 335 332 333 334 332
306 302 307 300 301 297 300 305 310 311 310 311 313 318 321 321 321 322 323 323 323 324 327 331 331 331 332 333 336 336 336 334 334 334 335 331 333 333 332 333 333 334 334 333 333 331 331 332 331
309 310 300 301 292 291 297 300 301 306 308 312 316 318 321 322 321 322 322 324 323 325 328 332 331 330 331 333 335 333 336 334 335 336 335 332 332 331 328 329 331 334 333 333 334 332 333 331 328
305 304 304 304 301 295 294 298 311 310 312 316 317 320 320 320 319 321 322 324 322 324 325 330 330 328 329 331 332 334 334 334 333 333 332 331 330 331 331 329 330 332 333 333 333 330 330 330 328
309 306 306 299 299 301 300 299 314 315 314 315 318 320 319 320 320 320 321 323 319 321 324 327 330 325 327 328 329 331 334 334 334 332 334 332 327 331 331 332 331 332 331 333 330 329 330 327 326

GFSSGP_sfc_thetae_015.txt.gz
Theta_e
340 336 324 319 307 308 303 308 312 310 306 309 311 309 304 305 304 302 318 325 340 338 343 350 354 354 353 353 352 351 351 350 348 347 346 343 341 340 339 339 337 336 336 336 336 337 342 345 342
327 323 318 320 306 301 304 313 312 307 310 311 311 310 307 306 314 316 317 324 340 341 344 346 354 354 354 353 352 352 352 351 349 348 347 344 342 341 341 340 340 340 339 338 338 337 340 343 345
328 325 316 311 306 302 306 312 314 312 311 310 309 312 312 309 315 319 321 323 335 339 340 344 354 354 355 354 353 353 353 351 348 346 345 345 344 344 343 341 342 341 341 340 339 338 337 341 343
324 325 319 305 302 309 309 312 315 310 311 312 311 308 314 318 317 321 324 324 322 327 341 350 353 354 355 353 353 353 351 349 347 344 344 341 340 344 343 340 340 340 341 341 340 339 338 339 342
326 318 305 303 306 311 312 316 316 308 309 309 310 309 309 317 321 321 321 320 320 330 340 347 353 352 350 347 347 348 344 342 340 340 340 340 340 339 340 340 340 340 340 340 340 340 340 341 341
314 312 300 300 305 311 313 314 315 311 311 308 309 310 310 317 318 318 320 318 321 327 331 336 347 347 347 348 348 346 342 338 336 336 335 335 337 337 338 338 338 338 338 338 339 340 341 341 339
311 306 302 304 305 307 312 316 314 314 310 308 311 307 311 314 317 318 318 319 319 323 328 330 334 340 348 347 346 342 337 334 334 333 333 333 334 334 335 335 336 336 337 337 339 340 340 341 340
314 308 304 305 304 305 312 316 316 313 311 316 315 307 307 314 318 318 317 317 316 318 318 320 328 331 331 333 342 338 335 335 335 334 334 334 333 333 333 334 334 336 337 337 339 339 338 340 339
320 305 302 304 305 307 312 308 313 316 313 314 314 312 317 319 318 315 313 312 313 317 315 316 319 322 325 326 331 338 338 337 336 335 335 331 325 325 328 331 334 337 337 337 338 338 338 339 338
313 303 306 311 311 309 310 308 310 312 312 313 314 316 319 319 315 313 311 311 312 316 318 319 322 324 326 330 327 328 328 329 328 327 325 323 323 323 328 330 334 335 336 337 337 338 337 336 328
312 306 310 312 313 313 312 308 311 310 307 312 310 312 315 315 313 311 311 311 314 316 318 320 322 326 325 325 326 325 325 325 325 325 325 324 325 323 323 324 325 325 332 329 333 332 330 329 326
309 312 313 313 315 313 309 311 310 311 310 315 314 315 313 312 311 311 311 313 315 315 319 324 326 325 326 327 325 324 325 324 323 325 326 324 323 323 323 324 323 324 325 325 326 326 326 326 326
311 312 315 316 315 311 312 310 311 310 315 317 314 314 312 311 312 312 313 317 316 315 319 323 324 325 328 327 325 325 325 325 325 325 325 326 324 323 322 323 323 322 323 325 324 325 326 325 325
313 312 312 314 313 310 309 311 311 311 316 312 312 310 310 310 313 313 315 315 316 315 320 322 324 326 326 325 324 326 327 327 326 325 326 327 327 322 322 322 322 322 322 324 324 325 326 325 323
309 305 309 311 311 308 312 307 307 312 313 312 310 310 311 312 315 314 315 316 316 315 321 322 322 324 324 324 326 327 327 328 327 326 327 326 327 323 322 323 323 322 322 323 324 324 325 325 327
303 303 300 306 309 310 308 301 309 312 311 311 312 312 312 312 312 314 318 318 316 318 320 322 326 322 325 325 326 327 327 327 327 327 326 326 328 325 323 323 324 323 322 322 323 323 324 326 326
300 295 298 302 309 309 307 303 310 312 311 310 311 311 312 312 312 318 321 320 317 318 319 321 323 323 325 324 326 326 328 327 327 327 324 324 326 327 324 323 324 323 323 321 323 322 323 322 323
294 295 300 300 306 307 306 306 309 311 310 309 310 311 313 312 314 319 321 321 318 320 321 322 322 323 324 324 326 326 327 327 327 326 324 324 323 326 325 324 323 323 321 321 321 321 322 322 321
301 299 299 304 308 306 306 307 308 310 310 308 309 310 312 313 315 319 321 321 319 319 321 322 322 321 322 324 323 323 322 325 327 328 327 325 325 326 324 324 323 324 320 320 321 320 322 321 321
302 299 298 303 307 307 306 305 307 310 308 309 309 309 309 313 314 317 319 318 317 317 319 323 321 322 324 325 326 326 326 327 326 326 328 328 327 326 325 325 323 323 322 323 321 320 318 319 322
301 300 299 299 305 306 303 299 303 309 309 310 311 310 312 313 313 316 318 316 317 317 319 321 322 324 326 326 326 325 325 325 324 324 326 325 329 327 326 325 323 323 323 322 321 320 319 318 322
297 305 304 302 301 294 303 290 299 303 305 308 309 308 311 313 315 316 318 316 316 318 319 322 324 325 328 326 324 322 320 319 323 325 326 325 329 327 327 325 324 323 322 322 323 323 320 320 319
300 306 304 303 300 297 297 292 296 303 302 305 305 308 312 313 314 315 317 318 319 318 320 321 323 325 326 326 325 323 322 323 323 321 321 321 323 327 328 326 324 323 323 323 325 322 321 322 323
306 304 303 302 300 290 296 295 295 299 303 303 306 310 313 313 314 317 319 319 318 318 319 323 323 324 325 325 325 323 322 323 321 319 320 321 325 326 327 327 325 323 323 324 325 323 322 318 322
304 298 291 287 288 286 298 295 296 303 307 305 308 311 312 314 315 316 317 316 315 316 319 321 321 320 322 324 324 324 323 322 321 319 320 320 322 323 324 325 324 325 323 326 325 323 324 323 323
299 299 291 284 286 289 299 292 298 307 309 308 312 312 313 313 315 315 316 315 314 316 319 320 320 319 321 323 323 324 324 323 321 321 322 322 322 324 326 326 326 326 327 327 326 324 324 325 326
299 296 301 293 294 289 294 300 304 305 305 306 311 312 311 312 314 315 316 314 314 315 317 318 320 318 321 323 322 323 324 324 324 323 324 323 325 328 326 328 326 326 326 326 326 326 327 327 325
301 304 295 292 286 283 292 295 297 302 302 308 311 310 311 312 313 315 315 314 314 315 316 319 320 318 320 322 322 322 325 326 326 325 324 324 325 323 325 328 327 327 327 328 328 327 325 326 326
298 298 297 295 292 286 286 291 302 301 306 308 310 312 312 312 313 314 314 315 315 316 317 319 318 318 317 319 319 321 322 325 326 324 326 323 326 326 328 328 326 327 328 328 327 326 324 323 323
302 299 297 293 290 293 291 293 306 307 310 311 312 314 312 311 312 314 314 313 314 315 316 318 318 318 317 319 318 320 323 324 325 325 325 326 324 326 327 328 328 328 326 325 325 325 325 323 320

GFSSGP_sfc_thetae_018.txt.gz
Theta_e
338 335 322 319 308 305 301 306 310 311 305 308 308 306 304 303 303 298 317 331 334 333 343 350 354 354 353 352 351 350 349 347 345 345 345 344 343 340 339 339 338 337 336 336 336 336 336 341 344
328 326 316 316 304 299 302 309 308 310 308 308 307 305 304 305 314 315 320 336 333 335 341 346 354 354 353 353 352 352 350 348 347 347 346 346 344 341 340 340 340 339 340 339 339 338 336 339 343
324 321 312 310 304 300 302 310 311 314 310 309 306 310 309 308 318 316 318 337 334 335 340 344 354 353 354 352 353 352 350 349 348 347 345 345 344 343 344 341 342 341 341 340 339 339 339 337 341
320 322 318 304 301 306 308 312 313 312 309 309 308 307 311 316 318 320 325 338 335 337 340 347 354 353 354 354 353 352 349 349 348 347 345 343 342 344 344 342 341 341 341 340 340 340 339 339 339
323 315 304 301 304 308 310 313 313 308 308 306 308 308 308 317 321 321 322 329 328 334 338 347 354 354 354 353 352 352 351 350 347 345 343 342 342 342 342 340 340 340 340 340 340 340 341 342 341
313 309 298 297 302 308 309 312 312 312 309 307 308 307 307 315 318 317 317 325 333 337 341 345 352 353 354 353 351 350 350 346 344 342 341 339 339 338 338 338 339 338 338 339 339 340 341 341 340
309 305 300 301 304 306 308 314 311 311 311 306 311 305 310 312 315 317 315 324 327 332 334 337 341 345 350 348 349 348 345 343 340 337 335 334 334 335 335 335 336 336 337 337 338 339 342 339 340
312 306 301 302 302 303 309 309 312 311 312 314 314 307 305 312 315 315 316 317 322 326 326 327 329 334 336 338 346 345 343 339 338 336 335 334 335 335 334 334 334 335 336 335 337 338 339 339 340
315 302 300 302 303 306 311 305 311 313 311 312 312 312 315 316 315 313 311 311 311 316 314 320 324 326 327 328 333 342 339 337 337 335 336 335 327 326 327 330 333 334 337 336 337 338 338 338 339
310 302 306 312 310 307 310 307 308 308 308 310 312 316 317 316 314 312 310 311 308 311 313 317 320 321 323 328 324 329 328 328 328 328 326 322 322 321 326 330 333 334 335 336 336 337 338 337 329
310 306 312 312 312 312 310 311 312 308 305 309 308 312 314 313 311 311 311 308 309 314 317 317 320 322 323 323 323 322 322 322 324 325 323 322 323 322 322 321 324 322 329 327 331 331 331 329 326
306 312 313 313 314 313 310 313 310 309 309 313 313 315 314 312 311 310 309 311 313 313 317 319 322 322 322 324 324 322 323 322 322 323 324 321 321 321 321 322 322 321 323 324 325 326 326 327 326
309 312 314 315 314 313 314 310 310 309 314 313 314 314 313 312 311 310 310 313 312 316 320 322 322 323 325 324 323 322 323 324 323 322 323 323 321 321 322 321 320 320 320 322 322 323 324 324 325
307 309 311 313 312 312 309 310 308 311 314 311 311 311 311 310 310 309 312 313 313 317 320 320 322 324 325 323 322 322 323 325 324 324 324 325 323 323 323 320 320 320 320 321 322 323 322 322 323
304 301 304 306 307 307 309 305 306 311 311 309 308 309 310 311 311 312 315 314 314 318 319 320 321 322 322 321 321 323 324 326 324 324 324 325 323 322 321 320 320 320 321 320 321 321 322 322 324
299 298 294 303 306 309 305 300 307 311 310 308 309 308 308 309 312 313 315 315 313 318 318 321 326 320 322 321 322 324 325 324 325 324 324 326 325 323 320 320 321 322 320 319 320 320 320 321 325
295 293 295 298 305 306 304 301 307 311 310 309 309 309 309 309 309 311 316 315 316 318 318 320 320 321 322 322 321 323 324 324 325 325 325 324 324 324 321 321 321 322 320 318 320 319 320 323 323
293 292 296 297 303 303 302 301 307 310 308 308 308 309 310 309 309 315 316 315 316 317 319 319 319 322 321 320 323 323 323 325 325 325 324 325 323 324 321 321 321 321 319 318 318 317 320 321 323
299 296 295 300 304 302 301 302 306 309 306 306 306 307 309 309 314 317 317 316 317 318 319 318 319 320 320 322 320 321 321 321 323 324 327 326 322 322 321 321 321 320 318 318 318 318 320 318 319
297 295 296 300 304 300 301 302 306 307 307 306 307 307 307 310 314 316 315 315 316 317 319 320 318 320 322 323 322 323 323 323 323 324 327 328 325 324 323 322 320 320 318 318 318 318 317 316 319
297 295 296 298 302 303 300 299 302 307 307 308 308 308 310 311 312 314 314 313 314 315 318 319 320 321 324 323 323 322 321 322 321 321 325 325 328 326 325 324 321 320 318 320 318 318 318 316 318
294 302 300 300 298 292 300 289 296 301 303 305 306 305 308 310 313 315 313 311 312 314 319 319 321 323 324 324 321 318 317 317 319 319 321 321 325 327 325 323 321 320 319 319 319 319 318 318 317
297 303 301 301 298 295 296 290 295 300 300 303 305 307 308 310 312 313 313 314 315 316 317 320 321 324 324 323 322 319 317 319 320 318 319 320 323 326 326 323 322 321 320 320 321 319 318 320 320
301 300 299 298 296 288 295 293 295 296 301 303 304 308 309 310 311 313 315 315 314 315 317 319 321 322 323 322 321 319 317 318 317 316 317 319 322 323 325 324 321 322 320 322 320 319 318 320 320
298 292 286 284 287 287 296 293 297 300 304 305 306 308 309 311 313 314 314 313 313 315 317 319 320 319 321 322 322 320 318 319 317 318 318 319 319 321 321 322 322 319 322 321 321 319 319 320 322
294 293 288 282 283 287 296 290 297 303 306 306 310 310 311 311 313 314 314 313 314 315 317 320 317 318 320 321 321 320 321 319 319 319 320 319 320 322 323 323 323 323 323 323 321 319 319 321 320
293 290 297 290 291 287 291 296 302 304 304 307 308 310 309 310 312 313 313 312 311 315 316 318 317 316 320 320 321 320 321 321 322 320 320 320 323 325 325 324 323 324 324 323 321 322 323 325 322
296 299 291 289 285 282 289 292 294 298 302 306 307 307 308 310 312 313 313 311 312 315 314 317 317 317 319 319 319 322 322 323 323 324 321 321 323 322 323 323 323 324 324 324 325 325 325 324 324
292 293 294 294 291 286 284 289 298 300 301 306 307 308 309 310 312 313 312 312 311 313 313 316 316 317 316 319 318 320 321 323 323 323 321 324 323 324 324 324 324 324 323 324 323 325 323 323 323
297 293 296 291 288 290 289 290 302 301 307 309 308 310 310 311 312 313 312 311 311 312 314 314 314 316 315 316 317 319 321 323 322 322 321 321 322 325 325 325 325 325 325 324 323 323 322 322 321

GFSSGP_sfc_thetae_021.txt.gz
Theta_e
339 335 320 317 306 304 300 305 308 309 306 305 306 304 303 303 302 297 316 332 331 328 337 349 353 352 351 350 349 348 348 346 343 341 341 341 341 340 339 339 338 337 336 337 336 336 336 335 341
331 326 317 315 303 298 300 308 307 310 311 304 305 303 303 303 313 315 324 331 332 333 340 346 353 352 352 351 351 350 347 345 344 343 344 344 344 342 340 339 340 339 339 339 339 339 339 336 338
322 319 311 309 302 299 300 308 310 313 314 306 303 308 307 307 316 317 321 333 330 334 340 343 353 353 353 352 352 351 348 347 346 346 346 344 344 343 341 340 340 340 341 340 340 340 339 339 337
316 320 316 305 301 304 307 311 312 312 313 308 307 306 309 315 316 317 329 332 330 331 337 344 353 353 354 353 353 352 349 347 347 347 347 344 343 343 343 341 341 341 341 340 340 339 341 340 339
322 314 304 300 303 306 309 311 309 309 306 305 307 306 306 313 320 321 334 333 328 331 336 342 353 354 354 354 352 351 350 350 349 347 346 344 343 342 341 340 340 340 340 339 339 339 340 341 341
311 308 298 296 301 306 308 310 309 309 308 306 306 305 306 313 317 320 332 330 331 333 335 341 352 353 353 353 352 352 351 351 350 347 345 343 342 341 340 339 339 338 339 339 339 340 342 342 341
308 303 299 300 303 304 307 308 307 308 308 306 309 304 307 311 316 316 321 326 330 333 337 341 346 350 353 353 352 352 352 350 347 344 342 339 336 336 336 336 336 337 337 338 338 338 340 341 340
311 306 300 301 301 302 308 309 306 307 310 311 313 306 304 310 314 313 321 323 327 331 335 334 335 339 339 341 350 350 349 346 344 340 337 335 335 335 336 335 334 336 335 335 336 337 339 340 340
312 301 298 301 302 304 308 306 311 312 309 309 310 311 313 314 313 312 311 312 314 321 321 324 327 331 332 333 337 345 343 341 339 336 336 335 328 327 330 331 332 334 335 337 337 336 338 339 337
308 300 302 308 308 306 309 307 309 308 309 307 310 314 315 314 312 311 310 311 310 313 314 321 323 324 324 327 324 326 329 329 328 329 327 326 324 322 325 328 332 333 334 336 336 336 337 337 329
307 304 309 309 312 311 309 310 314 307 306 308 308 310 312 311 311 311 312 312 312 312 313 317 319 319 320 323 322 322 323 321 322 325 325 322 321 320 322 320 321 322 327 325 328 329 329 329 327
304 309 312 312 314 313 310 313 311 312 311 315 312 313 312 310 310 311 311 309 308 312 315 318 319 320 320 321 321 320 321 321 321 323 323 320 319 319 319 319 320 320 321 321 322 324 325 326 326
305 308 310 312 313 313 314 310 311 312 315 316 311 313 312 311 310 312 312 310 310 312 315 317 320 320 321 322 321 320 320 322 321 321 321 321 320 319 319 320 320 319 318 319 320 322 324 325 324
304 305 307 309 311 312 309 308 308 310 313 311 310 311 311 311 311 309 307 310 310 314 316 320 320 321 322 321 320 320 320 321 322 322 322 323 321 320 320 322 319 318 319 318 320 321 321 322 322
301 298 301 302 305 305 307 302 304 310 310 309 307 309 311 311 311 310 311 311 313 317 320 320 320 322 322 320 320 319 321 323 322 323 323 323 322 320 320 319 318 318 319 319 318 320 320 319 321
297 296 292 301 304 306 303 297 306 310 307 307 308 307 309 310 311 312 310 312 313 318 318 319 324 321 319 320 320 322 322 322 322 323 324 325 325 322 319 318 317 319 319 318 317 318 318 319 319
292 290 292 296 303 302 301 298 305 308 307 306 308 308 306 309 308 309 313 312 316 318 317 319 319 319 320 319 319 320 321 322 323 323 323 324 325 324 319 319 319 320 319 317 317 316 317 317 321
289 290 293 294 300 300 298 298 304 307 306 307 307 307 307 307 307 309 312 313 316 317 318 318 318 320 319 318 320 320 320 322 323 323 323 324 324 324 320 320 320 320 317 316 316 316 318 321 322
296 294 294 297 301 299 298 299 302 305 304 305 306 305 306 307 308 312 313 316 317 317 317 316 318 318 317 319 318 319 319 320 321 322 323 327 325 322 319 319 320 319 317 316 317 316 317 320 319
296 293 293 298 301 298 298 298 302 304 304 305 306 306 306 309 311 312 313 316 318 316 316 317 317 318 319 320 319 320 320 320 321 321 322 325 326 324 322 321 319 318 316 316 316 316 315 319 321
295 293 293 294 299 300 298 297 299 304 305 306 307 306 307 309 310 311 313 315 315 315 317 317 317 319 322 321 320 319 318 319 319 319 320 322 324 327 324 322 320 317 316 315 315 317 317 316 316
290 298 297 296 294 288 298 287 295 299 302 303 304 303 305 308 311 312 312 311 314 315 318 317 319 321 321 321 319 316 315 314 316 317 318 319 323 326 324 322 320 318 317 316 316 318 318 317 315
294 300 298 298 294 291 295 289 293 297 298 301 303 303 305 308 311 311 311 312 312 315 316 318 320 321 320 320 318 316 315 316 317 316 317 317 321 323 324 321 319 318 317 317 318 317 317 317 317
299 296 295 294 292 287 293 291 290 295 299 301 303 305 306 308 310 310 311 312 312 314 316 318 320 320 320 320 318 316 315 314 313 314 316 318 319 320 321 322 319 319 318 317 318 317 317 318 318
294 288 282 280 282 284 293 290 294 298 302 303 303 305 306 309 310 310 311 311 311 314 316 317 319 318 319 320 319 318 316 315 314 315 316 316 317 318 318 319 319 317 318 319 318 317 317 318 318
292 291 284 279 281 286 294 289 294 302 305 305 305 306 308 309 310 311 311 311 312 315 316 318 318 316 318 319 318 318 318 317 316 319 318 318 318 318 319 320 320 320 321 320 317 316 316 318 318
290 288 294 287 288 285 289 294 300 302 303 304 305 307 306 309 310 311 311 311 312 313 316 317 315 316 318 319 319 318 319 318 321 320 318 319 320 323 321 320 320 321 321 319 318 317 318 318 318
292 294 286 286 281 281 287 289 292 297 300 304 304 304 306 308 310 311 311 310 313 314 314 316 315 315 318 318 318 320 320 321 321 320 320 319 319 320 320 320 320 321 320 320 320 323 324 323 324
289 289 289 289 288 283 282 287 297 298 301 303 304 305 307 309 310 312 311 310 313 312 312 315 314 316 316 317 317 319 320 320 320 319 319 320 320 321 321 321 320 320 321 322 324 322 323 322 323
295 291 291 288 285 288 287 289 300 300 301 306 305 307 307 309 311 311 310 308 310 311 311 314 314 315 315 317 317 319 320 320 318 318 320 320 320 322 323 323 322 322 321 323 323 321 319 320 322

GFSSGP_sfc_thetae_024.txt.gz
Theta_e
340 333 319 316 305 303 299 303 307 308 306 305 306 304 301 304 307 299 315 328 325 326 334 349 354 352 350 350 350 349 347 345 343 341 340 340 340 339 339 339 338 337 336 337 337 337 337 335 335
332 326 317 315 303 297 299 307 307 309 310 304 303 302 302 302 313 316 322 331 326 328 335 346 354 352 352 351 350 349 348 346 344 342 340 340 341 341 341 340 339 339 338 339 339 339 339 339 336
325 320 311 308 302 298 299 307 308 312 313 306 302 306 305 305 314 318 325 332 329 329 337 343 354 353 352 352 351 350 349 348 344 343 343 343 343 344 343 340 339 339 340 340 340 339 340 340 340
317 320 315 305 301 305 305 309 309 309 312 306 305 304 308 313 315 320 324 331 330 331 337 344 353 353 353 353 352 351 349 348 346 345 345 345 344 343 343 342 341 340 340 341 340 340 339 341 341
319 314 306 302 303 306 308 310 308 307 307 304 305 305 305 311 318 320 330 330 329 330 335 341 352 353 353 353 352 352 351 350 349 346 346 346 344 343 342 342 342 341 340 341 339 339 341 342 342
311 308 299 297 301 305 307 309 308 307 307 304 304 304 305 311 316 322 330 327 328 329 333 338 351 353 353 353 353 352 351 350 350 348 349 347 346 343 342 341 340 340 339 339 340 340 342 342 342
307 303 299 299 302 304 306 308 305 305 306 306 306 303 306 309 315 325 329 328 328 330 333 336 344 350 353 353 352 352 351 351 351 351 349 346 342 339 338 337 337 337 337 338 339 339 340 341 341
310 305 299 301 301 300 307 306 306 306 308 311 311 304 304 309 314 318 323 324 327 329 332 334 339 345 343 346 353 352 352 351 351 347 344 342 338 337 336 337 336 336 336 336 337 336 338 340 340
311 300 297 300 301 303 305 304 308 310 309 308 310 309 311 313 312 316 315 317 320 325 329 331 334 337 337 338 343 351 348 346 345 342 341 338 330 330 333 334 335 333 334 335 336 336 338 339 339
307 299 301 306 305 304 305 306 309 308 309 310 309 311 314 312 310 313 314 316 316 320 320 326 328 331 331 334 331 332 333 331 331 331 329 330 329 327 329 331 334 332 333 334 335 336 337 336 333
307 304 308 307 309 308 308 309 311 308 306 311 309 314 311 310 309 311 313 315 318 319 318 321 324 325 325 323 322 322 324 325 325 327 327 326 325 324 325 325 325 325 328 327 328 328 331 332 331
302 308 311 309 310 308 309 311 310 312 311 315 315 315 311 309 309 310 311 313 310 311 315 317 320 320 320 321 321 322 322 322 321 323 325 323 321 321 321 321 322 322 323 323 324 326 329 330 330
303 307 308 310 309 310 312 310 310 311 316 316 314 311 310 309 310 311 312 312 309 309 312 316 318 318 319 320 321 320 320 322 322 322 323 322 321 320 321 321 322 322 322 321 322 324 326 327 328
303 305 305 305 307 308 308 307 307 310 314 311 310 309 309 309 310 309 309 309 308 310 313 316 318 319 320 321 321 320 320 321 322 322 322 324 322 321 321 321 322 321 321 322 321 323 325 326 327
299 294 298 300 301 301 305 299 301 308 309 307 308 309 308 310 310 309 311 311 310 311 315 318 318 320 321 321 321 320 320 322 322 323 324 324 323 322 322 321 321 321 322 322 321 322 324 324 324
295 294 290 298 302 302 301 294 303 307 306 306 307 307 307 309 310 311 313 309 311 315 317 318 323 321 321 320 320 320 321 322 322 323 324 325 325 324 322 321 320 321 321 321 321 321 321 322 323
292 289 290 293 300 300 299 295 303 305 305 305 306 307 308 307 308 312 310 310 316 317 317 319 321 320 320 319 319 320 322 322 323 324 324 325 326 326 322 321 321 321 321 320 320 319 321 320 321
287 288 291 291 297 296 295 295 301 304 303 303 304 306 306 307 307 308 310 313 317 318 319 319 319 319 319 319 319 320 321 322 323 324 324 326 326 326 322 321 322 322 320 319 319 319 321 322 323
294 291 291 295 300 297 295 296 300 303 302 301 303 305 306 305 307 309 311 315 317 318 318 317 318 318 317 318 319 319 320 321 322 323 325 325 327 325 322 321 322 322 320 319 319 320 321 321 323
294 292 292 297 300 297 296 296 299 302 302 302 304 305 305 306 309 309 310 314 317 318 317 317 318 317 318 320 319 321 321 321 322 323 324 326 327 325 322 320 322 321 319 318 319 320 319 321 322
294 293 294 294 296 296 294 293 296 301 303 303 305 306 305 306 308 308 311 313 315 315 316 316 317 318 321 321 320 320 319 319 320 321 322 323 325 326 326 324 322 321 319 318 318 320 321 319 321
291 298 298 296 292 286 294 285 294 298 300 302 304 302 303 306 309 309 311 312 315 315 317 317 318 320 321 321 319 317 316 315 318 319 320 321 323 326 326 324 323 320 319 318 319 320 321 322 318
294 300 298 296 290 288 291 287 292 296 297 300 302 303 302 306 308 309 311 314 314 316 316 317 319 320 320 321 319 317 316 317 318 318 319 320 322 325 325 323 321 320 319 319 320 320 321 322 321
299 296 293 291 289 283 289 289 289 293 298 300 302 303 306 307 307 309 312 313 313 315 316 318 319 320 320 320 319 317 316 316 316 317 318 319 322 323 324 323 321 321 320 320 321 321 321 321 323
293 288 280 279 280 281 291 288 291 297 300 302 302 302 305 307 307 309 310 311 312 314 316 318 319 319 320 320 319 318 318 317 318 318 319 319 320 321 322 321 321 321 321 321 321 321 321 322 323
292 289 282 277 279 284 292 287 292 300 304 304 304 303 306 307 307 309 310 310 313 315 316 318 318 318 319 320 319 319 319 319 319 322 320 320 320 321 322 322 322 322 322 321 321 321 321 323 323
289 288 291 285 287 284 287 291 297 300 301 302 302 305 305 306 307 308 310 310 312 314 316 317 317 317 319 320 319 319 321 321 321 321 323 322 323 324 322 323 323 323 322 321 321 320 321 322 322
292 294 285 284 279 279 285 288 291 296 299 303 303 303 304 306 307 309 310 310 312 315 316 316 316 317 319 319 320 321 322 323 322 323 321 321 322 323 323 322 323 323 322 321 322 323 323 323 322
287 288 286 287 285 281 281 286 295 298 300 302 303 303 305 307 308 309 310 311 312 313 314 315 315 316 318 318 318 320 322 322 321 321 322 322 323 323 323 322 323 322 322 324 324 324 325 324 323
294 289 288 285 283 285 285 286 298 299 300 302 303 305 305 308 309 310 310 309 311 312 312 315 315 315 318 318 318 320 322 322 319 321 322 323 322 324 323 323 323 322 321 324 323 322 322 322 322

GFSSGP_sfc_thetae_027.txt.gz
Theta_e
338 332 323 321 314 313 309 311 315 314 314 314 314 314 313 315 315 308 328 335 337 332 339 350 354 352 351 350 350 348 347 346 344 341 340 339 339 339 338 338 337 337 337 337 338 338 337 336 334
333 325 323 322 311 306 309 314 315 317 319 320 312 311 309 310 315 320 329 335 336 334 342 345 354 352 352 351 351 350 349 347 345 343 341 340 340 341 341 341 340 339 339 338 338 339 340 339 338
326 323 320 318 314 308 309 314 316 319 319 316 312 312 311 313 319 323 334 337 334 336 343 348 354 353 352 352 352 351 350 348 345 342 342 342 342 342 343 342 341 339 339 338 338 340 342 341 340
321 325 323 312 309 313 313 317 318 317 318 315 313 311 315 319 320 325 335 338 333 335 341 347 353 353 353 352 352 351 350 349 347 345 345 344 343 346 346 344 343 341 340 340 340 343 341 340 340
328 325 313 310 310 314 316 318 318 316 315 316 312 311 314 318 323 328 334 338 335 335 339 344 353 354 353 353 352 352 351 350 349 348 346 346 347 345 345 343 342 342 341 340 340 341 343 344 343
318 319 308 305 308 312 315 318 316 315 315 315 311 311 315 319 322 327 334 338 338 337 340 344 351 354 353 353 353 352 351 351 350 349 349 348 348 346 344 343 342 341 341 341 340 341 342 342 343
315 314 306 306 305 308 312 317 314 313 313 313 313 311 317 319 322 328 334 339 338 340 340 345 347 352 353 353 352 352 352 351 351 350 350 350 348 346 342 339 338 338 338 338 339 339 340 341 340
319 315 305 307 304 305 313 314 315 315 314 316 316 312 316 322 322 330 335 335 335 338 340 343 347 348 348 349 353 353 352 352 351 350 350 350 345 341 338 339 337 337 336 337 337 338 340 340 340
317 308 303 304 305 308 314 313 315 317 317 317 318 319 321 321 321 327 331 331 332 334 338 340 341 346 347 347 348 353 351 351 351 348 347 344 339 337 337 337 337 336 335 335 335 336 337 339 339
314 307 306 311 311 310 312 313 314 314 315 316 318 321 320 320 320 322 326 326 330 332 335 338 341 344 346 345 348 348 346 344 345 343 342 340 339 339 336 336 335 335 334 334 335 335 337 337 338
314 308 312 312 313 313 313 313 316 313 311 315 315 319 323 323 321 320 322 325 327 331 334 336 341 344 345 343 344 342 341 341 340 342 342 340 337 338 337 336 335 335 333 333 333 333 333 333 336
309 313 314 314 315 314 312 315 313 315 315 319 320 322 322 321 321 320 321 324 326 328 332 335 340 342 344 341 338 336 334 335 335 337 339 338 336 336 335 333 333 334 332 333 333 332 333 335 336
309 311 314 316 316 315 315 312 312 312 317 319 320 320 319 319 321 322 322 324 325 326 328 331 337 340 339 337 334 334 334 333 335 335 336 335 334 335 335 334 332 332 332 331 331 331 332 333 336
309 311 311 313 313 313 310 309 310 311 316 315 315 315 316 318 320 322 322 322 324 326 325 330 334 337 335 334 336 335 336 335 334 334 334 336 334 334 333 332 332 332 333 332 331 330 331 332 334
306 303 306 306 308 306 306 302 303 309 312 311 312 314 316 319 320 319 323 325 326 325 325 328 332 334 334 334 335 336 334 334 333 334 336 336 336 336 335 333 333 333 333 333 332 332 332 332 333
301 301 297 304 304 305 304 298 306 311 310 310 312 314 315 318 319 321 323 326 326 324 324 328 328 331 333 335 335 334 334 334 334 335 336 337 337 337 335 333 333 332 333 332 330 330 328 330 331
299 295 296 298 303 303 304 300 306 310 309 309 311 313 314 316 320 324 323 324 323 324 327 327 330 330 333 335 334 335 335 334 335 335 336 337 337 336 335 334 331 333 331 330 330 330 329 329 330
293 293 296 296 301 301 300 300 305 308 309 309 311 313 314 315 318 322 322 321 324 325 329 330 331 333 334 333 333 334 334 334 335 335 336 336 336 335 335 332 333 332 330 329 329 330 329 330 331
299 297 297 299 302 300 301 302 305 308 309 309 310 312 314 316 320 317 318 321 324 326 328 330 331 333 332 330 330 331 331 334 334 335 336 335 335 335 334 332 331 330 329 330 330 328 327 329 331
296 295 295 299 301 301 302 301 305 307 307 309 310 312 314 317 317 317 317 321 324 325 327 329 332 332 332 332 333 335 336 335 334 335 335 335 335 336 334 331 327 330 329 330 328 328 326 328 329
295 294 295 296 300 302 301 299 302 306 308 309 311 314 315 316 317 317 317 321 324 325 327 330 331 332 332 335 334 334 334 332 332 333 333 335 333 334 333 330 329 330 331 328 328 328 329 326 328
293 299 298 297 295 293 300 292 300 303 304 307 310 313 315 315 316 318 318 321 323 325 329 331 331 332 334 335 334 333 329 328 331 331 332 332 332 332 333 333 332 332 330 330 328 329 330 330 326
296 300 298 297 295 296 296 293 297 303 301 305 308 312 315 314 317 317 319 321 324 326 327 330 331 333 334 334 334 330 329 330 331 330 330 332 334 332 331 333 332 332 330 330 329 329 330 330 330
301 299 299 299 297 290 296 294 294 298 301 304 308 312 314 315 316 318 321 323 324 326 327 329 331 332 334 334 333 330 328 328 329 330 331 331 331 331 333 331 332 332 330 330 329 330 328 327 332
300 296 289 287 288 289 296 293 295 302 305 307 309 313 315 316 316 317 319 321 323 324 326 329 331 331 332 333 331 330 329 329 329 330 330 330 330 331 332 333 332 330 332 331 331 331 331 331 332
297 297 291 284 285 289 295 289 294 305 308 309 312 313 315 316 317 318 320 322 323 325 327 328 330 331 332 332 331 331 330 332 332 332 332 332 331 331 334 332 332 332 331 331 332 331 331 332 333
296 293 299 293 293 291 293 296 303 307 308 309 310 311 314 316 316 318 320 322 323 325 327 329 330 331 332 332 332 331 333 332 333 332 333 334 333 332 333 333 331 332 332 331 332 330 331 332 333
298 300 290 293 285 284 290 293 295 303 306 309 310 312 314 316 316 317 319 321 324 326 328 329 330 330 331 332 331 332 333 333 331 334 331 333 333 333 332 333 333 332 332 331 332 331 332 332 332
294 294 295 296 293 287 286 292 307 307 309 311 313 314 314 315 316 317 319 321 324 326 326 328 328 328 329 331 330 331 332 331 330 333 332 334 334 333 332 332 332 332 331 332 332 332 331 330 327
297 296 296 290 289 292 293 292 306 309 309 311 313 313 315 317 317 318 319 320 322 324 325 326 328 327 329 330 329 331 332 330 330 332 332 334 333 332 332 331 331 328 327 329 329 327 328 327 326

GFSSGP_sfc_thetae_030.txt.gz
Theta_e
337 329 329 327 315 311 308 314 320 318 318 321 322 319 317 319 316 312 333 342 342 337 344 351 353 352 351 351 350 349 348 347 344 341 340 339 339 338 338 338 337 337 337 336 336 337 338 337 335
326 324 328 326 310 309 311 319 317 320 321 323 323 321 317 316 321 322 330 341 341 337 345 346 354 352 352 352 351 350 349 347 344 343 342 341 341 340 340 340 340 340 340 339 339 339 339 340 339
326 328 324 321 317 311 313 319 319 320 321 320 319 319 317 317 322 325 337 342 342 339 343 347 354 352 353 352 352 351 350 348 345 344 343 342 341 341 343 342 342 341 340 340 339 339 340 342 341
324 327 325 315 311 315 318 320 321 320 321 320 319 317 320 324 324 328 338 342 340 339 341 348 354 353 353 353 353 352 351 349 347 344 344 343 343 345 346 343 344 343 341 341 340 340 341 343 340
327 324 312 311 312 316 320 322 321 319 319 319 318 317 319 324 327 329 337 340 337 339 340 346 354 354 354 353 353 353 352 351 350 347 346 345 346 348 346 345 344 343 343 343 342 341 342 342 342
319 320 310 308 311 316 319 320 319 319 320 319 316 317 319 326 327 329 335 340 338 338 342 347 353 354 353 354 353 352 352 351 350 350 349 349 349 349 346 345 344 343 342 342 341 341 343 342 342
316 314 309 310 310 312 316 320 318 318 318 318 321 316 322 326 329 330 333 339 340 340 341 347 351 354 354 353 353 352 351 351 351 351 350 350 349 348 346 344 341 339 339 339 339 340 341 341 340
319 316 310 311 309 310 316 318 319 318 317 323 321 317 319 328 330 331 333 334 339 340 340 342 349 348 350 350 354 353 353 352 352 352 351 350 349 347 343 342 339 338 337 337 337 338 339 340 341
324 312 308 309 310 312 318 316 320 322 319 321 322 322 325 328 329 330 331 332 333 335 340 341 343 346 348 347 348 353 352 352 352 350 349 349 343 341 341 342 338 337 336 336 336 336 336 338 339
318 311 310 315 316 315 317 316 317 317 318 318 320 324 326 328 329 328 328 328 331 332 336 339 344 346 347 343 347 352 347 347 346 345 346 345 342 341 339 339 336 337 336 336 335 335 336 337 338
318 312 316 316 318 318 316 317 319 316 315 319 318 321 324 325 326 327 328 329 329 332 335 337 345 347 347 344 345 346 345 344 344 346 346 344 340 340 339 339 337 339 338 336 335 335 335 334 334
313 317 317 318 319 318 316 319 317 318 318 322 322 322 322 323 324 324 325 329 330 330 334 338 342 347 349 344 344 344 341 341 340 339 343 342 339 340 339 337 336 339 336 336 335 332 335 335 335
312 315 317 318 318 318 319 316 317 317 320 322 320 320 320 321 322 323 325 328 332 330 333 338 342 347 349 349 344 342 339 336 338 337 340 341 338 339 339 338 337 337 334 333 334 332 333 334 335
314 313 313 316 317 318 315 315 316 317 318 318 317 318 319 318 320 323 325 329 332 333 334 338 341 347 348 349 347 341 340 338 337 336 338 342 340 340 338 337 336 335 336 335 337 332 332 332 333
313 309 311 312 314 313 316 310 310 315 316 315 316 317 318 319 321 323 327 330 332 334 336 337 340 345 347 346 343 340 338 338 335 336 341 341 342 341 340 338 336 337 338 339 338 335 334 332 333
307 309 303 310 311 312 311 303 312 316 315 314 315 317 317 318 321 324 326 330 334 335 335 337 336 342 345 344 341 338 337 337 336 338 340 342 342 342 341 338 335 338 337 337 337 334 331 329 334
305 300 303 306 312 309 308 305 312 315 314 314 316 317 317 317 321 326 328 331 333 335 336 334 337 339 342 342 340 340 341 337 337 339 339 341 341 341 340 338 337 339 335 335 335 333 331 333 332
300 301 304 305 310 307 306 305 311 313 313 314 316 316 316 317 320 325 329 330 331 333 335 335 336 339 341 339 339 337 336 336 338 338 339 341 341 340 338 338 338 338 334 334 334 331 333 331 332
305 304 304 306 310 307 306 307 310 314 314 314 316 316 317 318 324 326 328 328 329 332 333 335 336 340 337 335 333 332 331 334 337 338 340 340 340 338 339 339 336 335 333 333 332 334 331 331 334
302 301 303 307 309 308 305 306 311 313 314 315 315 316 317 319 323 325 326 328 330 332 334 335 337 339 338 335 336 334 334 336 337 339 339 340 339 337 337 336 335 334 330 332 332 332 332 330 334
300 299 301 302 306 307 305 302 306 312 314 316 316 316 317 317 322 325 325 328 330 331 334 335 338 339 339 339 337 338 338 337 334 335 336 337 338 338 338 334 335 331 332 332 334 333 330 329 333
297 303 301 301 299 295 304 296 305 310 311 313 314 316 316 320 323 325 326 328 330 331 334 336 338 339 338 339 337 336 331 329 335 333 338 336 337 336 336 335 333 334 335 334 334 334 332 333 330
299 304 302 301 299 299 300 297 303 309 307 310 314 315 316 322 322 325 326 328 330 332 333 336 338 337 339 339 338 334 333 333 335 336 334 338 338 334 334 336 336 335 337 335 334 331 333 333 334
303 302 302 302 300 293 299 298 300 305 308 311 315 313 316 322 324 326 328 329 330 332 333 335 335 337 339 339 339 335 334 333 333 334 335 336 339 337 336 335 336 337 337 334 332 333 334 336 335
301 299 293 291 292 291 301 299 301 309 311 312 312 313 320 323 324 325 326 327 328 330 332 333 335 335 338 337 337 336 335 334 334 334 335 334 336 334 334 336 335 336 335 334 334 334 334 331 333
299 300 294 288 291 295 302 296 302 309 313 314 313 314 321 323 325 325 326 327 328 329 331 332 333 333 335 336 336 336 336 335 335 336 337 336 336 333 336 336 336 335 335 335 336 338 336 337 337
299 297 303 299 300 295 299 303 306 308 309 310 311 313 319 323 325 325 327 328 328 330 331 332 333 332 334 335 335 336 336 336 335 336 339 340 336 334 335 336 335 335 335 335 336 338 336 337 336
302 304 296 299 291 290 296 297 297 304 307 310 314 315 319 323 324 325 326 328 329 331 332 333 331 332 334 335 335 335 336 336 337 339 336 335 337 334 335 335 335 335 335 335 336 336 336 335 334
299 299 301 301 299 293 292 295 305 306 310 313 316 318 321 322 323 325 326 328 329 330 331 330 331 332 333 333 334 334 335 336 337 338 336 336 337 335 333 334 334 334 335 335 336 335 334 333 334
302 300 301 295 294 297 297 296 309 312 314 315 316 321 322 323 324 324 325 327 328 329 329 329 330 330 332 332 332 333 335 335 337 335 334 335 335 335 333 333 333 332 333 334 334 331 332 331 332

GFSSGP_sfc_thetae_033.txt.gz
Theta_e
338 331 331 327 313 311 310 312 321 318 319 323 324 322 320 321 316 313 336 339 338 337 352 349 353 352 352 351 350 349 348 347 344 341 340 339 338 337 337 337 336 336 336 335 336 337 337 338 337
324 325 327 323 309 307 310 317 317 321 323 325 325 324 321 318 324 325 331 340 338 338 352 344 353 352 352 352 351 350 349 347 344 342 341 341 340 339 339 339 340 340 340 338 338 338 339 340 340
332 327 322 317 314 310 310 318 320 322 323 322 321 323 321 320 325 327 338 341 338 339 350 348 353 352 353 353 352 351 350 348 345 344 344 342 342 342 342 342 342 342 342 341 340 339 339 340 342
325 324 323 316 313 316 317 320 322 320 323 323 322 318 323 328 326 330 336 339 337 337 343 353 353 353 353 354 353 352 351 349 347 345 345 344 343 344 344 343 343 343 344 342 342 341 341 341 343
325 322 313 311 311 315 320 322 323 319 320 320 321 317 320 328 330 331 336 338 336 337 340 350 354 354 353 354 353 353 352 351 350 348 346 345 345 346 346 345 345 345 344 344 343 343 343 344 343
317 319 311 308 311 316 319 321 321 319 319 321 319 319 321 329 330 331 334 338 338 337 340 345 355 353 353 353 353 353 352 352 351 350 349 349 348 348 347 347 346 345 343 343 342 342 342 342 341
315 315 310 311 310 313 317 322 318 318 319 319 322 317 323 327 332 333 335 336 340 338 339 341 354 354 354 353 353 352 352 352 351 351 350 350 349 349 348 347 345 343 341 339 339 340 340 341 340
318 316 311 312 309 310 318 319 321 319 318 326 325 317 319 328 332 333 334 335 336 339 338 340 347 353 352 349 354 353 353 352 352 351 351 350 349 348 348 346 344 341 338 338 337 337 338 339 341
323 312 309 310 311 313 319 317 322 323 320 321 323 323 326 330 331 331 331 332 334 335 339 340 339 345 349 346 348 353 352 351 351 350 349 349 343 342 345 345 345 341 339 337 337 336 336 337 338
317 313 312 317 317 315 319 318 319 319 318 319 321 325 326 328 328 327 327 327 329 332 336 339 341 345 346 343 350 352 347 346 345 345 345 347 347 343 340 343 338 339 339 338 337 337 336 336 334
318 313 318 318 319 320 318 319 321 318 316 320 320 323 325 325 326 325 326 327 327 330 333 337 351 353 348 344 344 348 347 345 347 347 352 351 343 340 340 340 339 339 340 338 337 336 336 336 332
313 317 319 319 321 319 317 319 319 319 320 324 324 325 324 323 323 324 325 325 326 327 333 336 343 353 355 346 342 345 345 346 343 344 350 348 341 342 342 339 339 344 338 339 342 335 339 339 335
312 314 316 319 320 319 320 318 318 319 323 325 324 323 323 322 323 325 325 325 326 327 330 335 345 353 355 357 346 347 348 342 344 341 343 342 339 343 341 341 339 339 339 336 335 336 335 336 334
316 316 315 317 317 318 316 317 319 320 324 323 322 322 321 321 323 324 325 325 328 333 334 337 346 356 352 353 358 352 352 343 339 338 339 343 342 345 339 340 340 339 341 338 341 338 333 332 333
316 312 315 315 316 315 317 312 314 320 322 320 320 320 321 321 323 324 325 330 330 335 339 340 350 354 356 354 354 351 344 341 338 338 342 341 344 344 343 338 338 338 346 341 341 337 339 334 333
310 312 306 313 315 315 314 307 315 320 319 318 318 319 319 322 324 325 325 328 337 341 341 342 337 345 352 355 352 346 341 340 337 338 339 343 344 344 342 339 338 339 342 342 338 335 334 332 337
308 303 305 308 315 314 312 309 314 317 317 317 318 318 319 321 323 327 325 329 336 340 340 340 344 342 348 353 348 347 350 340 338 338 338 342 343 342 342 341 340 343 341 338 337 334 337 332 334
300 302 305 305 311 312 310 310 314 316 315 315 318 318 318 320 322 326 327 329 335 337 341 343 342 348 351 347 347 340 338 339 337 337 338 341 341 341 341 340 341 342 339 338 336 335 334 333 332
305 304 304 308 312 309 309 310 314 315 314 315 316 317 319 321 324 326 329 333 333 336 340 341 340 349 346 340 336 336 334 336 335 338 340 341 340 341 342 340 340 340 338 336 336 336 333 334 335
303 302 303 308 312 310 310 308 312 314 314 315 316 318 320 321 323 323 331 333 333 336 338 339 339 344 344 340 342 337 337 334 337 338 341 341 340 342 340 340 339 339 338 336 333 335 332 333 335
302 301 302 304 309 310 309 306 309 313 315 315 316 318 320 321 321 322 330 332 334 335 337 338 340 342 345 346 342 340 339 339 335 335 336 339 339 339 340 338 338 338 338 334 335 336 331 330 332
298 305 304 304 303 299 308 298 305 309 310 313 316 318 320 320 322 322 331 333 334 335 337 340 341 341 341 343 343 343 333 330 333 336 334 338 337 337 337 338 337 336 335 338 334 337 334 333 329
301 306 305 304 302 301 301 298 303 307 307 311 315 318 320 321 320 325 330 332 334 336 337 339 341 340 341 341 342 337 335 331 334 334 336 339 340 339 336 337 336 336 341 335 335 334 334 333 334
305 303 304 305 302 295 300 299 300 304 308 311 316 319 320 320 321 327 331 333 333 335 337 338 339 339 340 339 340 339 336 334 333 334 334 337 342 340 337 335 337 338 337 336 334 334 335 336 337
304 300 293 293 294 294 302 299 303 308 311 313 315 317 318 319 326 328 330 330 332 333 335 336 337 337 339 339 337 337 337 336 336 335 338 336 338 337 339 337 337 338 337 335 336 336 336 335 337
301 300 294 288 291 294 302 297 302 313 315 317 318 318 317 324 327 328 329 331 331 333 334 334 336 336 337 336 336 337 337 334 335 337 339 338 336 339 337 336 336 336 335 334 337 341 339 338 339
300 298 304 298 301 296 301 306 311 313 313 314 315 317 317 324 327 328 330 331 331 332 333 335 335 335 335 335 336 335 336 337 336 337 340 339 338 335 335 335 336 335 335 336 338 337 335 336 336
302 305 296 299 291 291 299 301 303 306 308 312 312 313 317 324 327 328 329 331 331 333 334 336 335 334 333 334 334 334 339 336 336 339 337 337 338 334 334 335 336 335 335 335 338 338 337 335 331
299 299 300 302 300 294 293 299 311 309 311 312 313 315 317 324 326 327 329 330 331 333 333 334 332 332 333 333 334 335 337 335 335 337 336 337 337 334 333 334 334 333 334 335 337 336 334 332 334
302 301 302 297 296 300 300 300 310 311 313 316 317 318 321 326 327 328 329 330 330 332 332 330 332 331 332 332 332 333 338 333 336 334 336 336 335 334 332 334 331 331 332 335 334 332 333 332 331

GFSSGP_sfc_thetae_036.txt.gz
Theta_e
338 332 328 322 311 308 306 309 316 318 318 322 322 320 318 320 315 312 337 338 343 346 344 347 351 351 351 350 349 348 348 346 345 344 342 340 338 337 336 336 336 335 335 334 334 335 336 338 338
323 321 326 319 307 304 305 315 315 318 321 323 322 322 319 317 323 327 331 338 342 348 347 344 352 352 352 351 350 350 349 348 346 345 344 342 339 338 337 338 338 337 338 337 337 337 338 339 340
328 324 317 312 310 305 307 317 319 322 324 321 319 324 320 319 325 329 338 340 341 350 348 345 352 352 352 352 351 350 350 349 347 345 345 344 342 341 341 341 341 341 341 341 341 340 340 340 341
326 321 318 310 309 314 316 320 321 321 323 323 321 317 323 328 327 330 335 337 336 343 348 351 352 352 353 353 352 351 350 350 349 347 347 346 344 345 345 343 342 342 343 343 343 342 342 342 344
324 318 309 307 308 313 316 320 321 320 320 320 321 316 320 326 330 331 336 337 335 336 345 352 352 353 353 353 353 352 351 350 349 349 348 347 346 346 346 345 344 344 345 344 344 344 343 343 344
314 315 306 305 309 314 317 321 320 319 319 319 318 319 320 329 330 331 333 338 336 338 343 353 353 352 353 353 353 352 351 350 350 350 349 348 348 348 348 347 347 347 345 343 343 342 344 342 342
312 310 306 307 309 312 316 322 319 318 318 318 323 317 322 327 331 335 337 339 340 340 341 354 352 352 353 353 352 352 351 351 351 350 350 350 350 349 349 349 347 347 345 343 340 339 340 342 343
316 312 307 309 309 310 316 318 321 319 317 324 324 317 318 329 333 333 333 333 336 338 337 352 353 350 350 350 353 353 352 352 352 352 351 351 350 349 349 348 349 347 345 341 339 338 338 341 342
318 307 304 307 309 312 318 316 320 323 319 321 322 321 324 327 328 328 329 329 330 332 338 341 351 352 350 347 350 354 353 352 352 352 351 349 344 341 344 345 347 346 345 341 340 338 338 338 338
313 307 307 313 315 314 317 317 318 318 318 318 320 324 326 327 326 326 326 325 326 327 330 337 340 348 350 345 346 350 349 348 348 345 345 345 343 344 343 344 349 345 345 341 340 339 339 336 332
316 309 313 315 318 318 317 317 321 318 315 319 319 322 324 325 327 325 324 324 326 329 329 335 342 346 347 343 344 350 348 346 344 344 345 347 346 346 343 339 340 340 342 337 339 337 335 334 333
308 315 316 317 319 318 316 319 317 318 319 323 324 325 325 325 325 324 323 324 324 327 334 334 344 349 346 345 345 349 348 345 343 344 348 347 347 345 343 340 343 338 338 338 339 335 335 335 337
310 311 314 317 318 317 319 316 316 317 322 324 324 325 325 324 325 326 326 327 330 331 335 337 346 346 350 351 345 346 347 346 345 347 348 347 344 342 344 343 342 341 340 339 336 336 335 335 333
313 312 313 315 315 316 313 314 316 318 322 322 323 323 324 325 324 324 328 331 335 336 339 342 348 349 350 346 353 350 352 350 348 346 346 346 344 344 343 344 341 340 342 340 338 336 335 334 333
312 309 312 314 314 314 317 312 313 319 320 319 321 322 323 324 323 323 329 336 338 337 345 348 350 352 351 352 350 359 352 351 346 344 348 346 345 345 346 343 341 339 341 340 338 337 336 334 333
307 308 304 311 314 315 314 306 315 319 318 317 319 320 322 323 323 329 327 337 339 342 345 349 338 352 352 353 352 350 351 348 348 344 346 345 347 346 345 341 339 340 341 340 336 335 333 332 332
305 301 302 305 312 312 312 308 315 319 318 317 318 318 320 321 325 331 333 333 337 345 347 347 348 350 351 354 353 352 353 344 344 346 344 345 344 344 342 340 341 342 339 337 336 334 333 331 330
299 300 303 303 309 311 309 309 314 317 317 317 318 318 318 319 323 329 333 333 346 342 346 353 350 351 351 351 353 349 346 345 346 344 343 346 345 344 341 340 341 340 338 336 333 333 333 331 327
303 303 302 306 310 309 308 309 311 316 317 316 317 318 318 320 324 328 332 343 340 343 346 350 349 351 349 347 343 341 338 341 341 343 344 344 344 342 342 340 340 338 336 333 333 332 330 328 330
300 300 301 306 308 308 307 308 312 315 315 316 317 317 318 320 324 328 333 339 340 342 345 346 346 351 348 346 344 341 340 338 339 341 344 344 343 343 340 340 338 336 335 333 332 331 328 328 331
299 298 300 300 305 307 306 304 309 313 316 317 318 319 320 320 319 321 331 337 338 339 341 342 345 347 346 346 345 349 345 346 342 340 340 342 341 341 341 339 337 336 335 332 331 331 329 326 329
296 302 301 301 299 296 305 295 306 310 312 315 316 318 318 320 322 324 330 335 337 337 340 341 345 344 345 348 345 344 339 335 338 340 338 340 341 339 339 338 336 336 335 333 333 333 330 329 323
299 303 302 301 300 300 300 298 302 309 307 310 314 316 318 320 323 326 332 335 336 338 338 341 343 342 346 346 344 343 342 341 341 339 339 341 341 338 338 337 336 335 335 335 333 333 329 330 327
304 301 301 301 300 294 300 298 298 303 307 310 314 316 317 321 323 325 334 335 334 337 338 340 340 342 343 344 346 345 341 340 338 338 337 338 339 340 337 336 336 337 336 333 335 333 332 331 331
300 299 292 291 291 291 301 298 300 308 310 311 313 315 318 322 322 329 331 331 333 334 337 338 339 339 341 342 342 342 341 341 340 339 337 337 337 336 335 336 336 336 334 335 335 333 332 332 331
298 299 293 286 288 292 299 295 301 311 313 315 317 318 320 321 328 329 330 331 332 334 336 336 337 337 339 339 339 341 342 338 339 341 339 337 336 337 337 337 336 336 335 334 334 334 332 332 332
297 294 301 296 297 293 297 302 307 310 312 315 314 318 319 325 328 329 330 331 332 334 335 336 336 337 337 338 340 339 340 341 340 340 341 338 339 337 337 336 334 335 334 334 335 332 331 331 332
299 302 294 297 289 288 295 298 300 308 311 313 315 316 319 326 327 328 329 331 333 334 336 338 338 336 336 337 337 336 339 336 335 340 338 339 338 334 335 335 335 334 334 334 333 332 333 331 330
297 296 298 300 297 292 291 296 310 312 313 312 315 316 319 325 326 328 328 332 333 334 334 336 336 334 334 336 337 335 337 334 337 339 338 337 338 334 334 335 335 334 333 334 333 331 332 330 330
301 298 299 294 294 297 297 297 313 312 313 315 315 316 322 326 326 327 329 330 331 332 333 334 334 332 333 334 334 334 333 335 337 337 337 338 337 335 332 332 330 333 333 333 332 332 331 330 328

GFSSGP_sfc_thetae_039.txt.gz
Theta_e
335 333 325 320 306 304 299 302 309 313 316 320 318 316 312 313 313 309 326 338 339 337 343 348 352 352 351 350 350 349 348 347 346 344 342 340 339 337 337 337 337 336 335 335 334 334 335 336 337
324 321 321 316 302 297 300 307 311 316 320 323 321 316 314 314 324 325 328 341 340 337 341 344 352 352 351 350 350 349 348 347 346 344 342 340 340 338 338 338 338 338 338 338 337 336 336 337 338
329 318 308 305 303 299 299 312 315 320 323 321 318 321 318 317 328 328 332 344 341 337 340 342 352 351 351 351 350 349 349 348 346 344 344 342 341 341 342 340 340 340 340 341 340 340 339 339 339
319 317 311 302 302 308 310 314 320 319 322 324 320 315 319 328 325 330 342 345 342 340 339 346 352 352 352 352 351 350 349 349 347 345 345 344 343 343 345 343 342 342 342 343 343 342 342 342 342
318 312 300 300 303 310 313 318 318 318 319 321 321 315 315 323 328 330 335 345 342 341 337 346 351 352 353 353 352 351 350 349 349 348 346 346 347 347 346 344 342 343 344 344 344 344 345 343 343
308 308 298 298 304 310 313 316 319 317 319 316 316 315 316 323 324 327 330 330 342 341 338 345 351 352 352 353 352 351 350 350 350 350 349 349 348 348 348 345 344 345 346 345 343 343 342 343 342
310 302 298 300 303 307 311 317 314 315 315 315 317 313 316 322 325 325 328 329 329 341 340 344 345 348 353 352 352 351 350 350 349 349 349 349 349 349 349 348 347 347 348 347 345 342 340 342 342
315 305 299 301 302 304 313 315 314 315 315 322 321 313 309 321 327 326 324 327 327 336 344 343 343 343 345 347 353 352 351 350 350 350 350 349 349 350 350 348 349 349 348 346 345 341 340 341 342
322 303 297 300 303 306 313 312 317 320 318 318 320 318 320 323 325 322 318 319 321 328 344 344 343 343 343 344 349 352 353 352 351 350 350 347 342 343 344 347 347 349 349 347 345 343 342 341 339
315 304 303 308 309 308 312 314 315 316 317 316 318 324 324 324 320 316 316 316 313 316 338 344 343 343 342 344 343 346 346 346 346 345 344 343 340 336 340 343 349 349 349 346 344 344 341 338 330
312 306 310 310 312 313 313 314 318 315 313 316 316 319 321 322 321 318 315 313 314 317 319 343 343 343 342 341 342 345 344 343 344 342 339 341 339 337 339 334 340 342 346 338 340 337 335 331 329
306 311 313 314 315 313 312 316 314 315 314 318 320 321 323 320 318 317 316 316 315 315 317 322 341 344 343 341 340 343 342 341 341 341 337 338 338 338 335 331 333 333 335 332 330 332 331 330 331
306 308 310 314 315 314 315 313 313 313 318 319 320 319 318 318 318 318 318 318 316 316 318 320 334 342 342 337 340 342 342 341 339 338 338 339 339 335 333 330 332 332 331 332 331 331 332 330 330
307 309 310 311 310 311 310 311 313 314 316 316 317 316 317 318 318 318 318 317 318 322 319 321 331 338 339 337 340 342 342 341 339 339 339 341 338 334 333 334 332 331 331 330 330 329 328 327 328
306 302 305 307 309 309 311 307 308 314 316 315 315 316 316 317 318 318 317 317 320 320 322 325 335 338 339 337 340 341 342 341 340 339 341 340 335 332 335 332 331 330 331 331 329 328 329 327 328
304 303 297 304 307 309 310 301 310 314 314 313 315 316 316 315 317 319 317 316 320 318 322 329 342 340 341 338 340 342 341 338 335 333 338 338 335 334 333 331 330 331 330 330 328 328 326 326 325
299 295 297 300 307 307 307 303 310 314 313 312 314 314 315 315 315 317 318 319 320 320 323 330 339 341 341 341 340 340 339 334 333 333 333 337 337 337 333 332 330 331 330 328 328 327 326 324 324
292 295 298 298 303 305 304 303 308 311 311 311 313 314 315 315 313 315 318 319 325 329 332 333 341 341 342 342 341 339 336 332 332 333 332 335 335 337 334 332 331 331 329 326 327 325 326 325 323
298 298 297 301 305 303 302 303 306 309 309 309 310 310 312 313 316 316 319 321 327 330 333 336 340 340 343 341 337 333 331 330 329 331 332 335 336 336 333 330 330 330 326 326 327 325 325 323 323
295 293 294 300 305 303 302 301 306 309 309 310 311 311 312 312 314 317 319 326 326 330 333 334 337 339 338 338 334 332 331 329 329 330 331 333 334 332 332 330 330 327 327 326 325 324 322 321 324
293 292 293 293 298 301 299 296 300 305 307 310 311 312 312 312 312 313 320 325 328 330 330 332 336 337 336 336 334 332 331 330 328 328 330 332 333 333 331 331 329 327 328 325 324 323 321 318 320
290 297 297 296 294 289 297 288 297 301 303 306 309 310 310 312 314 313 321 325 327 329 331 333 336 335 335 333 331 329 325 323 325 325 329 331 332 331 332 333 330 328 327 324 323 325 322 321 318
293 300 297 297 293 292 293 288 295 300 301 304 307 309 310 310 312 313 323 328 329 330 331 334 334 333 334 331 331 329 326 327 326 326 328 328 329 331 333 332 329 327 326 324 324 324 323 322 319
298 296 296 295 292 285 291 291 292 295 299 302 306 309 309 309 311 322 328 329 329 331 332 333 332 331 331 332 331 327 325 325 325 324 325 325 327 328 331 331 328 327 326 325 326 324 322 323 322
293 289 283 283 284 284 293 291 294 299 303 305 306 307 309 311 313 324 325 326 327 330 331 331 330 329 330 332 330 329 326 325 323 325 323 324 325 326 326 326 325 326 327 326 325 324 323 323 323
288 290 284 278 281 285 294 289 293 303 307 308 309 308 310 310 322 324 325 326 328 330 331 330 330 329 329 329 327 328 327 325 326 326 326 326 325 325 326 327 326 327 326 327 325 324 324 325 325
288 285 293 287 290 286 290 294 299 302 303 306 307 309 310 318 322 323 324 326 328 329 329 329 329 329 329 328 328 327 327 328 326 327 329 326 327 329 327 327 326 326 326 327 325 324 324 324 325
293 293 286 288 281 280 288 290 291 298 301 305 306 307 315 321 322 323 324 326 329 329 328 329 329 329 329 328 327 327 326 328 328 327 327 327 327 326 327 326 326 326 328 327 325 325 326 324 323
291 287 288 288 288 283 283 288 298 300 306 303 306 308 318 320 321 323 325 327 328 328 329 329 328 328 327 327 326 330 327 328 327 327 328 326 325 326 326 327 326 326 325 327 326 324 324 323 323
295 290 289 285 284 289 289 289 301 304 305 306 307 309 319 320 322 323 325 326 326 326 328 327 327 325 326 327 326 329 328 327 327 327 327 326 326 326 327 327 327 327 327 326 325 325 326 325 323

GFSSGP_sfc_thetae_045.txt.gz
Theta_e
337 328 320 315 301 299 294 299 307 307 310 316 315 312 309 311 313 305 322 334 335 334 345 350 353 352 350 350 349 348 346 345 344 342 340 338 338 337 337 337 337 336 336 335 334 334 333 333 333
323 321 317 311 298 294 294 302 303 308 315 318 316 314 313 314 321 324 325 335 335 337 344 345 353 351 351 350 349 348 347 346 345 343 341 339 338 338 338 338 337 336 336 336 336 335 334 334 334
320 316 306 304 299 293 295 305 311 316 319 317 316 317 316 318 327 326 329 336 333 336 342 343 352 352 351 351 350 349 347 346 344 342 342 341 340 340 340 338 338 338 338 338 339 338 337 338 338
317 314 308 299 298 303 302 307 311 312 317 319 317 312 316 325 327 328 337 335 332 335 339 345 352 352 352 352 351 349 348 347 345 343 343 342 340 342 342 339 339 339 340 340 341 341 341 341 341
314 307 297 296 299 304 309 310 310 311 315 316 316 312 313 323 331 337 336 335 330 333 335 340 352 352 352 352 351 349 349 348 347 346 344 343 344 343 342 340 340 341 342 342 343 343 343 344 343
306 305 295 294 298 305 307 309 309 314 317 316 315 312 313 321 332 336 336 333 331 331 332 335 350 351 351 352 351 349 349 348 347 347 347 346 346 345 343 342 342 343 343 344 344 344 344 345 343
304 298 295 297 300 303 306 309 308 309 312 314 315 311 313 319 325 337 336 334 331 330 330 332 342 348 352 351 350 350 349 348 348 348 347 347 347 347 345 344 343 343 344 344 345 344 345 345 342
309 303 297 297 299 300 307 308 308 311 312 317 318 310 308 316 322 334 334 333 331 330 327 329 337 341 343 344 351 350 350 349 348 348 348 347 348 348 346 346 346 344 344 345 346 346 346 345 343
312 299 295 298 300 302 305 304 310 315 313 314 315 315 318 321 321 320 319 321 327 334 329 327 333 336 339 340 344 350 350 350 349 348 348 346 341 341 342 345 345 345 345 346 347 348 347 345 341
308 299 300 305 306 304 309 308 309 310 310 311 313 317 320 320 319 318 317 319 321 329 332 332 334 332 335 338 337 343 342 342 342 342 341 341 338 337 341 343 346 346 346 348 349 349 346 342 332
309 304 308 309 311 311 309 309 312 309 306 311 312 315 317 317 317 317 317 317 318 325 331 336 335 334 332 334 335 339 341 339 340 339 338 339 338 337 338 336 338 338 345 340 343 342 339 333 331
303 311 312 312 314 315 313 314 311 312 310 316 316 318 317 316 315 314 314 316 313 312 322 335 337 335 333 333 333 335 337 337 337 338 337 337 336 333 332 334 332 331 335 338 336 333 333 331 331
302 306 311 315 316 313 313 311 311 311 316 317 318 318 315 315 315 314 315 315 314 311 314 329 336 336 335 333 332 334 336 336 335 337 338 337 335 332 331 330 329 330 331 335 331 330 330 328 328
299 303 306 307 307 308 307 307 308 310 315 314 313 312 313 312 313 312 312 313 314 315 313 320 335 336 336 335 333 334 335 336 335 337 338 337 334 331 330 330 329 328 329 330 330 330 329 326 327
299 295 299 300 300 301 306 302 304 310 312 311 312 312 312 313 313 312 314 313 314 315 315 313 332 335 335 335 334 334 335 336 335 336 336 336 334 331 330 329 327 329 327 327 328 330 328 328 327
296 295 292 300 302 302 303 296 305 310 310 309 310 310 311 312 312 314 314 313 315 313 314 315 328 334 335 335 335 334 336 336 335 334 335 335 334 333 330 329 328 328 326 327 327 326 327 324 326
291 290 292 296 303 303 302 299 305 310 309 307 308 309 311 312 312 312 314 314 314 314 314 313 317 327 334 334 332 333 334 336 335 334 334 334 335 334 331 329 328 327 326 325 325 325 324 321 322
287 289 293 294 300 302 300 299 303 306 307 306 307 308 309 310 312 314 315 315 314 313 314 313 318 326 328 329 330 331 332 331 333 333 335 336 336 334 331 330 328 326 325 324 323 322 323 322 321
292 292 291 296 300 300 299 299 302 305 304 304 306 307 307 307 310 312 313 314 313 313 315 315 323 328 332 332 330 327 328 326 326 331 335 334 334 332 329 328 327 326 325 325 324 322 323 322 323
290 287 287 293 297 295 295 296 299 301 303 305 305 306 307 308 308 311 312 312 315 316 321 321 327 331 331 332 327 326 325 324 326 327 332 333 333 334 332 327 326 325 324 323 324 324 321 321 323
288 288 289 289 294 295 293 291 294 298 299 302 304 304 305 305 306 308 309 311 315 320 324 327 329 331 332 330 328 325 325 324 323 323 325 329 334 333 329 328 326 325 326 324 323 323 321 316 320
284 292 292 291 288 284 291 283 291 295 296 299 301 302 301 303 307 307 308 309 317 321 327 330 331 332 332 330 328 327 322 321 321 323 324 326 329 329 329 328 326 325 324 323 321 322 318 316 313
286 291 290 291 288 285 287 283 289 293 293 296 299 301 301 304 304 305 306 310 318 325 327 330 331 331 329 329 329 325 322 321 321 322 323 323 325 328 330 328 326 324 322 322 321 319 318 317 315
292 288 289 288 285 279 285 285 286 289 293 296 298 299 303 302 304 305 308 318 322 325 328 329 331 327 328 327 326 324 322 320 321 320 321 322 323 324 327 327 324 323 322 321 320 320 319 317 316
286 280 276 276 276 279 288 285 288 292 295 296 296 298 300 302 301 309 317 320 323 326 327 327 329 325 325 324 323 323 322 322 321 320 320 321 320 321 323 324 323 321 322 321 320 319 319 318 317
282 281 277 274 276 280 289 283 288 296 299 301 301 300 300 300 301 309 318 320 324 326 327 326 327 324 324 323 322 321 322 322 321 321 321 321 321 321 322 323 322 322 323 323 321 320 319 318 318
284 280 284 279 281 278 283 288 294 297 297 299 298 299 298 300 303 314 319 322 325 326 325 325 325 324 324 323 322 321 322 322 321 321 321 322 321 322 322 322 322 322 322 322 320 319 319 320 319
287 289 279 277 275 275 281 283 286 291 294 297 297 297 299 300 310 317 322 324 325 325 324 324 325 324 323 322 322 323 322 322 323 323 322 322 322 323 322 321 322 321 322 322 320 319 320 320 320
285 285 285 281 280 276 276 281 291 293 295 295 296 299 302 305 315 319 323 325 325 325 325 324 324 323 322 322 321 321 322 323 323 323 323 323 322 322 322 323 322 322 322 321 320 319 321 320 319
288 287 285 280 278 282 280 282 295 292 294 295 297 300 311 311 316 321 324 324 324 325 324 325 324 323 322 321 321 321 321 321 321 323 323 321 321 322 323 323 323 323 323 322 320 321 321 320 320

GFSSGP_sfc_thetae_048.txt.gz
Theta_e
337 327 319 313 298 297 292 296 304 304 306 313 313 313 314 314 311 305 321 333 331 334 346 349 353 352 352 351 350 349 348 347 346 346 343 341 341 338 337 338 337 337 337 336 335 334 334 334 334
324 318 316 309 294 291 291 299 302 304 310 318 314 311 311 311 318 320 321 333 331 337 345 346 353 352 352 351 351 349 348 347 347 345 343 343 342 339 339 338 338 338 337 337 336 335 334 334 334
318 314 307 303 295 291 292 302 306 311 315 316 314 315 316 315 324 323 327 335 333 338 344 344 353 352 352 352 351 350 348 347 346 344 343 342 342 342 341 339 338 338 337 337 338 338 337 337 337
316 311 306 298 297 299 299 304 307 309 312 317 317 311 315 324 325 327 335 334 333 336 342 346 352 351 352 352 351 350 349 347 346 345 344 343 341 343 343 340 339 338 339 339 339 340 340 340 339
313 307 296 294 298 301 305 308 308 307 310 315 315 311 312 323 329 333 334 333 332 334 338 342 352 352 352 353 351 350 349 348 347 347 345 344 344 343 342 340 339 340 340 341 342 342 343 343 342
304 304 294 293 297 302 305 307 307 308 311 316 314 311 314 320 328 333 334 330 331 333 335 338 352 352 351 352 352 351 349 348 347 347 346 345 345 345 342 341 341 341 341 342 343 343 344 345 342
302 298 295 296 298 300 304 308 306 307 309 312 316 310 313 317 326 334 333 331 328 330 331 332 344 348 352 352 351 350 349 348 348 347 346 346 346 346 345 344 342 343 344 344 344 345 346 345 343
307 303 297 298 298 299 305 306 306 308 310 316 317 309 307 316 324 334 333 331 328 326 328 328 336 342 344 346 352 351 350 349 348 348 348 347 347 347 346 345 346 344 344 345 345 346 347 346 345
309 296 292 297 299 301 304 305 309 312 311 313 314 314 316 319 322 327 325 325 330 332 325 325 329 337 340 342 345 351 350 350 349 349 348 345 341 342 342 344 345 344 344 345 347 348 348 347 344
306 296 297 303 306 303 307 305 306 307 307 309 312 316 318 319 317 318 322 324 324 328 331 325 327 333 335 338 338 343 343 342 343 343 342 341 338 339 341 343 345 344 345 347 348 349 348 345 338
308 303 307 306 308 309 308 309 311 307 306 308 309 312 314 316 316 315 317 322 325 328 330 331 328 330 332 334 334 336 341 340 341 339 338 339 338 339 341 338 340 341 345 341 344 346 345 340 335
304 310 311 309 311 313 311 312 310 310 311 313 315 315 315 314 313 313 315 317 316 316 323 331 332 330 330 331 332 333 337 337 337 338 338 338 337 335 336 336 335 336 338 339 340 339 339 337 335
304 305 310 314 314 313 314 311 311 311 314 316 316 316 314 314 313 313 313 314 314 313 316 317 332 333 332 330 331 331 332 336 335 336 337 337 336 333 333 334 333 332 333 336 337 336 336 335 334
299 304 307 308 307 308 306 308 307 309 314 312 312 312 312 310 311 311 312 312 312 313 313 314 328 334 334 331 330 330 331 334 333 334 336 337 335 333 332 331 330 329 331 333 335 334 334 333 332
298 294 296 299 301 301 306 302 304 310 311 310 310 311 311 310 311 311 312 313 313 314 315 314 320 332 333 333 332 330 331 334 333 334 336 336 335 332 331 329 328 329 330 332 332 332 332 330 330
295 293 291 299 299 301 304 296 305 309 309 308 310 311 311 310 311 312 312 312 314 313 313 315 317 329 333 334 334 333 332 334 334 334 336 337 335 333 331 329 329 330 329 330 330 330 329 329 329
290 289 290 294 301 301 300 297 304 308 307 306 306 307 308 308 310 311 312 312 312 313 313 313 314 326 331 333 333 331 332 333 333 333 335 336 335 333 331 330 330 331 330 329 329 328 329 326 326
285 287 291 291 298 299 297 298 302 305 305 304 304 306 307 308 309 311 312 314 313 312 313 313 313 319 329 329 328 330 332 332 333 333 334 335 335 334 332 331 330 330 328 327 327 327 326 326 326
291 290 289 294 298 298 297 298 300 302 303 304 305 307 308 309 310 311 312 312 312 313 312 312 313 320 328 328 327 326 329 331 330 332 335 334 335 334 333 331 330 329 328 328 327 326 325 323 324
289 287 286 291 296 293 293 292 294 297 299 302 304 305 305 306 306 309 311 310 310 311 313 315 314 324 327 329 326 328 326 327 329 332 335 336 335 334 333 332 329 329 327 327 325 326 325 325 326
287 286 287 288 293 293 291 290 293 297 298 299 301 302 304 305 305 307 308 307 308 310 313 318 321 326 329 328 326 324 325 325 325 326 328 332 334 334 333 331 329 327 328 326 326 327 325 321 323
283 291 291 290 288 283 290 283 290 294 295 297 298 299 301 301 304 306 305 306 307 309 319 325 327 329 330 328 326 327 324 323 323 324 327 329 332 332 331 329 328 328 327 326 325 325 324 321 319
285 291 289 289 286 284 285 281 286 290 290 294 297 299 300 299 302 302 303 305 305 314 322 327 329 329 329 328 327 324 322 322 323 324 325 326 328 329 331 330 329 328 326 326 325 324 322 321 319
291 287 286 286 284 277 283 283 285 288 291 293 296 297 299 299 300 301 303 305 311 321 325 328 329 327 328 327 326 325 323 322 322 322 322 323 325 327 329 329 328 327 325 325 324 324 322 321 321
284 280 275 275 275 277 286 283 286 291 293 294 295 296 297 298 299 300 302 312 317 322 325 327 327 325 327 326 326 325 323 323 323 322 322 322 323 324 326 327 326 325 325 325 324 323 323 322 321
281 280 276 273 274 276 286 281 286 294 298 298 299 297 298 298 297 299 301 311 318 323 325 327 326 324 324 324 323 323 323 323 322 323 323 323 324 324 326 326 326 325 326 325 324 324 323 323 322
283 278 282 277 279 276 280 285 291 295 295 296 296 297 297 297 298 300 303 316 322 324 324 326 325 323 323 322 321 322 323 323 323 323 324 324 324 324 325 325 325 325 326 325 324 323 323 323 323
285 287 278 276 273 274 278 281 284 289 291 295 295 295 297 299 300 301 314 321 324 324 324 325 325 323 322 322 323 323 323 324 323 324 324 324 324 325 324 323 324 324 325 325 324 323 323 323 324
283 281 282 279 278 275 275 279 288 291 293 294 294 295 296 305 312 314 321 323 324 324 324 323 323 322 321 322 323 322 323 324 324 324 324 324 325 324 324 324 324 324 324 324 323 323 324 324 323
285 283 284 279 278 280 277 278 291 291 291 292 294 298 301 313 315 320 321 323 324 323 323 322 322 322 322 322 322 322 323 323 322 323 324 324 324 324 325 325 325 325 325 324 324 323 324 323 322

GFSSGP_sfc_thetae_051.txt.gz
Theta_e
333 334 326 320 305 306 298 299 306 309 312 317 319 322 321 322 316 313 334 338 341 342 350 353 355 354 353 353 352 351 350 349 349 348 347 346 345 343 341 341 338 337 337 338 337 336 336 336 336
333 321 324 317 301 296 298 304 304 309 312 318 321 317 320 320 325 326 329 340 341 345 351 347 355 353 353 353 352 351 350 349 348 347 346 346 345 344 340 341 339 339 338 337 336 336 335 335 335
321 319 312 309 301 296 298 305 306 313 318 318 320 320 320 321 327 329 335 340 340 346 348 350 355 354 354 353 352 351 350 349 349 347 346 346 346 344 343 343 341 340 338 338 338 337 337 337 337
317 317 314 304 300 302 303 309 314 313 316 319 321 317 321 328 330 333 339 339 340 343 346 349 354 354 354 353 352 351 350 349 349 348 347 346 345 345 345 344 343 340 340 340 340 340 340 340 340
321 315 301 301 300 305 310 310 312 311 314 318 321 317 318 327 334 338 340 339 338 342 345 345 354 353 354 354 353 351 350 349 348 348 347 347 346 346 345 344 341 341 341 342 342 343 342 342 342
308 313 300 295 299 305 309 313 313 312 314 317 319 316 320 327 334 338 340 341 341 341 347 345 353 353 353 353 353 352 350 349 349 348 347 347 347 346 345 345 342 342 342 343 343 344 344 343 343
306 306 298 300 299 301 306 312 310 312 314 316 320 315 320 324 334 340 340 341 342 342 344 345 349 351 352 352 352 351 350 349 348 347 347 347 347 347 346 345 345 343 345 345 345 345 345 345 343
309 309 300 300 299 301 310 311 313 314 314 320 321 315 317 324 336 340 339 338 337 339 340 341 346 347 347 347 353 352 350 349 348 348 348 347 347 347 346 344 345 344 344 345 345 346 347 347 345
315 302 298 299 300 302 310 309 315 316 313 316 319 320 322 326 338 338 337 337 338 336 337 338 337 345 346 346 347 352 352 351 349 349 348 346 341 344 343 344 346 346 345 345 347 348 348 348 345
311 304 302 305 306 306 308 311 313 312 313 314 316 321 324 324 326 329 333 334 336 338 339 336 337 340 344 342 346 348 348 347 346 344 345 344 343 344 341 344 345 347 347 347 348 349 348 347 343
312 305 308 307 308 309 308 310 314 311 310 315 315 319 323 323 324 324 325 330 334 338 340 340 338 339 341 340 341 343 347 347 348 347 350 349 343 343 342 341 343 343 346 342 344 346 346 345 344
304 310 311 312 311 310 308 312 310 313 313 318 320 322 322 321 322 323 324 326 328 332 336 342 343 339 341 341 339 341 341 345 344 346 348 347 343 342 340 339 340 343 341 342 344 344 346 347 346
305 306 311 313 313 312 313 311 312 314 318 321 322 321 320 321 322 325 325 325 327 328 331 337 341 344 344 343 340 341 341 341 343 343 346 345 340 341 340 341 339 339 340 341 341 343 345 345 345
308 308 308 310 313 314 312 313 315 315 319 318 318 318 319 319 320 321 324 325 327 330 332 335 333 346 344 343 344 342 342 341 341 341 343 345 342 342 339 340 338 338 338 338 339 340 342 347 345
305 301 304 308 309 309 311 307 308 314 316 314 315 317 318 319 320 320 323 327 329 331 334 336 335 337 346 346 344 342 341 340 340 341 343 344 345 343 342 338 338 338 341 341 340 339 343 343 343
299 299 295 303 303 307 307 301 310 314 313 312 314 316 316 319 320 321 324 327 330 331 334 336 328 329 343 346 344 342 340 340 340 341 342 343 344 343 341 338 337 339 339 338 337 337 341 340 342
297 293 294 297 304 303 302 301 308 312 311 312 314 315 316 317 319 323 323 324 329 332 334 332 333 329 336 344 343 343 343 340 341 342 342 343 343 342 341 338 338 340 339 337 336 339 340 341 342
290 292 295 296 301 302 300 301 307 310 310 311 312 314 314 315 317 321 322 324 328 333 335 334 332 332 335 339 342 341 341 341 342 342 342 344 344 343 342 340 340 340 339 337 338 340 341 340 338
295 294 294 297 301 300 300 302 304 307 308 308 310 312 314 316 320 320 321 325 328 333 333 336 331 333 335 337 337 338 338 339 341 342 344 344 344 343 342 340 342 340 336 336 342 341 338 334 331
294 292 293 297 299 300 300 300 304 305 306 309 310 311 312 315 316 319 320 324 328 329 332 334 332 332 336 338 341 341 340 338 341 343 344 344 344 343 342 342 338 337 336 341 340 337 333 333 333
292 291 292 293 296 299 297 296 299 303 305 307 308 309 310 311 312 316 317 322 325 327 330 331 333 335 337 340 340 340 340 340 339 341 341 343 344 344 343 342 340 339 341 340 339 337 335 329 327
288 294 294 293 292 289 297 288 298 301 302 304 306 307 309 309 311 313 316 319 322 324 325 327 335 338 338 341 340 341 338 337 339 340 342 343 344 343 344 344 342 342 341 340 339 335 331 329 323
290 295 294 294 292 292 292 288 294 299 298 301 305 306 308 310 311 312 313 317 318 321 321 332 338 340 340 340 342 340 341 340 340 340 342 343 344 344 342 343 342 341 339 339 338 335 329 328 329
295 292 291 292 291 284 290 289 291 295 298 300 303 305 306 307 309 310 312 314 315 319 329 337 340 341 341 341 341 342 340 338 337 339 338 336 338 339 342 341 341 341 340 338 337 337 335 332 332
291 289 282 281 281 282 291 288 291 298 299 300 301 304 306 309 309 311 312 313 316 323 333 338 340 339 340 340 340 341 340 340 339 337 336 336 336 337 340 341 341 339 339 337 337 336 334 333 331
288 289 283 277 279 283 289 285 291 300 302 303 304 305 307 309 311 312 313 315 315 325 334 338 340 339 339 339 339 339 340 338 338 338 337 337 337 339 341 340 340 338 337 335 336 334 333 334 333
287 284 291 284 286 284 287 291 296 299 299 302 302 305 308 310 313 319 322 317 318 329 336 339 339 339 339 338 338 338 338 338 336 338 339 338 339 337 338 338 338 336 335 336 336 333 333 334 333
291 292 284 285 278 278 284 286 289 296 297 300 301 303 307 314 319 324 324 321 327 333 338 339 339 338 337 337 336 336 337 337 337 338 337 338 337 337 336 336 336 335 335 335 335 333 334 332 332
289 287 288 288 286 282 282 286 297 298 299 299 301 303 305 311 319 324 324 325 330 335 337 338 337 335 334 335 336 335 335 336 337 337 337 337 337 335 334 333 333 333 334 335 334 334 332 330 333
291 288 288 284 282 285 285 285 299 299 299 301 302 303 305 310 320 324 323 324 329 334 335 335 335 333 333 334 335 335 335 336 336 336 336 336 335 334 333 333 332 332 333 334 333 332 331 330 330

GFSSGP_sfc_thetae_054.txt.gz
Theta_e
334 331 324 322 310 307 304 305 311 315 317 320 323 324 323 325 321 318 338 343 342 344 351 354 356 356 357 356 356 355 353 353 353 354 353 353 352 350 347 347 343 340 338 338 337 337 337 336 336
329 326 323 318 305 302 304 309 308 314 319 322 323 325 323 323 329 329 332 343 344 347 352 346 355 355 356 355 354 353 353 352 351 351 351 350 349 348 344 344 342 339 340 339 338 337 336 336 335
330 322 314 309 305 302 304 309 313 315 321 321 322 325 324 326 332 329 339 342 345 349 352 349 355 354 354 354 353 352 351 351 351 350 350 348 348 347 345 344 344 341 340 339 338 338 338 339 338
321 317 315 305 303 307 308 312 314 317 321 324 323 320 325 332 333 334 341 341 344 346 349 354 355 354 354 355 353 352 351 350 350 350 349 348 347 347 345 345 345 343 341 341 340 340 341 340 340
321 315 304 303 303 308 311 312 314 315 318 321 324 322 323 331 337 339 341 340 341 344 347 351 355 354 354 355 354 352 351 350 350 350 349 348 348 347 346 346 345 343 342 342 343 343 342 343 343
312 314 303 300 303 307 311 314 314 315 318 320 322 323 325 334 337 338 341 341 341 344 347 347 355 355 354 355 354 352 350 350 350 349 349 348 348 348 347 346 345 345 345 344 344 345 345 344 344
311 306 302 303 304 305 309 315 312 314 317 320 325 321 327 331 336 340 341 344 344 344 347 349 351 353 354 354 353 353 351 349 349 348 348 348 348 348 347 347 346 346 347 347 346 346 346 345 344
314 310 303 303 301 304 311 312 314 314 316 324 325 320 323 331 340 340 341 342 344 345 345 349 351 349 348 347 354 354 352 350 350 349 348 348 348 348 347 346 346 347 347 346 347 347 346 346 345
318 306 303 304 302 303 309 310 315 319 319 320 322 324 325 332 340 339 339 339 339 340 345 347 346 348 348 343 344 353 352 351 350 350 349 347 342 343 343 343 346 347 347 347 348 348 348 346 346
313 307 307 310 309 306 309 311 313 315 317 318 320 324 326 329 334 334 335 334 336 338 341 345 348 347 348 343 346 349 346 348 347 343 344 342 341 342 340 343 347 348 348 348 348 348 347 347 345
314 308 312 312 312 310 309 310 314 314 314 319 319 323 325 326 327 328 329 332 335 338 341 345 349 349 347 346 344 345 346 346 347 346 349 347 339 341 341 340 343 344 347 343 345 346 346 346 344
309 314 314 314 314 312 309 313 311 312 314 321 321 324 325 325 327 327 328 329 330 333 337 342 350 350 350 346 344 345 344 345 346 347 352 349 343 344 342 339 341 342 341 342 342 342 346 346 346
308 310 313 315 315 314 314 312 313 313 317 319 321 322 323 325 326 329 329 330 331 331 334 338 348 354 353 352 347 349 349 345 347 348 349 347 344 346 342 342 338 340 340 340 341 342 344 345 346
308 309 310 311 313 314 311 312 315 317 320 320 322 322 324 323 325 327 328 329 331 334 335 340 343 351 354 353 354 350 350 348 346 346 346 351 346 348 341 341 339 338 339 339 340 341 342 344 345
306 304 307 310 311 309 314 309 311 317 320 320 320 321 322 323 325 325 327 329 332 335 338 339 342 344 349 351 352 352 348 348 345 346 350 349 350 349 348 341 340 338 341 341 341 341 342 342 345
301 302 298 306 309 311 309 304 313 318 317 318 319 320 320 323 324 326 328 331 334 335 336 338 336 338 343 347 349 348 347 346 346 346 347 349 351 349 347 343 341 340 341 339 338 337 335 336 346
299 294 298 301 308 308 307 304 312 317 317 317 318 319 320 322 324 327 328 330 332 334 336 336 341 340 341 346 346 349 351 347 346 347 347 350 350 349 347 345 343 345 339 338 336 335 335 336 344
293 295 297 299 304 306 303 305 311 314 315 315 317 318 319 321 323 326 328 329 331 333 340 343 342 345 345 341 346 344 346 346 346 347 347 350 350 348 348 346 346 344 340 337 336 337 336 344 341
296 296 297 300 305 305 303 304 307 311 312 314 315 317 319 319 323 325 326 328 329 335 337 341 341 348 342 340 340 342 342 345 345 347 350 350 350 349 346 347 346 344 340 340 339 339 340 341 341
294 294 295 300 303 303 303 303 307 310 311 313 315 316 317 319 321 322 325 326 328 331 335 340 341 344 344 341 345 345 346 346 347 348 351 351 351 350 348 348 345 345 341 341 342 343 339 339 339
293 293 295 296 301 303 302 300 304 308 311 313 314 316 316 317 317 319 320 323 326 329 334 336 340 342 345 346 347 348 348 346 345 346 348 350 350 350 350 349 348 347 344 343 347 345 342 338 335
288 295 296 296 296 293 301 291 301 305 307 309 311 313 314 316 317 318 319 321 324 326 328 334 338 341 344 348 348 349 343 341 343 346 348 349 350 350 349 350 349 348 344 345 344 343 341 339 332
291 295 296 296 295 296 297 294 299 304 303 307 310 312 313 315 315 316 317 319 321 323 325 330 335 341 346 348 348 345 347 345 347 347 350 351 350 350 349 351 350 349 345 346 344 342 339 337 336
296 293 295 296 294 288 294 294 295 299 303 306 309 310 311 312 314 316 318 319 320 322 323 328 339 345 348 348 347 349 349 349 346 348 347 347 348 349 350 349 349 348 345 346 344 344 339 338 336
294 290 284 284 286 286 295 293 296 303 304 306 307 307 310 312 314 315 317 318 321 322 324 331 341 345 348 348 348 350 351 352 351 349 346 345 342 343 347 348 347 345 346 344 343 342 339 337 335
291 290 284 280 283 287 294 290 295 304 307 308 308 308 310 314 317 319 322 325 325 323 327 334 341 346 347 348 349 351 352 348 347 347 344 342 339 341 348 347 346 345 344 342 341 337 336 338 336
290 286 293 287 290 288 291 295 300 303 304 306 306 307 310 316 321 325 328 331 328 324 333 339 344 346 347 347 348 348 348 348 345 347 347 341 345 344 346 346 344 343 341 340 339 335 336 336 335
292 295 287 289 280 281 289 291 293 299 300 304 305 306 309 314 319 325 330 331 329 331 338 343 347 346 347 347 347 346 347 346 346 345 343 344 344 342 343 342 341 340 339 338 338 336 337 336 334
290 289 290 290 289 284 284 290 301 302 303 304 306 307 309 311 316 324 330 330 333 336 340 344 345 345 345 345 345 344 342 343 344 343 343 343 343 342 340 339 338 336 335 336 337 337 335 334 334
293 291 292 284 285 289 290 292 303 305 305 306 306 308 310 311 313 324 330 328 334 337 341 343 343 343 343 342 341 341 342 342 342 341 342 342 340 339 337 336 334 333 334 337 336 335 334 333 332

GFSSGP_sfc_thetae_057.txt.gz
Theta_e
335 329 330 322 311 309 306 307 313 312 314 321 323 323 323 325 322 319 340 338 338 341 356 353 358 359 359 358 357 356 356 358 359 361 361 359 357 355 352 350 347 344 342 340 338 337 337 337 337
324 324 323 317 306 304 306 311 310 314 322 325 325 325 325 323 331 333 336 339 340 346 354 349 357 358 358 358 357 355 355 355 357 357 357 356 354 352 349 347 345 342 340 338 338 338 337 337 336
334 326 314 310 308 304 307 312 313 318 322 322 323 327 327 326 333 332 339 340 342 348 352 351 356 356 358 357 356 356 354 354 354 354 354 354 352 351 349 347 345 341 341 341 340 339 338 337 338
325 318 315 307 304 309 310 313 315 319 321 326 326 322 327 334 334 336 340 340 342 346 349 355 355 356 357 357 356 355 354 353 353 353 352 351 349 349 348 346 346 345 342 341 340 340 340 340 341
323 316 306 305 305 309 313 315 318 316 321 324 326 323 325 332 338 338 338 338 340 342 348 355 355 356 356 356 355 354 353 352 351 352 351 349 349 348 347 347 345 345 344 342 341 342 342 342 342
314 313 304 302 305 310 313 315 315 315 321 323 323 325 328 336 337 337 336 337 339 340 347 356 355 355 355 355 355 353 352 351 351 351 351 349 349 348 348 347 347 347 347 346 344 344 344 344 344
313 310 303 304 306 308 312 316 313 315 319 321 326 322 329 333 337 337 336 338 338 341 345 354 356 353 355 355 354 353 352 351 351 350 349 349 349 349 348 348 348 348 348 348 348 348 347 346 345
317 312 305 305 303 305 313 314 315 316 318 326 327 321 324 332 337 338 336 337 337 340 343 345 356 349 348 349 355 353 352 352 351 350 350 349 349 349 349 347 348 348 348 348 349 349 349 348 347
319 309 305 305 305 305 310 309 316 319 318 322 326 327 329 335 338 335 333 335 336 338 342 346 348 350 347 345 348 354 353 352 351 350 350 347 341 342 342 343 345 348 348 349 349 349 349 349 347
314 308 308 313 312 310 311 311 312 313 316 319 323 326 329 334 334 331 331 332 334 335 339 343 347 350 350 344 348 351 346 347 346 344 344 342 341 341 339 342 345 348 349 349 349 349 349 347 343
315 309 313 313 315 315 312 312 315 312 313 319 320 324 326 329 332 331 332 332 333 336 338 341 355 355 351 348 345 346 349 347 348 349 350 348 340 342 339 340 341 343 347 342 345 345 345 344 344
309 314 315 315 316 315 311 313 312 313 314 322 325 327 328 327 328 329 330 332 334 336 339 342 350 359 360 350 347 348 346 348 349 349 355 348 346 346 345 340 340 346 342 343 344 341 346 344 345
307 310 313 316 316 317 316 313 314 314 317 319 323 325 326 327 328 331 332 333 334 333 335 337 343 361 362 360 349 351 352 347 349 350 356 351 345 347 343 346 341 342 342 342 342 341 345 346 344
308 309 310 313 313 315 313 314 315 317 320 319 318 320 323 325 327 330 331 332 333 335 336 338 343 364 359 360 363 358 359 350 349 348 352 356 351 351 343 346 342 342 341 340 341 342 341 343 343
307 302 306 309 310 310 314 309 311 318 320 319 319 320 322 325 328 328 330 332 334 334 338 340 344 353 363 360 359 358 352 351 348 347 360 359 357 355 353 345 343 343 343 350 346 348 344 340 342
301 303 298 305 308 310 310 303 312 317 318 318 319 321 322 325 327 328 330 332 335 336 338 341 337 338 351 359 355 352 348 349 348 348 350 358 360 357 356 345 345 346 344 341 339 338 337 337 337
297 293 298 301 307 307 307 305 312 315 316 317 319 320 321 323 325 330 330 331 334 338 340 339 344 339 345 358 350 352 357 350 348 348 347 357 353 353 353 346 347 354 343 341 339 338 339 337 335
292 293 296 297 304 306 304 305 311 314 314 315 317 320 321 322 323 328 329 332 334 336 347 349 346 353 357 349 354 344 344 347 348 347 347 355 352 351 353 348 352 350 343 341 340 343 339 336 335
297 294 294 299 304 303 303 304 307 312 313 314 316 319 321 322 325 327 329 331 333 340 345 347 346 358 350 342 338 339 342 346 347 348 353 352 352 351 355 348 350 350 347 347 349 341 339 335 342
295 293 293 297 301 302 303 302 308 310 311 313 315 317 318 321 323 326 328 331 335 338 344 346 351 354 354 345 347 345 347 345 348 348 353 352 352 352 351 353 351 350 345 348 344 345 337 341 346
295 293 293 293 298 301 301 300 303 309 312 313 315 317 319 320 321 324 325 330 332 336 340 342 348 351 354 354 349 350 351 352 347 349 350 351 352 352 351 350 352 350 350 343 345 345 344 337 342
291 296 295 293 293 291 301 292 301 305 307 311 312 315 317 319 321 323 323 327 331 330 333 341 345 350 351 358 348 356 346 344 345 348 350 351 352 350 350 351 351 353 347 352 346 345 345 343 338
293 297 295 294 292 293 295 294 299 305 304 307 311 314 316 319 320 320 321 324 325 329 332 337 342 347 352 356 353 348 352 345 346 347 356 357 353 351 350 351 353 351 346 350 349 347 345 342 339
297 294 294 294 292 286 293 294 296 301 304 307 311 313 315 317 319 320 321 322 322 323 326 335 340 345 348 353 351 358 357 356 347 350 348 348 347 348 351 350 352 353 350 347 344 347 343 341 342
294 291 284 282 283 284 294 294 297 305 308 308 310 312 314 316 316 317 318 319 321 323 325 328 336 341 347 349 350 350 358 362 361 354 349 349 347 347 349 352 352 347 348 346 346 345 342 340 337
291 291 284 279 281 285 294 290 297 306 309 309 310 312 312 313 315 317 319 322 322 324 326 326 333 340 348 349 349 352 356 350 352 355 350 347 346 347 353 350 347 345 345 344 345 342 338 342 338
292 287 293 287 287 283 288 296 301 305 306 308 309 310 312 315 319 322 325 328 330 330 328 331 334 342 348 350 351 354 354 358 352 358 357 346 352 346 347 346 345 344 343 342 343 337 338 339 339
295 295 287 287 280 278 286 289 294 300 303 306 308 309 312 314 316 321 328 331 334 331 330 336 340 346 348 350 351 351 351 350 350 350 351 350 350 345 343 343 344 342 340 339 340 338 338 338 337
292 290 291 291 288 281 283 289 301 302 304 306 308 310 311 312 314 322 330 332 334 332 335 341 345 346 347 348 349 349 348 348 347 346 344 345 345 343 340 340 340 339 337 338 338 337 337 333 336
295 293 292 287 286 289 287 287 304 307 308 308 309 310 311 313 314 319 331 330 335 335 339 343 345 345 347 347 347 346 345 344 344 343 343 344 342 341 339 339 337 335 334 336 337 335 335 333 333

GFSSGP_sfc_thetae_060.txt.gz
Theta_e
329 325 326 323 307 307 303 305 311 311 313 318 321 320 319 323 322 317 335 337 351 347 353 356 360 360 359 358 358 359 361 361 362 362 362 361 360 358 356 354 350 346 343 342 339 336 335 336 335
324 321 321 315 304 300 303 309 309 312 316 319 322 322 323 322 330 331 331 337 354 349 351 352 359 359 359 358 357 356 358 359 361 361 361 360 359 357 353 352 348 345 342 339 337 337 337 336 335
328 323 314 307 304 301 303 311 312 315 318 322 321 325 325 326 332 333 337 339 355 351 347 353 359 359 359 358 357 356 356 357 358 359 359 358 357 355 353 351 349 344 341 339 339 338 338 337 336
325 322 314 304 302 306 308 312 314 314 316 323 323 321 327 335 334 336 338 339 347 348 346 355 357 358 358 358 356 355 355 355 356 357 357 356 354 353 351 349 348 346 342 342 341 340 340 339 340
320 315 303 302 303 308 311 314 315 313 318 319 323 320 324 332 338 338 338 339 342 345 346 354 356 358 358 358 357 356 355 353 354 355 354 354 353 352 349 348 348 347 347 344 343 344 344 344 344
313 312 301 299 303 308 311 314 314 314 317 320 322 322 325 334 336 335 336 338 339 344 349 355 355 356 357 357 356 355 354 353 353 353 353 352 351 350 349 348 348 348 348 347 346 346 346 346 346
311 308 302 302 303 307 310 315 312 312 313 315 323 320 327 330 335 335 335 338 339 345 355 355 353 355 356 355 354 353 352 352 351 351 351 350 350 349 349 348 348 348 348 348 347 348 348 347 347
316 311 304 305 303 303 311 312 314 312 312 320 324 319 321 331 337 335 333 335 337 341 355 356 354 349 350 352 355 354 352 351 351 350 350 350 349 349 349 346 347 349 348 348 348 348 349 348 348
319 307 304 305 305 307 312 310 314 316 313 317 322 325 330 334 336 332 331 331 333 337 345 353 353 350 345 344 350 354 353 353 352 351 350 348 344 343 342 345 345 349 349 349 348 349 349 349 349
310 307 307 311 312 310 312 312 312 312 311 313 318 326 329 332 333 332 329 329 331 334 339 343 352 348 345 342 346 350 348 349 348 346 346 346 341 339 340 342 346 348 349 349 349 349 349 348 343
311 308 312 312 314 314 313 313 314 311 309 313 315 322 326 328 333 331 330 331 332 335 336 342 352 351 348 345 347 350 346 345 345 344 343 345 340 338 339 337 340 342 346 342 345 345 345 342 341
304 310 312 314 315 314 313 316 313 313 313 317 319 324 326 327 331 330 329 330 334 334 335 342 352 354 353 350 347 350 349 347 345 344 345 343 341 338 337 336 339 337 339 340 339 339 340 341 342
302 305 309 313 315 315 316 313 314 314 317 318 319 320 326 328 329 332 334 335 334 338 335 340 355 356 360 362 359 352 350 349 348 348 346 344 343 339 340 340 338 340 339 341 338 339 339 340 341
305 305 306 308 309 312 311 313 314 316 319 319 319 319 320 326 328 331 334 337 351 348 348 346 355 359 361 360 362 363 363 352 353 350 350 348 343 345 341 340 342 338 341 340 339 338 338 340 342
304 300 304 305 307 307 311 308 310 317 319 318 319 319 320 321 328 328 331 339 344 345 360 351 357 363 361 359 362 359 356 355 352 355 359 351 348 344 346 343 338 343 342 346 342 340 340 343 342
298 299 295 303 305 306 306 300 310 315 316 316 318 319 320 321 323 327 331 340 344 345 345 352 340 360 363 362 360 358 356 354 353 353 357 357 351 352 349 346 345 342 347 341 342 341 341 340 338
297 290 293 296 304 305 304 301 309 313 313 314 317 319 320 322 325 328 331 335 343 348 348 349 350 349 355 359 355 355 355 354 355 356 352 357 355 351 352 348 347 351 343 344 342 339 340 337 338
291 292 294 293 299 301 301 302 307 311 312 313 314 316 320 321 323 328 332 333 341 346 350 351 354 355 361 353 360 354 351 351 354 354 352 355 353 353 350 351 347 352 346 343 342 341 341 339 337
296 294 293 297 300 298 298 301 305 309 310 310 315 315 317 320 326 327 330 332 335 344 347 350 350 355 354 354 347 343 342 346 351 352 354 356 353 351 352 348 350 350 345 344 346 344 341 338 337
295 293 293 296 299 298 297 297 302 307 309 310 313 316 317 319 322 327 330 336 340 345 346 349 349 351 353 352 350 349 351 347 349 352 353 356 353 353 351 349 348 348 346 347 346 342 336 335 339
294 293 292 292 296 298 296 294 298 304 308 311 314 316 317 319 321 323 327 333 339 339 344 343 347 349 353 350 349 349 353 355 353 352 353 354 353 353 352 349 350 348 346 344 344 343 337 335 338
291 297 295 294 292 287 295 286 296 301 304 308 311 314 316 317 320 324 327 332 339 337 338 340 344 345 347 350 343 345 343 342 348 352 351 352 354 352 350 349 349 348 346 345 342 342 341 338 333
293 297 294 293 291 291 290 288 292 300 300 305 309 313 316 317 318 320 324 328 331 335 334 336 342 345 345 348 346 342 347 347 356 352 354 351 352 352 349 349 350 348 347 348 345 344 340 339 335
298 294 293 292 290 283 288 288 289 294 300 305 310 311 315 317 318 319 323 327 327 329 331 333 334 342 344 348 347 348 348 348 347 349 349 349 349 346 347 347 348 349 348 347 345 344 342 340 337
296 291 283 281 282 282 290 287 291 298 302 306 309 311 314 316 317 319 321 321 324 327 329 332 340 336 344 345 348 347 355 349 359 350 348 347 343 343 345 346 349 349 349 346 346 343 341 338 337
293 291 283 276 278 282 291 285 291 301 303 307 310 313 315 315 317 318 321 324 321 324 327 327 331 339 342 343 348 350 354 351 356 351 350 346 345 345 348 349 350 348 347 345 344 342 339 340 336
293 288 293 285 287 283 286 291 297 301 302 305 308 310 311 314 318 318 320 325 328 331 337 336 333 336 341 348 351 350 352 354 352 353 357 349 349 349 350 349 347 346 344 343 342 340 338 338 337
295 296 286 287 278 277 284 286 288 296 300 304 306 309 313 315 316 319 322 329 335 338 340 341 336 337 348 350 350 351 353 355 355 354 351 351 348 347 347 346 345 341 342 341 340 339 338 336 336
292 290 291 290 287 280 279 285 297 298 302 304 306 310 313 313 314 317 323 331 334 336 335 339 335 346 348 350 352 352 353 351 350 350 348 348 348 345 343 343 341 337 337 338 338 337 335 335 333
293 293 291 284 283 288 285 286 300 302 303 305 307 310 312 313 313 315 330 332 331 332 333 337 343 345 348 350 350 350 349 348 347 346 347 346 345 343 341 341 337 336 337 338 336 335 335 332 331

GFSSGP_sfc_thetae_063.txt.gz
Theta_e
325 318 317 314 300 296 293 298 304 304 305 312 318 315 317 321 319 312 331 343 342 346 352 357 359 359 358 358 361 361 362 362 362 361 361 360 360 358 356 354 351 347 345 342 340 338 336 337 337
321 319 312 307 295 290 294 304 302 306 309 313 317 317 318 319 326 325 336 342 342 347 351 353 359 359 358 357 358 360 361 362 362 361 361 360 359 357 355 352 349 346 344 342 339 337 337 337 336
326 323 304 299 295 294 295 303 305 310 313 315 316 320 320 323 327 326 341 342 342 345 347 352 358 358 358 357 357 358 360 361 361 361 361 360 359 357 355 352 349 345 343 340 339 338 338 337 336
320 316 311 296 295 300 302 306 308 309 311 319 319 316 322 331 328 334 348 343 340 342 346 357 358 358 358 357 356 356 358 359 360 360 359 358 357 356 354 351 350 346 343 341 341 341 339 339 339
317 307 296 294 297 303 307 309 309 307 308 315 318 315 320 330 333 345 347 346 340 338 346 354 358 358 358 357 356 355 355 357 358 359 358 357 356 355 353 351 348 346 346 344 343 344 344 344 344
311 306 293 292 298 303 306 308 308 306 308 313 314 316 319 330 330 335 343 342 342 338 348 350 357 357 356 357 355 354 354 354 355 357 356 356 355 354 352 350 348 348 348 348 347 346 346 346 346
310 302 297 297 298 301 306 307 305 306 306 308 314 313 322 326 330 332 337 339 341 345 347 346 351 354 357 356 355 354 353 353 352 353 353 353 353 352 351 349 349 349 349 348 348 347 347 347 347
312 306 300 302 300 301 309 309 307 306 308 314 316 310 317 325 330 331 331 332 341 347 347 346 345 349 350 351 355 354 353 352 352 352 352 351 351 351 350 347 348 348 349 349 348 348 348 348 348
310 301 299 302 303 304 309 306 312 312 310 312 313 319 329 331 328 325 327 329 341 348 346 346 345 345 345 346 351 353 352 352 352 351 351 348 342 342 343 346 345 349 349 349 349 349 348 349 349
304 298 302 309 310 308 310 310 311 309 308 309 311 324 328 330 328 326 324 325 334 344 347 347 345 343 340 343 343 345 346 346 346 345 343 342 338 336 342 343 348 348 349 349 349 349 349 348 341
304 299 305 309 311 312 311 311 314 310 305 308 308 313 323 325 327 326 324 324 328 342 347 347 345 342 338 338 340 344 343 343 344 342 340 341 339 336 338 334 339 337 346 340 344 344 343 341 340
296 302 306 309 312 312 310 313 311 312 310 315 315 315 317 322 320 326 326 325 325 333 339 346 344 340 337 338 341 342 340 340 340 341 339 339 337 332 330 332 332 333 338 337 334 339 339 338 338
298 300 302 305 306 308 311 310 311 312 316 318 318 317 315 317 321 323 325 327 327 330 337 342 344 342 340 338 342 342 341 340 339 339 339 338 337 333 331 330 331 332 335 336 334 334 336 337 337
297 298 300 302 302 304 303 305 310 312 317 317 317 315 316 316 321 323 323 324 325 330 331 336 334 344 345 345 342 342 343 343 341 341 340 339 338 336 333 331 332 332 332 335 335 332 334 334 335
298 294 297 299 301 300 304 301 302 310 314 315 316 317 317 316 319 321 322 326 327 327 332 330 333 348 348 345 344 346 347 346 343 343 342 341 338 337 335 335 332 332 334 333 336 334 331 333 335
293 292 287 295 300 302 300 294 303 307 310 311 314 316 317 317 317 319 324 325 328 328 331 341 350 350 348 346 347 345 346 343 342 343 345 344 341 339 338 336 334 333 334 335 335 334 332 332 334
288 285 287 292 298 298 297 296 302 306 307 309 310 314 316 317 317 317 321 324 329 328 329 336 350 350 349 349 348 348 347 346 345 342 342 347 344 341 339 340 338 334 334 335 332 331 332 330 330
285 286 289 290 293 294 292 294 299 303 305 305 308 310 314 316 316 318 321 321 328 329 330 332 335 349 350 346 344 341 340 340 339 342 343 347 347 345 341 340 339 340 334 334 333 331 330 329 328
293 291 290 293 297 294 293 293 296 299 300 302 306 308 310 312 316 318 319 322 323 332 331 330 333 338 334 336 336 335 334 333 338 340 343 342 348 348 345 342 341 339 338 335 334 333 330 328 328
293 290 289 293 296 294 293 292 296 298 298 300 301 305 310 312 314 316 318 319 323 331 330 329 330 333 334 337 335 333 332 333 335 339 341 344 346 347 344 341 340 340 338 336 335 334 329 327 329
291 289 290 290 294 295 292 290 293 297 298 300 302 303 308 312 313 315 317 318 321 331 332 333 333 334 332 336 337 335 336 338 339 338 339 345 346 346 346 343 340 340 340 336 335 333 328 325 328
288 295 294 292 288 283 291 281 289 293 295 298 300 301 304 308 314 314 315 317 327 330 331 332 334 333 335 336 336 334 333 331 333 338 342 344 346 345 345 343 342 341 339 337 336 335 330 330 326
291 295 293 292 287 284 286 282 287 292 292 294 297 301 304 307 312 314 315 316 327 328 329 330 333 333 335 339 338 334 333 335 334 340 341 341 343 344 345 342 341 341 338 338 336 334 333 331 327
297 293 292 290 284 279 284 283 283 287 291 294 298 300 304 307 311 314 314 315 321 325 327 327 328 330 331 334 337 333 331 334 337 338 341 341 341 341 343 344 341 344 341 338 337 336 332 331 329
292 288 279 276 276 277 287 285 285 292 295 296 297 299 301 303 307 312 311 312 316 317 320 324 325 328 333 334 337 337 332 334 336 339 342 341 338 337 339 342 342 343 339 339 339 334 332 331 328
288 286 280 275 275 278 287 281 285 295 299 300 299 301 301 302 307 311 312 311 312 316 317 320 322 321 331 333 337 337 336 340 339 343 342 341 340 339 340 342 342 341 342 337 335 333 331 331 329
287 284 287 282 283 280 282 286 292 296 297 300 301 302 301 303 309 310 310 311 311 312 315 315 316 326 330 335 335 340 339 342 343 342 343 341 339 340 341 341 341 341 337 335 333 331 330 330 327
291 292 282 284 274 275 280 283 284 292 294 296 297 300 303 305 310 309 312 316 321 324 325 326 321 329 331 334 339 341 341 344 346 346 342 341 341 342 341 341 338 335 335 333 331 329 330 328 327
288 286 288 287 284 277 275 280 295 293 295 294 296 299 302 305 309 307 312 322 324 326 325 326 324 327 336 340 340 341 342 345 345 343 342 342 342 342 341 338 334 333 333 331 329 327 329 327 326
292 288 289 282 280 282 282 282 296 295 296 297 297 301 305 308 305 313 323 325 325 325 325 326 324 338 341 342 343 343 342 342 340 338 337 339 339 339 336 335 332 334 334 333 328 328 328 327 325

GFSSGP_sfc_thetae_066.txt.gz
Theta_e
324 318 313 312 299 294 291 296 302 302 302 304 309 314 318 321 318 310 327 337 337 344 352 356 358 360 361 362 362 362 361 360 360 360 359 359 359 356 355 354 352 349 345 343 341 340 338 338 338
322 320 310 304 294 289 292 299 301 303 306 309 311 315 318 318 323 331 332 338 337 347 351 353 358 359 360 361 361 361 361 361 360 360 360 359 359 356 355 352 350 347 345 342 340 338 338 338 338
325 321 302 299 293 291 293 300 301 306 309 309 308 316 321 320 329 332 337 337 340 345 350 350 358 357 358 360 360 360 360 360 361 361 360 359 358 358 355 352 350 346 344 342 339 339 339 338 338
318 313 308 295 293 298 300 303 306 306 308 308 310 314 324 328 329 335 338 338 338 344 346 353 358 357 357 358 359 359 360 360 361 361 360 359 358 357 355 352 350 347 345 342 341 340 340 339 338
317 305 296 291 294 299 303 306 306 303 304 307 309 312 320 326 336 339 336 337 337 340 344 353 357 356 356 356 357 358 359 360 360 360 360 359 358 356 354 351 348 346 346 343 342 342 343 343 342
310 305 292 291 297 302 304 305 304 303 305 307 307 307 319 330 339 337 334 332 337 338 344 351 357 356 355 355 355 356 357 358 359 359 359 358 357 356 354 352 349 348 348 347 347 347 346 345 346
308 299 296 294 298 302 305 307 306 303 305 305 310 307 320 328 339 340 333 332 334 338 346 349 351 354 356 354 353 353 354 355 356 356 356 356 357 355 354 352 350 349 348 349 348 347 347 346 346
310 303 296 298 299 300 308 308 306 306 308 312 313 308 316 324 339 339 337 333 333 342 342 346 348 350 350 350 354 353 352 352 353 354 355 355 355 354 353 350 350 349 348 349 348 348 347 347 347
309 299 296 299 302 303 309 305 312 314 309 311 312 316 325 327 326 328 334 338 339 342 340 341 345 345 345 346 350 353 353 352 352 352 352 350 345 346 346 347 346 348 348 349 349 348 348 348 348
303 294 301 308 308 307 310 310 311 311 310 309 310 315 318 326 327 327 331 335 337 339 341 340 340 342 342 347 345 346 345 346 345 344 343 342 337 337 342 345 347 347 348 348 349 349 349 347 340
300 299 305 306 309 311 309 310 313 310 307 311 308 312 314 317 322 325 329 335 338 341 342 342 338 339 339 339 343 344 343 342 342 340 339 338 338 335 339 335 339 338 344 339 344 343 343 339 339
294 299 301 305 307 307 305 310 309 311 311 315 316 316 313 315 318 324 323 326 336 340 342 342 340 338 336 335 339 340 340 340 340 340 338 337 335 333 331 333 333 333 334 335 334 337 338 337 339
294 297 299 301 301 302 305 304 305 305 311 317 317 317 314 314 314 317 322 324 326 336 343 343 341 339 336 333 335 338 337 337 337 338 338 337 335 332 331 331 329 332 332 335 332 334 336 337 337
294 296 296 297 297 299 299 301 303 305 309 310 314 315 315 314 315 315 321 324 323 330 339 344 341 339 335 334 336 337 339 336 336 336 337 337 335 333 330 329 328 330 332 334 333 332 332 333 335
295 291 294 295 297 297 301 297 299 305 307 307 310 313 314 316 316 315 318 325 325 329 338 341 341 339 337 336 338 339 340 339 337 337 337 337 335 334 331 329 328 329 331 331 332 330 329 330 332
290 288 284 293 296 298 298 292 300 304 304 305 307 311 313 314 316 316 317 322 327 326 329 333 340 342 340 340 340 341 341 340 340 339 339 338 337 335 333 331 330 330 331 330 332 331 328 328 329
285 281 284 289 295 295 294 291 298 302 303 303 305 306 311 314 314 315 317 317 324 327 330 332 335 342 342 342 341 341 342 342 341 340 340 340 339 337 336 334 333 330 331 331 331 331 330 327 327
284 283 286 287 293 294 291 292 296 299 299 298 299 302 306 310 312 316 317 318 319 326 328 335 339 340 342 342 341 341 341 340 340 339 339 342 341 340 337 337 334 334 329 331 330 328 329 328 330
290 288 287 291 294 292 291 292 295 297 296 296 297 299 301 304 311 314 317 317 318 320 324 331 342 341 342 339 339 336 338 336 336 338 341 341 344 342 337 337 337 336 333 331 332 329 327 326 326
290 287 287 291 294 292 291 291 294 296 296 297 298 299 300 301 304 310 315 314 314 319 326 326 338 343 344 342 341 335 336 331 331 335 338 340 345 343 341 338 338 337 336 333 331 331 327 325 326
289 287 288 289 293 294 290 288 291 295 296 297 298 298 300 301 302 305 311 315 315 315 325 327 333 340 342 340 332 330 331 332 333 333 333 338 343 345 343 342 340 338 336 334 332 331 327 325 326
286 293 292 291 288 281 289 280 287 291 291 295 296 297 297 299 301 304 308 313 314 316 325 327 328 335 336 333 332 327 326 326 328 331 336 339 343 345 344 341 340 338 337 334 333 333 327 326 325
289 293 291 291 287 284 285 279 285 289 289 292 294 296 298 299 301 302 305 310 315 318 325 328 328 330 332 331 331 329 327 328 329 334 335 339 340 343 344 341 339 338 336 335 336 331 329 327 325
294 291 289 287 284 277 283 281 282 286 288 291 295 297 299 299 300 302 304 305 310 316 324 327 327 328 329 330 330 328 327 329 331 333 334 336 337 339 341 341 339 339 337 336 335 333 334 330 326
288 285 277 276 275 276 284 282 284 290 293 295 296 299 301 302 303 302 302 303 307 316 322 324 325 326 327 328 329 330 329 329 331 333 336 336 335 335 337 338 338 337 338 338 335 336 333 328 326
284 284 277 275 275 278 286 279 284 292 298 300 301 300 301 301 302 304 304 303 304 310 322 324 324 325 325 325 327 331 330 329 331 335 340 340 340 339 339 338 338 339 340 336 335 334 332 328 326
285 280 286 282 281 275 279 285 290 298 297 298 297 299 298 300 302 304 307 306 308 311 319 322 323 323 323 326 327 329 332 330 332 337 340 340 339 339 339 338 337 339 337 336 332 330 329 328 326
289 290 280 281 272 272 279 281 282 291 293 295 295 296 298 300 302 306 307 309 312 312 316 316 321 321 320 326 329 332 332 336 336 339 339 338 338 340 338 337 338 336 337 334 330 327 327 326 325
285 283 287 283 282 277 276 278 292 292 294 294 295 297 298 300 304 307 306 312 313 318 320 318 315 320 324 328 329 334 336 338 341 341 340 338 339 338 338 339 336 334 333 330 327 326 327 327 324
290 286 285 276 279 282 279 280 295 294 294 295 297 298 299 302 305 306 308 307 322 320 321 322 320 324 328 334 336 336 338 340 340 341 340 340 339 339 340 338 334 333 333 329 326 326 327 326 324

GFSSGP_sfc_thetae_069.txt.gz
Theta_e
332 317 311 311 298 293 289 295 297 300 301 303 305 307 311 314 317 309 327 329 338 338 350 357 362 362 362 362 361 360 359 359 359 359 359 359 358 356 355 355 352 350 347 344 343 341 339 338 337
330 318 309 303 294 288 290 296 297 300 304 306 307 307 316 317 323 328 328 333 337 341 349 352 360 361 362 361 360 359 359 359 359 359 359 358 357 356 354 352 350 348 345 344 342 340 339 339 338
330 320 303 298 291 290 292 299 299 304 306 306 304 309 314 320 327 329 332 334 336 341 346 349 359 360 362 362 360 359 359 359 359 359 359 358 357 356 355 353 351 347 345 343 341 339 340 339 338
318 314 305 295 293 297 298 301 301 303 306 305 305 305 319 328 331 333 334 335 338 342 344 352 357 359 360 361 360 359 359 359 359 359 359 358 357 357 355 353 351 348 346 343 341 340 340 340 338
314 306 298 292 295 299 302 303 302 302 302 304 305 305 309 325 336 336 332 336 335 341 342 350 356 357 359 360 360 359 359 358 359 359 359 358 358 356 355 353 349 347 346 344 342 341 343 343 341
309 302 292 292 295 301 303 305 302 301 303 307 304 305 311 330 334 334 333 331 335 338 341 348 355 356 357 358 359 358 358 358 358 359 359 358 358 356 355 352 350 348 348 347 346 346 345 345 344
308 299 295 295 297 300 304 307 303 303 303 307 307 304 315 331 335 332 330 329 333 336 340 346 349 353 356 356 357 357 357 357 357 357 357 357 357 356 355 353 350 349 349 348 348 348 347 346 345
311 303 298 298 299 299 307 308 305 306 309 312 311 305 307 322 336 331 329 328 331 335 340 343 346 348 347 348 355 357 357 357 357 357 357 356 356 356 355 352 351 349 349 348 349 349 348 347 346
309 299 296 299 300 301 308 306 309 313 309 312 311 312 319 333 334 331 331 333 335 337 338 342 344 345 344 344 349 354 355 356 356 356 356 353 350 350 349 350 349 349 348 348 349 349 348 347 346
301 294 299 307 307 305 309 307 309 309 310 310 311 315 319 327 330 329 325 325 330 333 335 341 342 343 342 345 343 344 344 346 347 347 347 346 340 340 344 346 348 347 348 348 349 349 348 346 338
299 297 304 306 306 307 306 306 310 308 306 309 309 311 313 316 320 325 328 328 329 333 336 338 340 341 341 340 342 343 342 340 341 339 339 338 336 336 340 336 339 337 344 337 342 342 341 338 337
290 297 298 300 303 304 303 306 305 307 308 313 313 314 313 314 315 320 323 323 331 335 336 336 337 339 338 337 340 341 340 340 338 338 336 335 332 331 332 334 332 333 333 333 333 335 336 336 337
291 294 297 298 298 298 300 299 300 301 306 309 310 312 313 313 315 318 318 319 325 335 337 338 335 335 335 333 336 337 336 337 337 336 336 334 332 331 330 331 330 330 330 331 330 331 334 334 335
293 293 294 296 296 297 297 299 301 303 307 307 307 307 310 312 315 313 317 320 322 332 339 341 337 334 331 330 331 333 334 334 333 335 336 335 333 331 330 328 328 328 331 331 331 330 331 332 333
293 288 292 294 296 295 299 294 296 303 305 304 306 307 309 312 314 313 315 318 324 324 338 342 340 338 334 331 332 331 332 332 332 333 334 336 334 330 328 326 325 328 330 329 330 328 328 328 330
288 285 281 289 293 295 296 290 298 302 302 303 303 305 307 307 312 313 314 317 321 323 330 341 343 339 335 333 334 335 336 335 334 334 335 336 335 332 329 327 327 327 327 328 329 327 325 326 327
285 280 283 287 293 293 292 288 296 299 299 299 300 301 303 302 305 311 314 317 317 322 326 332 340 338 336 334 335 336 337 337 337 336 336 336 336 334 333 330 330 327 327 327 328 327 327 324 324
283 282 285 285 290 292 290 291 295 298 298 298 298 299 301 302 303 306 309 314 317 320 323 327 332 338 338 338 338 338 339 339 338 338 338 337 337 336 334 333 331 328 327 327 327 327 327 326 326
288 286 285 289 292 290 289 290 294 296 295 295 297 298 299 300 304 305 306 310 314 318 320 323 327 330 339 338 336 337 337 339 337 338 339 339 339 338 335 334 331 331 327 329 329 327 326 325 325
288 285 285 289 294 292 290 290 294 295 294 295 296 297 298 299 300 303 305 306 308 311 320 321 326 332 335 337 337 335 338 333 338 338 338 339 339 340 337 335 334 333 331 327 328 328 324 324 325
287 285 286 287 291 292 289 287 289 292 294 296 295 296 297 297 298 300 302 302 303 307 311 320 324 332 338 339 333 328 330 331 330 329 331 335 338 341 340 335 335 335 335 331 329 329 327 323 323
284 291 291 289 286 280 289 279 286 289 290 292 294 293 295 296 297 299 300 301 302 304 309 316 321 329 338 340 334 331 332 332 331 330 330 331 337 342 341 339 337 336 336 333 332 331 327 325 327
288 292 289 289 286 283 284 279 283 289 288 289 291 293 294 300 302 303 305 304 303 303 305 312 321 325 333 339 337 334 326 328 326 330 330 332 336 342 342 340 338 337 336 334 333 330 327 326 324
293 288 287 285 281 276 283 281 283 284 286 289 292 298 300 301 302 303 305 306 307 306 304 307 317 323 328 335 334 333 332 326 326 329 330 333 336 340 341 340 338 337 336 334 334 334 331 327 325
286 281 274 274 274 275 283 280 283 289 292 293 296 298 299 300 300 301 301 303 306 307 307 309 316 322 325 330 332 333 330 328 327 329 330 333 334 335 338 338 337 337 336 335 337 334 330 330 326
284 281 274 271 274 276 284 278 282 290 297 299 300 299 300 299 299 300 301 303 306 308 309 305 309 320 324 327 329 331 329 326 327 330 332 334 336 337 338 338 338 337 337 336 337 332 330 328 326
284 279 283 278 279 274 278 283 289 292 296 297 296 298 296 298 300 301 302 305 307 308 310 310 307 318 323 326 328 327 326 324 327 330 334 335 336 338 338 338 338 337 337 336 335 330 328 326 325
287 288 279 275 269 271 278 279 281 286 289 294 295 295 297 299 300 301 303 305 308 309 310 314 312 315 322 324 325 325 327 327 327 333 335 336 335 337 337 337 336 336 335 336 334 331 327 326 323
283 281 283 280 282 276 274 278 287 289 292 293 294 296 297 299 300 302 304 306 308 309 309 314 311 317 320 318 322 324 327 329 331 334 336 336 336 337 338 337 336 335 334 333 331 329 326 325 323
288 284 283 275 277 279 278 279 291 292 293 294 294 297 298 299 301 303 305 307 308 309 309 316 311 316 318 320 325 327 329 332 333 335 336 336 336 338 338 337 335 335 335 332 329 327 326 325 323

GFSSGP_sfc_thetae_072.txt.gz
Theta_e
334 320 313 310 297 293 289 293 295 296 299 301 304 303 307 308 315 308 326 330 333 335 351 360 362 362 362 361 361 360 359 359 359 359 358 358 358 358 357 357 355 353 350 345 343 342 340 338 337
332 318 309 303 293 288 290 296 294 297 302 305 305 303 303 304 313 325 324 329 333 336 350 356 362 361 361 361 360 359 359 359 359 359 358 358 357 357 356 355 353 350 347 344 343 341 339 339 338
325 318 304 298 291 289 292 297 297 301 304 303 302 306 305 317 325 327 330 333 332 338 348 353 360 361 361 361 360 358 358 358 358 358 358 358 358 356 355 355 353 349 346 344 343 340 340 340 338
317 312 304 296 292 297 298 300 299 301 303 303 303 303 309 325 328 332 331 333 332 338 346 353 359 361 361 361 360 358 358 358 358 358 358 358 357 356 355 354 353 351 347 345 342 341 341 341 339
312 304 295 291 295 299 301 303 300 300 301 303 304 303 305 320 335 332 331 333 331 338 343 351 358 360 361 361 360 359 358 358 358 358 358 358 357 356 355 354 352 350 349 345 343 343 344 344 341
305 302 291 290 295 300 303 304 301 299 302 305 304 303 305 330 331 330 332 331 332 336 340 348 358 359 359 360 359 358 358 357 357 357 357 358 357 357 355 354 352 350 350 348 346 346 345 345 344
304 298 293 293 296 300 303 306 303 301 304 306 308 302 309 318 331 330 327 329 333 337 339 345 350 355 359 358 358 358 357 357 357 357 356 357 357 356 355 354 352 351 350 349 347 347 347 345 345
309 303 296 297 297 298 306 308 306 304 307 312 310 304 307 323 328 328 329 329 331 334 339 342 345 349 351 353 358 357 357 357 357 357 356 356 357 356 356 352 352 351 350 349 349 349 348 346 345
307 300 296 298 299 301 307 306 309 312 309 311 311 311 315 332 330 328 328 331 332 335 337 340 343 344 344 346 352 356 357 357 357 357 357 354 353 353 353 352 351 351 350 349 349 349 348 347 346
299 294 299 305 305 304 306 307 308 308 307 308 310 314 315 329 329 326 323 324 329 330 336 339 341 342 342 345 345 347 349 350 352 352 352 352 350 348 348 351 351 351 350 349 349 349 349 345 342
295 294 302 304 305 306 304 304 307 305 303 307 307 309 311 315 319 328 327 326 326 329 335 338 339 340 341 341 341 344 343 342 343 343 342 343 340 342 345 341 344 342 347 341 345 345 344 340 340
288 295 295 297 299 298 298 301 300 302 303 308 307 306 311 311 312 318 325 327 330 331 333 336 339 339 339 339 340 342 341 340 340 339 338 337 334 333 335 336 336 336 338 337 336 338 340 339 339
289 291 295 297 297 297 299 298 299 300 304 307 307 306 306 309 312 318 319 323 328 332 334 336 336 337 338 336 338 338 338 338 338 337 337 336 333 330 331 333 333 333 334 334 334 334 337 337 338
292 291 293 296 296 297 297 298 299 302 305 305 306 305 305 306 312 316 320 319 320 325 335 336 336 335 335 335 334 335 336 334 334 335 336 336 333 331 330 330 331 330 332 333 333 332 333 335 336
292 287 290 293 294 293 296 293 295 301 304 303 304 304 304 305 308 311 319 321 319 323 331 337 337 335 331 332 331 332 334 333 332 333 335 335 333 331 330 329 328 330 330 332 332 332 332 332 333
286 284 280 287 292 294 294 288 296 299 300 300 301 301 302 302 303 305 310 317 319 322 327 339 341 337 333 330 329 332 333 333 332 332 334 336 335 332 330 328 327 328 329 330 331 330 329 330 330
284 280 281 286 291 291 291 287 295 299 298 298 299 300 301 301 303 304 306 307 311 314 318 327 340 339 337 334 331 331 333 333 333 333 333 334 335 334 331 330 329 328 328 329 330 329 330 327 328
281 281 284 284 289 290 289 290 293 297 297 297 298 299 300 301 302 304 305 306 308 312 315 320 335 340 337 336 333 332 334 335 336 335 335 336 336 335 333 332 331 329 328 328 328 329 329 329 329
286 285 284 287 291 289 288 289 292 295 295 295 296 298 299 300 303 306 305 306 306 312 313 315 324 331 335 333 332 333 333 335 336 337 338 337 337 336 334 333 331 330 329 329 329 329 329 328 329
286 284 283 288 292 290 288 289 293 294 294 294 295 296 297 300 301 303 303 304 303 304 308 312 315 321 332 337 337 336 336 337 338 339 339 339 338 338 335 334 332 332 330 329 329 330 327 329 329
286 284 284 286 289 290 288 285 287 291 293 294 295 296 296 297 299 300 303 303 302 302 303 309 312 315 323 335 333 331 332 332 332 334 337 339 340 340 338 336 335 333 333 329 330 330 329 327 327
283 289 289 288 284 278 288 277 285 289 290 291 292 292 293 294 301 304 305 306 306 305 304 303 310 314 318 327 333 333 334 333 335 334 337 336 339 340 340 337 336 336 335 333 331 331 331 331 327
286 290 288 287 283 281 283 278 282 287 286 289 291 291 294 299 301 302 304 305 307 307 306 304 304 313 317 322 334 334 333 335 333 330 332 333 334 338 340 338 337 336 336 336 335 332 332 332 330
291 286 284 282 280 274 280 280 279 283 286 289 291 294 299 300 301 301 303 304 304 306 307 308 306 304 316 321 330 334 334 332 327 329 330 331 334 337 340 340 339 339 338 336 335 335 334 332 331
285 280 274 273 273 274 281 279 282 287 291 291 292 296 299 299 299 299 300 301 303 304 306 308 309 308 310 319 325 334 335 335 329 331 329 331 333 335 339 339 339 338 339 338 337 336 334 332 330
283 281 274 270 272 274 281 277 281 289 292 296 299 298 299 298 297 299 301 302 303 305 306 308 309 309 309 312 321 328 334 335 331 330 330 331 334 337 340 340 340 340 339 338 338 336 336 332 332
283 278 282 277 276 273 277 281 287 291 291 296 296 297 296 296 298 300 302 303 304 305 306 308 309 310 311 309 318 324 329 332 331 329 332 333 336 337 339 340 339 339 339 339 338 336 333 333 330
286 287 278 274 269 267 275 278 280 286 289 291 294 294 295 297 299 299 301 303 305 306 307 309 310 309 310 314 315 323 327 330 328 329 332 333 336 338 338 339 339 338 339 338 337 335 332 331 329
282 280 282 278 275 271 273 277 286 286 288 290 292 294 295 296 298 300 301 307 306 307 308 309 311 311 311 316 315 322 325 327 327 329 332 335 336 338 338 339 338 338 336 336 335 334 331 329 328
285 283 282 275 276 278 277 279 290 291 292 293 294 296 296 298 300 301 303 308 307 308 309 309 312 314 313 314 316 322 325 327 328 330 333 335 336 339 339 339 338 336 335 335 334 331 331 328 327

GFSSGP_sfc_thetae_075.txt.gz
Theta_e
334 322 319 320 305 304 298 300 304 304 305 310 311 310 310 312 313 312 337 340 336 340 357 362 361 362 361 360 359 359 360 361 362 362 362 362 362 361 361 360 358 355 352 349 344 342 341 340 338
330 319 315 311 301 295 297 302 303 306 309 312 311 310 309 309 316 321 329 339 337 345 359 359 361 361 361 360 359 358 359 359 360 360 361 361 360 360 359 358 356 353 350 346 344 343 341 340 339
326 319 310 307 302 295 296 302 306 308 310 309 310 312 311 314 326 324 337 338 337 344 355 361 361 360 361 361 359 358 358 358 359 359 359 359 359 358 357 356 356 352 348 346 344 342 341 341 340
322 318 311 302 298 300 301 305 307 307 310 310 312 310 315 325 330 338 339 336 336 341 351 359 361 360 361 361 360 359 359 359 359 358 358 357 357 357 356 356 355 353 349 347 344 343 343 342 341
319 314 301 300 298 302 305 307 309 307 308 310 313 311 314 324 338 340 338 335 334 340 347 357 360 360 361 361 360 359 359 358 358 359 358 357 358 356 356 355 354 353 351 349 346 346 346 345 342
311 311 300 295 297 303 306 308 307 308 311 313 314 312 315 325 336 337 337 335 336 341 348 353 360 360 360 360 359 358 358 357 357 358 357 357 357 356 356 355 354 353 351 350 348 347 347 346 345
307 306 301 299 298 300 304 310 308 309 311 313 316 311 318 322 335 336 336 337 337 342 346 353 356 360 360 359 358 358 357 357 357 356 356 356 356 356 355 354 353 352 351 350 348 348 347 346 346
315 309 301 301 299 300 308 311 313 312 312 318 318 312 312 321 336 336 335 336 337 340 342 350 354 354 356 357 359 358 358 357 357 357 357 356 357 356 356 353 352 352 352 351 349 349 348 346 346
316 304 299 301 301 303 311 309 312 316 314 315 316 316 317 321 336 334 334 334 335 337 341 346 349 352 354 353 356 358 358 358 357 358 357 355 355 356 355 353 353 353 352 351 350 349 348 347 346
307 301 301 308 308 307 309 309 308 309 311 311 314 317 316 317 328 329 331 330 332 333 338 344 348 351 352 350 354 355 354 355 356 356 357 356 355 355 353 353 352 353 352 351 350 350 349 346 340
304 300 306 308 309 307 307 305 309 308 306 311 310 310 313 315 319 322 328 332 330 334 337 341 348 349 349 347 349 351 351 352 354 356 357 356 353 352 353 351 352 352 351 346 346 345 341 339 340
297 301 300 305 303 301 301 302 302 305 307 310 309 312 312 313 315 319 322 328 333 333 336 340 345 347 348 346 346 347 346 349 349 350 356 353 350 350 349 347 347 349 346 345 344 341 342 342 341
297 297 299 301 301 301 302 300 301 304 308 308 309 311 311 312 315 320 327 326 327 335 336 339 344 346 348 348 345 345 347 345 345 347 350 349 347 347 346 345 344 342 343 342 341 340 341 340 341
298 298 298 300 300 301 299 301 301 304 307 306 307 309 310 312 314 317 323 328 328 329 333 342 342 341 346 346 347 346 346 344 343 343 344 348 345 345 341 342 340 340 340 339 339 339 339 338 338
298 294 296 297 299 298 300 297 298 302 304 304 308 311 309 309 311 312 316 322 326 325 330 337 344 344 347 343 346 345 342 341 341 341 344 344 345 344 342 339 338 338 340 341 340 340 340 338 338
294 293 290 295 297 298 298 293 298 302 302 302 303 304 306 308 310 312 313 317 323 321 326 331 335 344 344 341 343 340 340 340 340 341 341 343 343 343 341 338 337 339 339 338 338 338 337 337 337
292 289 289 292 298 297 296 293 299 302 301 301 303 303 305 306 310 313 313 315 318 322 320 326 333 341 346 342 340 340 342 340 340 340 339 341 341 341 340 337 338 340 337 338 338 338 338 337 337
287 288 290 290 295 296 295 295 298 300 300 300 301 302 303 305 308 311 312 314 316 319 323 319 329 336 348 346 343 339 338 339 339 338 339 340 340 340 341 338 340 341 337 339 339 341 340 339 338
291 290 289 292 296 294 294 294 296 299 299 299 300 302 304 305 309 309 310 312 314 318 320 322 321 328 340 343 342 340 338 338 338 340 341 341 340 340 341 337 342 343 340 342 342 341 340 338 339
291 289 289 292 295 294 293 293 297 299 300 301 300 301 303 304 304 305 309 313 315 317 322 323 325 326 332 340 343 344 344 343 342 343 345 344 342 339 341 343 344 343 342 343 342 341 338 339 339
291 290 290 289 293 294 293 291 293 297 299 300 301 303 303 301 302 305 309 313 315 315 317 320 322 324 329 335 339 346 346 345 343 343 344 345 345 341 343 344 346 346 344 342 343 342 341 337 337
288 293 292 291 289 284 292 283 291 294 296 297 299 301 302 301 304 308 309 310 311 313 315 317 321 323 322 327 332 341 336 337 342 345 346 347 346 345 346 348 349 348 345 346 344 343 342 341 335
290 294 292 291 289 288 288 285 289 294 292 295 299 301 302 303 307 308 307 308 309 311 312 315 319 322 323 324 328 327 338 338 343 344 351 352 350 349 348 350 349 348 347 347 346 343 341 339 339
295 292 291 289 288 282 286 285 286 290 293 295 298 300 302 305 308 308 309 309 309 311 312 314 317 319 322 322 324 331 336 340 337 342 341 341 344 348 351 351 349 349 349 347 346 344 341 341 342
292 289 283 281 281 281 287 285 288 294 296 297 297 300 304 306 307 306 308 308 309 310 312 313 315 317 320 321 322 325 333 340 343 344 340 342 341 344 350 351 349 347 348 348 347 345 343 343 342
290 289 283 276 278 281 287 282 288 295 297 299 300 303 305 305 306 307 308 309 310 312 313 313 313 314 318 319 320 322 329 328 336 343 341 340 342 346 352 350 349 349 347 347 347 345 345 346 344
289 286 290 285 285 281 284 287 292 295 296 298 299 302 302 304 306 307 308 309 310 315 315 315 315 316 317 319 321 321 323 330 333 341 340 338 346 346 348 349 348 348 347 348 349 346 347 346 344
292 293 285 286 277 275 281 283 284 290 293 296 297 299 302 304 305 307 308 309 312 314 314 314 315 316 318 319 320 321 324 325 330 338 339 338 344 347 346 347 348 348 349 350 350 348 348 345 339
289 288 289 288 285 279 277 283 293 293 295 296 298 301 301 303 305 307 308 310 311 311 311 313 312 314 316 320 322 323 326 328 333 337 340 341 346 347 345 347 348 348 349 350 349 348 346 342 337
292 290 290 283 281 285 283 283 296 296 297 299 299 300 302 306 306 307 308 310 310 309 310 311 311 312 317 320 324 326 327 329 334 337 340 343 345 345 345 347 347 348 349 349 347 346 343 336 335

GFSSGP_sfc_thetae_078.txt.gz
Theta_e
336 324 321 321 312 307 305 305 309 308 310 314 315 314 314 317 315 317 342 343 340 341 357 360 361 361 362 363 364 364 363 363 363 362 362 362 362 363 362 361 359 357 354 351 346 342 341 340 338
330 322 320 314 309 302 304 307 307 310 312 316 316 315 314 313 322 327 328 344 339 345 357 356 360 360 362 362 363 363 363 363 363 362 362 362 362 362 362 360 358 355 353 348 345 343 341 340 339
328 322 311 312 309 305 305 307 309 311 313 313 314 319 316 316 326 332 338 343 340 347 355 357 360 359 361 361 361 361 362 362 363 363 362 362 362 361 360 359 358 354 350 346 345 343 342 341 340
324 318 313 302 304 310 309 311 311 311 313 313 315 315 319 326 329 339 345 344 339 345 352 360 359 359 360 361 360 360 361 362 362 362 362 361 361 359 358 357 357 355 351 348 346 344 343 342 341
323 316 306 301 301 306 311 312 311 310 311 312 316 315 317 326 335 343 344 344 338 342 349 362 359 359 361 361 360 359 359 359 360 361 361 360 359 358 357 357 357 355 353 351 347 346 347 346 343
313 314 303 301 302 304 308 311 313 313 313 314 315 317 319 327 333 339 343 343 340 340 348 359 360 359 360 360 360 359 358 358 358 358 358 358 357 357 356 356 356 354 353 352 350 349 348 347 346
311 309 304 305 304 304 306 312 310 314 314 314 319 315 321 323 332 340 343 341 339 341 346 356 359 361 360 360 359 358 358 358 358 357 357 357 357 357 356 356 355 354 353 352 350 349 348 348 346
315 310 305 306 304 305 310 311 312 313 314 320 321 314 316 322 327 334 342 339 337 341 344 351 354 355 357 358 359 358 358 358 357 358 358 357 357 357 356 354 354 354 353 352 351 349 349 348 347
316 307 303 305 305 307 312 309 314 318 316 318 319 320 322 324 324 327 334 337 336 338 343 348 348 350 352 351 356 358 358 358 358 358 358 356 352 355 354 352 353 354 353 353 351 350 349 348 346
310 305 305 310 311 310 312 311 313 312 313 315 319 322 322 322 322 323 327 335 335 336 339 344 347 348 349 345 353 357 355 356 356 355 356 355 352 353 351 353 354 354 353 353 352 351 350 347 338
308 304 308 309 312 314 312 312 313 311 310 314 317 317 318 320 321 321 325 329 337 336 338 343 350 352 351 347 349 351 350 351 352 355 357 357 352 353 353 351 353 353 352 347 348 346 343 339 338
302 307 308 309 312 311 309 313 310 311 312 314 319 318 317 318 318 319 322 328 329 337 337 340 347 353 355 349 348 348 347 348 349 352 358 356 353 353 352 347 347 350 348 349 346 343 344 342 341
302 304 305 307 307 307 309 308 308 309 313 310 314 315 315 316 317 320 323 327 329 331 338 341 345 351 354 353 348 348 347 346 348 350 355 354 351 350 349 348 345 344 345 343 344 342 341 342 341
303 303 303 305 305 306 304 305 307 308 309 308 314 317 317 315 316 317 321 326 332 332 333 337 344 348 351 351 354 352 349 347 347 345 347 355 351 351 346 347 345 342 342 340 341 341 341 341 341
302 299 302 303 304 303 305 301 302 308 307 307 307 310 315 316 321 317 317 320 323 327 331 332 344 349 350 350 351 351 346 345 344 342 349 349 353 352 350 343 342 340 343 344 343 343 343 341 342
298 299 295 301 300 302 301 297 304 307 306 305 305 305 309 310 316 316 316 318 322 324 331 332 327 337 350 350 349 346 345 344 344 343 343 348 350 351 349 342 341 343 342 341 341 341 342 343 343
298 292 294 296 301 300 300 298 304 306 306 305 306 305 306 309 312 316 315 317 319 323 329 324 336 332 341 349 349 351 353 346 343 343 341 346 346 347 347 341 342 347 341 341 342 343 345 345 345
293 293 294 294 299 299 298 298 303 305 305 305 306 306 305 307 310 313 314 315 318 322 326 329 329 332 339 345 352 347 346 345 345 342 343 346 345 345 345 342 343 343 339 339 344 347 348 347 347
296 294 293 296 299 297 297 298 301 304 304 304 305 305 307 307 310 312 313 315 317 326 326 328 327 331 330 331 335 340 343 344 343 346 348 345 345 346 346 341 343 342 343 344 350 349 348 347 348
295 294 294 297 298 297 297 296 300 302 303 304 305 306 306 307 309 309 311 315 319 320 323 326 327 329 329 332 341 335 341 341 347 348 350 347 345 346 345 347 343 346 341 349 351 351 346 347 349
295 293 294 293 296 298 296 295 298 301 303 304 305 306 307 307 306 307 310 315 318 318 320 322 324 327 329 331 330 337 341 343 343 344 347 350 349 348 348 348 346 349 350 347 352 352 350 344 347
291 296 294 293 293 289 296 287 295 299 300 301 303 304 306 306 306 309 312 313 315 317 319 321 323 325 325 329 330 331 326 333 334 342 347 352 354 350 349 351 352 351 351 356 353 352 351 350 345
294 297 295 295 293 292 292 290 294 298 296 299 302 303 305 306 308 310 311 312 314 316 318 320 323 325 326 328 330 328 331 330 333 333 345 361 360 354 351 352 352 354 352 357 356 353 354 350 347
298 296 296 295 293 286 291 291 291 295 297 300 302 302 304 307 309 311 312 313 314 317 317 319 322 323 325 326 328 330 331 335 331 338 341 347 349 353 355 352 355 357 358 356 354 355 354 352 350
297 294 287 285 286 285 292 289 292 297 299 299 300 302 304 306 309 309 311 312 314 314 318 321 321 322 324 325 325 327 330 334 340 341 333 342 343 345 355 360 359 356 358 357 356 356 355 352 347
295 294 287 280 283 286 292 286 294 299 300 301 303 304 305 307 308 310 311 313 314 316 318 321 320 321 323 324 325 327 329 327 328 336 335 334 339 345 358 361 358 359 357 356 356 353 351 350 348
294 290 295 289 290 286 289 293 297 299 298 300 301 303 304 306 308 309 311 313 315 316 318 317 318 320 321 323 324 326 327 330 329 338 345 338 347 344 351 355 357 357 356 354 357 350 351 351 352
296 297 288 289 281 280 287 288 290 294 296 298 300 302 304 307 306 309 311 313 315 317 317 317 317 316 319 321 323 324 326 328 329 333 338 342 348 348 347 354 356 355 354 354 354 353 354 353 351
293 291 292 292 290 284 283 288 297 296 298 299 301 303 305 305 306 309 311 312 314 315 315 316 316 316 319 319 321 324 326 328 329 332 333 339 346 345 344 350 353 353 351 353 355 357 353 351 350
296 293 293 286 286 289 288 288 300 299 300 301 302 304 305 306 308 310 310 312 312 314 313 313 315 315 318 319 320 323 326 329 333 333 337 340 341 343 341 348 349 348 350 354 354 352 350 349 348

GFSSGP_sfc_thetae_081.txt.gz
Theta_e
334 330 323 320 313 313 309 312 315 311 313 317 318 316 316 318 316 312 338 342 340 350 352 358 361 364 365 366 365 364 363 362 362 362 362 362 363 363 363 362 360 358 355 351 347 343 342 340 338
326 327 321 322 307 309 310 315 310 314 315 317 317 317 315 314 324 328 334 344 339 351 354 352 361 362 364 365 364 364 363 362 362 362 362 362 363 363 362 361 359 357 354 350 345 343 342 340 338
327 324 314 313 313 306 311 313 312 315 315 315 315 319 318 317 326 331 341 345 341 350 354 353 360 361 363 364 364 363 363 363 363 362 362 362 362 362 361 360 360 356 353 348 345 344 341 340 340
323 320 316 306 307 313 313 318 314 313 315 315 316 314 320 328 328 336 344 346 345 344 353 357 359 360 361 362 363 363 363 363 364 363 362 362 362 361 360 360 358 357 351 347 346 344 343 342 340
322 316 308 306 305 309 315 319 319 314 314 314 315 314 317 327 331 338 345 346 344 342 352 358 358 359 360 361 362 362 363 363 363 363 363 362 362 360 359 358 357 355 353 350 347 346 346 345 342
315 315 304 302 306 309 311 314 318 315 316 315 314 316 320 330 327 335 345 345 345 341 350 360 357 358 359 360 360 360 360 361 361 361 361 361 360 359 358 357 357 356 354 353 350 349 348 348 346
312 311 305 305 306 308 310 313 311 314 316 318 319 314 322 325 328 330 339 345 345 342 347 361 355 359 359 360 360 359 358 358 358 359 359 359 358 358 357 357 356 355 354 353 352 350 349 348 346
314 311 306 307 305 306 313 313 313 312 313 322 324 314 317 325 327 328 334 344 340 341 345 357 354 354 355 357 360 359 359 358 358 358 358 358 358 357 356 355 355 355 354 354 352 350 349 349 348
317 306 304 305 306 308 314 311 315 317 314 316 321 322 323 326 326 326 328 337 341 338 344 350 350 351 352 350 356 358 358 358 358 357 358 356 350 353 352 352 354 355 354 354 353 351 350 349 347
310 306 305 311 312 310 313 314 312 314 313 315 318 323 325 325 324 323 324 329 339 337 341 345 349 349 349 346 354 354 353 353 353 352 354 354 350 352 350 352 354 355 354 354 353 352 351 347 337
309 305 310 311 312 313 312 313 316 313 311 314 315 319 323 322 323 322 322 328 333 339 339 342 350 357 350 346 347 351 347 349 351 353 358 359 350 351 350 349 351 353 353 347 348 346 343 340 338
304 308 309 310 312 311 311 315 313 315 314 317 317 319 322 322 320 320 321 324 330 339 339 341 347 352 358 348 344 349 346 348 348 351 363 360 354 358 356 349 349 355 350 351 348 345 347 344 342
305 306 308 310 309 310 313 311 312 313 317 318 317 315 320 322 319 320 322 324 330 334 341 341 345 356 359 359 353 352 352 347 349 350 358 355 353 357 354 355 348 348 347 346 347 345 346 344 344
307 306 306 308 307 308 306 307 308 310 316 315 315 313 316 320 319 319 321 321 328 334 332 339 346 355 354 358 361 359 359 350 348 348 352 362 357 360 351 351 347 345 343 342 342 345 345 345 344
305 301 304 305 306 305 307 303 304 310 313 312 312 312 313 318 321 321 323 323 324 332 333 335 349 352 355 355 355 353 350 349 346 346 360 358 361 361 360 347 347 345 347 347 346 345 347 344 345
301 301 297 303 305 306 305 298 306 310 311 310 310 311 311 311 315 319 322 321 325 326 331 329 332 344 354 354 353 352 349 346 345 345 347 355 358 359 360 347 344 345 346 342 344 341 342 343 344
300 295 297 300 304 303 303 299 306 310 309 309 310 311 311 311 313 319 319 319 321 327 327 327 340 338 344 353 352 353 353 350 348 346 344 352 351 352 353 346 346 355 342 343 342 343 346 346 347
295 296 298 297 302 302 300 300 304 308 308 308 309 310 311 311 311 315 320 319 320 325 329 332 330 342 340 349 353 350 348 349 349 348 347 351 349 349 353 347 350 349 342 342 343 350 350 348 347
299 297 296 300 302 300 299 300 302 306 306 307 308 309 310 311 314 314 316 317 320 324 329 331 331 335 337 332 336 338 343 348 349 349 354 353 349 350 354 346 347 349 345 344 351 349 350 347 352
298 295 296 299 302 300 299 299 302 304 305 306 307 308 309 310 312 314 315 317 321 322 325 330 330 331 334 330 339 336 337 338 340 348 355 353 352 349 349 349 348 346 342 353 347 356 347 348 350
297 295 296 296 299 300 298 296 300 304 306 307 308 309 309 310 311 313 313 316 319 320 320 322 327 328 331 337 334 334 334 339 337 343 349 352 353 354 353 353 348 349 348 341 354 358 357 344 347
294 299 298 296 295 290 299 289 298 302 302 304 306 307 308 310 311 311 313 316 318 317 318 320 324 329 328 331 332 331 329 326 333 343 344 344 351 355 353 352 353 355 349 347 357 359 357 355 343
296 299 298 297 295 294 294 291 296 301 299 302 305 307 308 310 311 311 313 314 316 318 320 321 323 329 332 331 334 330 330 327 331 335 344 347 343 356 355 357 355 356 351 355 359 360 360 353 346
300 297 297 297 295 288 293 293 293 297 300 302 305 305 305 308 310 312 315 316 316 318 319 320 323 326 330 331 332 333 332 331 331 335 337 341 340 341 352 355 356 357 359 357 361 364 363 357 355
299 295 288 286 286 286 296 292 295 299 301 302 304 304 305 308 309 312 313 313 315 315 318 320 323 323 328 330 330 330 334 335 336 335 333 336 341 339 335 342 356 358 358 361 361 363 363 360 354
296 295 289 282 284 287 293 289 295 301 303 304 303 305 307 307 309 311 312 313 314 316 317 319 321 322 323 324 327 331 332 327 329 334 332 333 334 339 344 346 358 359 358 362 364 360 358 359 355
296 292 297 291 291 286 290 295 299 302 301 302 303 305 306 308 310 310 311 312 314 316 318 319 321 321 321 322 325 327 331 332 331 336 338 335 337 337 347 353 362 361 360 363 365 356 358 359 358
298 299 290 291 283 282 287 289 290 296 299 301 301 303 305 307 308 310 310 311 315 316 319 320 319 319 320 321 322 323 326 330 333 334 336 336 337 343 345 350 353 361 362 363 364 358 360 356 352
295 293 294 293 290 284 283 286 298 297 300 300 302 305 306 307 308 309 310 312 314 315 315 318 318 317 318 319 320 324 323 326 331 333 335 337 339 340 339 347 351 356 360 362 361 359 355 352 355
298 295 293 287 287 289 288 288 301 301 302 303 303 305 307 309 309 310 310 312 313 314 315 316 318 316 316 317 319 322 322 324 330 332 336 338 339 339 342 346 342 352 356 359 358 353 351 353 354

GFSSGP_sfc_thetae_084.txt.gz
Theta_e
329 326 327 320 312 314 309 310 316 313 313 317 317 315 314 316 316 316 338 342 351 347 356 358 364 365 366 365 364 363 361 361 361 362 362 362 363 363 362 361 361 358 355 351 347 344 342 340 339
323 324 323 315 310 307 310 315 313 314 315 317 317 316 315 314 325 328 334 343 351 349 356 355 363 365 365 365 365 363 362 361 362 362 362 362 363 362 362 361 360 357 353 350 345 343 341 340 338
324 326 313 308 308 306 309 318 318 317 316 315 314 318 317 318 325 329 337 343 347 351 353 357 362 364 365 365 365 363 362 362 362 362 362 362 363 362 361 360 360 356 352 347 344 344 343 340 339
321 320 316 305 301 311 314 317 320 319 315 316 315 313 321 327 326 331 340 343 343 351 349 358 361 363 364 364 364 364 363 363 362 362 362 362 363 361 360 360 359 357 353 347 347 346 345 342 341
320 314 306 304 304 307 316 318 320 318 316 314 315 312 318 326 328 330 338 343 343 346 350 356 359 362 363 364 364 364 364 363 363 363 362 363 362 361 360 359 358 356 353 350 349 348 347 346 346
310 313 302 299 304 308 311 315 319 318 319 317 315 314 318 328 326 327 330 344 344 345 352 357 359 360 361 362 362 362 362 362 362 362 362 362 361 360 359 358 357 356 354 352 351 349 348 348 347
307 307 303 303 303 306 310 314 313 312 315 317 319 315 320 323 326 328 330 344 344 345 355 356 354 358 360 361 360 360 360 360 361 361 361 361 360 359 358 357 357 356 354 353 353 351 350 349 347
311 308 303 305 304 304 311 313 313 311 312 320 322 315 317 324 326 326 328 338 340 341 357 357 352 351 354 357 360 359 359 359 359 359 359 359 359 357 357 355 356 355 355 354 353 352 351 349 348
313 303 301 303 304 306 312 311 315 316 313 314 317 320 324 327 326 324 325 329 340 338 355 355 347 350 351 351 356 358 359 359 359 358 358 356 354 354 353 353 353 355 355 354 353 352 351 350 349
306 302 303 308 309 309 312 312 313 313 312 312 314 319 325 327 324 322 321 323 332 338 342 352 346 349 350 346 356 354 354 354 353 353 355 353 351 351 349 352 353 355 355 354 354 352 351 349 339
306 302 307 309 311 312 310 310 314 312 310 313 313 317 321 324 325 322 320 321 330 339 341 348 350 352 349 346 356 352 351 351 351 352 353 354 350 350 351 352 349 352 353 347 349 348 345 340 338
302 306 308 309 311 310 308 312 310 313 314 318 318 320 319 319 322 321 320 320 325 332 341 345 354 355 353 348 352 353 347 349 350 351 356 355 352 355 353 350 349 350 351 348 348 344 343 342 341
304 305 307 308 309 308 309 308 309 311 316 319 319 319 316 316 318 324 327 324 326 335 338 345 351 356 361 363 362 360 347 348 349 352 353 353 356 352 359 353 355 352 351 350 349 346 348 345 344
306 306 306 307 307 308 305 306 308 311 316 315 317 317 316 315 316 324 325 324 332 338 334 341 353 355 358 360 367 363 362 360 354 351 353 356 355 361 355 357 352 350 350 348 349 348 347 345 342
305 301 303 304 305 305 307 302 303 309 311 310 311 315 316 316 316 320 323 327 329 334 335 338 354 355 353 356 363 360 358 353 355 353 360 355 359 360 359 354 351 350 350 351 347 346 347 346 346
300 301 296 302 304 305 304 297 305 309 309 308 309 312 313 314 316 317 323 331 334 333 336 336 334 351 351 355 356 356 350 352 353 351 354 360 357 357 357 353 351 350 351 349 345 343 341 343 343
299 293 295 298 304 304 303 299 305 308 308 308 310 311 312 313 315 320 320 325 327 331 333 336 338 346 351 354 352 353 355 353 351 351 352 355 353 356 353 352 349 354 348 345 346 343 343 343 345
293 295 297 297 302 303 300 299 304 306 306 308 308 310 311 312 314 318 321 325 327 331 332 336 340 341 349 351 351 352 350 349 352 350 351 351 352 350 354 350 353 352 346 342 345 343 342 342 347
300 298 296 299 303 301 300 300 302 305 305 305 308 309 311 312 316 318 321 323 326 330 332 337 338 336 340 336 335 338 341 349 349 352 353 352 350 348 351 349 346 353 346 343 346 342 343 346 350
299 296 295 298 301 300 299 298 302 304 304 306 307 308 310 312 313 316 318 321 325 328 330 333 333 335 337 331 335 341 336 339 341 348 352 352 352 349 351 347 346 347 344 345 345 345 341 345 349
297 295 295 295 299 300 298 296 299 302 305 306 308 309 310 311 311 315 316 319 323 325 327 328 331 328 332 336 329 329 331 332 334 333 335 349 354 347 346 346 346 346 342 340 344 347 345 341 347
293 299 298 296 295 290 298 288 296 300 302 305 306 307 309 310 312 315 316 318 322 322 324 327 330 330 325 336 331 330 326 325 328 330 333 339 352 352 348 344 347 344 345 342 342 347 345 348 344
295 300 297 296 294 293 293 290 294 300 298 302 306 307 308 310 311 312 313 316 318 321 323 326 328 330 333 331 330 331 331 331 329 330 331 335 343 347 352 351 347 347 345 344 347 343 347 350 346
301 297 297 296 294 287 291 291 292 296 299 302 305 306 308 308 310 312 315 317 318 319 320 325 328 331 333 332 330 326 332 331 329 327 332 332 332 337 337 351 349 348 348 349 349 348 353 350 348
299 294 287 285 286 285 294 291 294 300 301 303 304 305 306 307 308 310 312 315 317 317 320 323 324 327 331 331 332 329 329 331 330 331 330 327 327 334 336 343 351 351 350 350 353 348 353 350 347
296 295 288 280 283 286 294 287 292 301 304 305 305 307 306 306 308 310 312 315 315 318 320 321 323 326 328 329 329 332 330 328 327 328 329 329 327 328 336 340 338 349 350 353 352 352 351 349 349
297 293 297 290 291 286 290 294 299 302 303 303 303 304 305 306 310 309 311 313 316 317 322 323 323 324 327 325 326 330 330 331 327 328 331 331 333 332 331 332 344 343 347 341 334 333 344 348 350
298 300 290 292 282 281 287 289 290 296 299 301 301 303 305 308 308 308 311 314 315 316 320 324 324 322 322 325 326 322 325 329 328 329 328 329 330 332 332 332 336 338 353 345 337 338 348 349 349
295 294 294 293 291 284 282 286 298 298 300 301 303 303 305 306 307 308 310 313 313 315 314 320 321 321 321 323 325 326 323 323 325 326 327 330 331 331 331 331 330 334 347 352 354 351 350 349 350
298 294 294 288 286 289 288 288 300 301 302 303 303 304 306 308 308 309 310 312 312 313 314 316 322 319 320 322 321 321 326 325 325 325 327 330 331 333 332 331 331 330 337 348 352 351 352 350 349

GFSSGP_sfc_thetae_087.txt.gz
Theta_e
327 321 318 314 305 303 301 305 312 311 306 308 311 309 313 318 319 312 333 345 350 351 358 362 364 365 364 363 362 361 360 360 361 361 361 361 362 362 361 360 360 358 353 350 347 344 342 340 338
321 321 317 306 301 296 301 314 310 315 312 311 311 311 314 315 324 326 330 344 349 351 354 359 364 364 364 363 362 361 360 360 361 361 361 361 361 362 360 360 360 355 352 349 345 343 341 340 338
320 321 308 299 297 298 302 314 313 318 319 311 309 314 316 317 325 325 334 345 348 349 351 358 364 364 364 363 362 361 360 361 361 361 362 361 361 361 360 360 359 355 351 347 345 343 342 340 339
315 311 309 297 295 301 308 314 317 318 318 315 311 310 320 324 323 326 338 344 345 348 350 360 363 363 363 363 362 361 361 361 362 362 361 362 361 360 359 359 358 356 351 347 345 346 344 342 340
308 306 297 296 298 303 306 315 317 315 315 316 316 310 315 321 323 322 336 339 343 345 351 357 362 363 364 364 363 362 361 361 361 362 362 362 361 359 359 358 358 356 353 351 348 348 346 346 345
302 304 294 292 298 304 306 312 317 315 315 316 315 314 314 320 320 319 325 335 339 343 351 354 361 362 362 363 362 362 361 361 361 361 361 361 360 359 359 358 357 356 353 352 351 348 347 347 346
299 297 295 298 299 302 306 308 309 314 313 312 316 313 317 317 319 320 320 336 339 345 350 351 355 361 362 361 361 361 360 361 361 360 360 360 360 358 358 357 356 356 353 352 351 350 348 347 347
302 298 295 298 298 300 308 308 308 311 311 315 316 311 309 317 319 320 320 324 344 348 349 348 351 355 355 357 361 360 360 360 360 360 360 360 359 358 357 354 354 355 354 353 352 351 350 348 347
304 294 293 297 299 301 307 304 308 312 309 312 315 314 318 322 319 318 318 317 343 350 347 346 348 349 351 353 357 359 361 360 360 360 359 356 351 352 353 353 353 355 354 354 352 351 350 349 348
297 292 294 301 304 302 304 305 306 308 307 308 311 315 317 320 317 316 315 314 323 346 346 344 344 346 346 353 353 350 355 354 353 353 353 350 346 346 350 351 354 355 354 354 353 352 351 350 341
297 294 300 302 305 306 305 305 308 305 305 308 308 312 316 318 317 316 315 315 317 328 345 343 343 345 344 345 350 348 348 347 346 347 349 345 345 342 347 342 347 347 353 347 349 348 346 342 338
295 300 302 303 306 305 304 305 304 304 306 313 313 315 316 315 313 314 314 315 316 329 336 340 343 343 342 346 348 346 346 345 344 343 346 345 341 339 338 341 342 344 344 343 340 341 340 339 336
297 299 302 303 302 302 304 302 302 303 308 316 315 315 314 312 313 316 314 317 327 326 331 341 345 344 349 348 349 345 340 344 344 344 345 347 343 340 343 343 343 343 344 344 342 341 338 338 337
299 299 299 300 299 300 300 301 302 304 307 309 313 312 312 311 312 313 317 313 322 325 326 336 341 346 346 346 351 350 348 341 343 345 345 346 347 345 342 345 343 344 344 346 344 342 339 339 338
299 294 297 299 299 298 302 298 299 304 306 305 306 308 312 312 312 311 317 314 320 324 327 334 341 345 345 346 350 348 347 347 345 344 345 348 346 346 348 346 342 341 341 338 339 338 339 339 339
294 292 287 295 300 301 298 293 301 304 304 304 305 306 307 310 311 311 314 316 321 324 325 326 338 342 344 345 345 346 346 342 342 342 347 349 350 349 347 345 343 342 340 339 336 332 331 333 333
290 286 289 293 299 299 297 294 301 304 303 302 303 305 306 306 308 310 312 312 321 325 325 324 328 341 342 344 346 344 346 346 342 340 341 349 350 351 347 345 343 342 340 337 335 334 332 331 332
287 288 291 291 296 298 295 295 298 301 301 301 301 303 305 306 307 311 313 319 321 321 323 324 330 337 340 344 346 346 345 342 342 342 340 341 347 351 347 344 343 341 340 336 333 333 335 332 332
295 293 292 295 299 295 294 294 296 300 299 298 299 300 303 305 308 311 316 317 319 322 323 322 323 326 335 338 339 336 342 343 343 345 344 343 344 345 346 343 341 342 341 335 333 335 333 332 337
294 292 290 295 298 295 293 293 296 298 298 299 300 301 301 304 306 311 313 314 316 318 319 321 326 327 328 326 327 331 334 336 341 344 344 346 344 341 341 343 341 339 339 337 337 336 332 334 340
292 291 291 291 295 296 293 291 294 298 300 301 302 303 303 302 305 308 311 313 316 316 316 317 317 320 323 326 323 323 323 325 326 328 332 343 347 345 342 343 341 340 339 336 335 336 334 330 337
288 296 295 294 290 283 292 283 291 294 297 299 301 302 303 304 305 307 310 312 314 315 315 316 318 317 317 322 323 321 320 318 320 323 327 328 332 343 342 340 342 340 340 337 335 339 338 338 332
292 297 294 293 289 286 288 284 289 294 294 297 299 302 302 303 302 307 310 313 314 314 313 313 315 316 317 319 319 321 321 323 325 325 322 322 329 338 348 342 339 340 339 340 339 338 339 340 339
299 294 292 290 286 281 287 286 287 291 294 298 300 302 303 302 305 307 309 312 311 310 311 314 314 314 317 318 319 319 319 323 323 322 323 327 329 329 332 339 344 341 342 340 339 342 340 341 342
295 288 281 279 278 280 289 288 289 295 299 299 300 301 301 302 303 304 305 308 307 308 310 313 314 314 318 318 321 319 319 320 323 324 325 325 324 322 328 333 332 338 343 344 343 342 343 344 345
293 292 285 278 276 282 290 284 289 299 300 302 303 303 302 299 300 302 307 308 308 309 309 312 312 311 318 320 320 322 321 321 320 322 324 325 326 326 325 331 335 337 346 346 345 346 344 346 346
293 289 293 287 288 282 283 289 295 299 298 301 301 303 299 300 299 300 304 306 307 308 311 311 311 312 316 318 319 319 319 319 320 320 320 324 327 329 326 327 328 331 336 343 347 346 346 345 343
294 297 286 287 280 277 283 285 285 292 295 299 299 300 301 302 301 301 303 304 305 306 308 312 312 312 313 315 313 315 318 321 322 321 321 320 321 325 327 327 327 328 331 338 340 342 336 340 343
291 288 289 290 285 280 278 281 292 293 295 295 298 300 300 301 300 301 301 304 305 306 304 308 313 313 314 314 316 315 314 315 315 318 321 323 324 325 326 327 327 327 325 326 338 340 336 338 342
294 291 290 285 283 285 285 284 298 297 296 297 299 302 302 303 303 303 303 302 304 305 305 305 312 313 315 315 315 315 315 316 315 316 317 319 322 326 327 329 328 328 328 326 328 335 346 344 344

GFSSGP_sfc_thetae_090.txt.gz
Theta_e
325 318 315 311 304 301 299 304 307 311 312 311 310 316 315 319 318 311 334 342 350 355 360 363 364 363 362 362 361 360 359 359 359 360 361 361 360 361 360 360 358 355 351 348 345 343 342 340 338
322 318 314 305 299 295 300 312 309 312 315 316 309 313 317 317 325 331 336 346 349 355 358 360 363 363 362 361 360 359 359 359 360 360 361 361 361 360 359 359 357 353 350 346 344 343 342 340 339
314 318 306 298 294 296 300 313 311 314 318 315 306 315 316 317 325 328 335 345 349 352 356 360 363 362 362 361 360 359 359 360 360 360 361 360 360 359 359 359 357 353 349 345 344 343 342 341 339
309 309 305 296 293 298 303 305 310 315 317 315 314 311 316 321 323 331 343 346 347 348 353 362 363 362 362 362 360 359 360 360 360 361 360 360 359 358 358 358 357 355 349 346 345 343 342 341 339
306 303 296 293 296 300 304 306 310 312 312 313 314 311 312 319 320 330 343 344 343 344 351 360 362 362 362 362 361 360 360 360 360 361 360 360 359 358 358 358 356 353 350 347 346 344 345 344 342
300 301 292 291 296 302 304 305 310 312 316 315 312 312 313 318 317 316 335 342 343 344 352 358 362 362 362 362 360 359 359 359 360 360 360 360 359 358 357 357 356 355 352 351 348 347 345 344 343
297 294 291 293 297 299 305 307 305 310 312 313 314 310 313 315 316 318 322 339 343 346 350 355 358 361 362 361 360 359 358 359 359 358 359 359 359 358 357 356 356 354 352 351 350 348 347 345 345
300 296 291 293 295 296 305 304 304 307 311 319 316 310 307 314 319 317 323 338 339 346 349 351 355 358 356 358 361 359 359 358 358 358 358 358 358 358 357 354 354 355 353 352 351 350 349 347 346
301 291 288 292 295 299 305 301 305 311 310 314 312 313 318 318 317 315 319 342 343 345 345 347 352 354 354 355 359 360 361 360 359 359 358 355 353 352 353 353 354 355 354 353 352 351 350 348 348
295 288 291 297 299 299 303 301 303 306 306 306 309 313 316 319 315 313 314 326 342 342 343 344 345 349 352 356 355 356 357 356 355 355 354 351 348 347 350 352 354 354 354 354 352 351 351 349 340
293 290 295 299 300 302 302 302 304 304 301 305 307 310 313 316 314 312 312 319 341 345 344 344 344 345 347 351 352 353 351 349 348 350 349 345 346 344 347 343 347 345 352 346 349 347 345 342 340
291 296 298 299 301 301 300 304 301 302 302 308 310 312 314 313 313 313 311 318 326 332 344 342 343 342 340 347 347 350 350 347 345 346 346 343 338 337 338 339 339 341 343 343 342 341 340 340 339
292 296 298 300 301 301 302 300 300 300 305 311 312 313 313 311 312 314 312 318 324 331 339 339 342 342 339 347 343 342 343 345 344 344 345 343 338 336 336 337 339 340 341 342 339 338 338 337 337
295 295 296 297 297 297 297 299 299 302 305 305 307 309 311 311 310 312 311 319 321 326 338 341 341 342 344 345 344 341 342 343 343 342 342 345 342 338 338 339 340 341 341 342 341 341 338 336 336
296 292 294 294 296 295 298 296 297 302 303 302 304 307 311 310 310 312 314 312 322 321 332 341 342 344 344 347 348 346 343 342 342 343 343 344 344 341 339 339 341 342 342 342 342 340 338 337 337
291 289 285 292 296 298 296 291 298 302 301 302 303 303 304 307 311 310 311 312 317 320 327 337 344 343 342 347 347 345 344 343 342 343 344 344 344 345 345 342 341 341 339 338 334 333 329 333 333
286 283 286 290 295 296 294 291 298 301 301 300 301 302 302 302 305 309 313 312 316 321 320 328 337 337 339 340 343 343 344 342 342 341 342 346 346 346 343 344 343 342 340 337 335 333 330 329 329
284 285 288 288 293 294 291 291 295 298 299 300 299 300 302 304 304 308 309 310 317 321 320 321 328 333 336 338 339 340 341 341 343 342 340 341 347 348 347 343 343 341 338 337 333 331 332 331 329
291 289 289 292 297 293 291 291 294 296 297 297 297 298 299 301 306 307 311 315 318 319 319 320 323 326 334 336 334 334 335 336 338 341 344 342 340 348 347 345 342 342 339 336 335 332 330 330 332
293 289 288 292 295 293 292 291 295 296 296 297 298 298 298 299 302 307 311 315 317 318 319 321 321 324 325 324 323 324 326 334 336 339 342 344 343 341 344 345 342 340 339 338 336 333 329 329 335
292 289 288 289 293 293 291 288 291 295 297 299 299 299 300 300 300 305 310 311 313 315 317 319 320 320 321 322 319 319 320 321 326 330 333 340 345 343 339 341 342 340 338 337 334 334 332 328 332
287 294 293 292 288 282 290 282 287 292 293 296 298 297 298 299 302 302 309 308 312 313 314 314 314 315 317 322 320 317 315 314 316 319 324 328 330 331 342 340 340 339 338 337 334 335 333 331 328
291 296 293 292 287 284 286 282 285 290 291 294 296 298 299 301 301 301 308 311 314 313 312 313 313 313 314 318 319 319 318 319 320 322 321 321 323 329 340 342 339 339 336 337 335 335 336 336 333
297 292 290 287 284 279 284 283 285 288 291 293 298 299 301 302 303 301 309 314 312 311 310 310 312 312 313 314 315 315 316 316 318 318 318 322 325 325 329 334 341 339 339 338 338 338 336 337 338
292 285 281 279 279 280 286 284 287 291 295 297 298 299 299 300 303 306 310 310 310 308 308 310 310 310 312 314 314 315 314 314 316 317 318 318 320 322 324 329 331 335 340 340 340 338 338 338 338
289 289 282 277 276 282 287 281 288 295 298 300 301 300 299 300 302 304 308 309 309 309 307 311 309 309 313 314 314 316 315 316 317 318 319 320 321 323 323 323 329 333 336 340 342 342 339 339 340
290 287 292 287 287 279 283 288 293 297 297 299 299 299 298 302 303 304 305 307 309 306 307 310 311 310 312 315 315 315 318 317 316 316 317 318 319 324 326 326 327 331 333 334 339 342 341 342 341
293 295 285 284 280 278 283 284 285 291 293 297 297 296 297 298 302 301 304 306 307 306 307 309 311 311 311 314 316 317 318 316 316 315 315 316 318 319 321 323 325 327 329 331 333 335 341 341 343
290 288 290 289 284 281 279 280 292 292 294 295 296 298 296 297 300 302 303 304 301 302 305 309 309 310 311 313 316 315 315 316 316 317 317 318 318 319 321 323 324 325 325 324 325 325 332 334 338
294 289 288 280 280 286 283 283 296 297 298 298 298 300 300 302 301 302 302 304 304 302 301 304 309 310 311 311 314 313 312 311 311 311 313 316 317 319 321 324 325 326 327 326 325 324 327 334 333

GFSSGP_sfc_thetae_093.txt.gz
Theta_e
323 317 313 310 304 301 299 302 307 310 310 313 312 314 315 317 316 308 334 343 349 354 359 361 363 363 362 360 360 359 358 359 359 360 360 360 360 360 359 358 357 353 350 348 345 342 341 340 339
319 315 311 303 298 296 300 310 308 310 313 314 310 312 314 316 325 332 335 344 350 355 359 358 362 362 362 360 359 358 358 359 359 360 360 360 359 359 357 357 355 351 349 345 344 342 341 340 339
310 316 305 296 295 296 300 310 305 308 313 312 308 313 315 317 325 333 336 346 350 354 358 358 362 361 361 360 359 358 358 359 359 360 360 360 359 358 357 357 355 351 347 345 343 342 341 340 339
307 308 304 295 293 297 304 302 306 307 312 313 311 309 314 318 320 330 345 347 348 352 356 360 361 361 361 360 359 358 359 359 359 359 359 358 357 358 357 356 355 353 347 345 344 343 342 341 338
306 302 294 292 296 299 303 305 305 307 311 310 311 309 311 316 320 340 341 346 345 349 353 360 361 361 360 360 359 359 359 359 359 359 358 358 357 356 356 356 353 351 348 346 345 343 344 343 342
299 300 291 291 295 301 303 304 305 306 312 313 310 309 310 316 316 335 341 341 344 347 354 358 361 360 360 359 358 358 358 358 358 359 359 358 357 356 356 355 354 353 350 349 347 346 346 345 343
296 293 291 291 296 298 302 305 303 305 306 309 314 308 310 313 315 331 341 340 340 346 354 356 357 359 361 359 358 358 357 357 357 358 358 358 357 356 356 356 355 354 352 351 350 349 347 345 344
299 294 291 292 292 295 302 302 301 301 304 312 317 308 306 312 316 333 337 338 338 347 351 354 355 357 356 356 359 358 358 357 357 357 357 357 357 356 356 353 354 354 353 351 351 350 349 347 346
299 289 288 291 294 296 299 299 303 307 306 307 312 313 316 316 316 337 336 338 342 344 346 352 352 353 353 355 357 358 358 358 357 357 357 354 352 352 351 353 353 354 354 353 352 351 350 348 347
293 288 290 295 296 296 298 298 300 303 303 304 306 311 316 316 313 331 334 335 338 341 343 350 351 351 352 354 355 354 355 354 353 353 352 349 347 347 349 351 353 354 354 353 352 351 350 349 339
292 290 294 296 298 299 298 299 301 301 300 302 303 307 312 314 311 319 332 337 338 341 343 346 348 350 350 351 353 352 354 354 354 352 352 345 345 345 347 343 346 344 350 344 347 346 344 341 339
289 295 296 297 299 297 298 300 299 300 301 305 307 309 313 312 310 311 315 329 338 340 341 344 347 347 346 350 350 350 351 351 351 351 347 343 341 340 339 339 338 339 340 341 341 341 340 340 339
290 293 296 298 297 296 299 297 298 299 303 305 309 310 310 310 310 310 315 320 329 336 339 341 343 345 343 346 346 347 348 348 348 347 348 346 340 338 335 337 336 336 338 340 339 339 338 337 338
293 293 294 295 295 295 295 297 297 299 303 304 304 304 306 310 310 309 314 322 326 333 339 340 341 342 342 345 345 344 345 345 341 344 345 345 342 336 334 333 334 336 338 339 339 338 337 336 335
293 290 292 292 294 294 296 294 295 300 302 301 302 303 304 307 310 310 312 320 324 331 337 339 340 340 340 344 343 342 342 341 341 341 341 344 341 338 334 333 335 336 338 339 340 340 339 336 336
289 287 283 290 293 295 294 288 296 300 299 299 300 301 303 305 309 309 311 315 319 326 335 338 341 340 340 342 343 343 342 343 341 341 341 342 343 342 338 335 335 338 339 339 337 337 334 334 334
285 281 283 288 293 294 293 289 295 298 297 297 298 299 301 301 303 304 309 310 312 321 332 336 339 339 341 342 345 345 344 342 343 342 342 342 343 344 343 342 342 339 338 336 335 333 330 328 328
282 283 286 286 292 292 290 290 293 296 296 296 296 297 298 300 302 304 305 309 311 317 321 332 334 337 337 341 339 339 339 339 342 342 342 344 344 346 343 341 341 342 339 338 335 332 331 330 328
289 287 287 290 294 291 290 290 292 295 294 294 296 296 297 298 301 305 306 307 312 316 317 324 329 330 334 334 333 332 335 334 335 337 340 340 341 345 345 344 343 341 339 337 336 333 331 329 330
290 288 287 291 294 291 290 290 292 293 294 295 296 297 297 297 299 302 305 310 314 316 317 318 325 329 331 330 325 325 325 332 334 336 338 338 338 338 341 343 342 341 339 337 336 333 330 329 330
289 287 288 288 291 291 289 287 290 293 294 296 297 298 298 298 298 299 303 308 312 314 315 317 320 325 326 323 319 318 319 320 324 328 333 339 339 335 332 333 339 343 339 339 334 334 332 329 330
286 292 292 290 287 282 289 282 286 290 292 294 295 295 296 297 298 298 301 305 311 314 315 317 318 319 321 320 317 317 317 317 316 317 319 325 338 339 335 335 339 342 340 338 335 335 334 331 328
289 294 291 291 286 282 284 280 284 289 289 292 293 295 296 297 298 299 300 304 310 313 315 317 315 314 317 318 317 316 314 315 316 318 319 318 320 325 329 337 339 339 338 337 336 334 333 332 330
295 291 288 285 282 278 284 283 284 286 290 291 294 296 299 299 299 302 305 303 309 313 311 310 310 310 311 315 316 316 315 315 315 315 316 316 318 322 324 327 335 338 337 337 337 335 333 333 333
290 283 278 277 277 280 286 283 285 289 293 294 294 296 298 298 300 304 302 305 310 310 309 310 309 308 310 310 312 313 313 312 313 314 314 314 315 317 318 320 323 329 337 338 338 336 335 335 334
289 287 281 276 276 281 287 281 285 293 295 296 298 298 298 298 299 303 305 306 307 306 306 309 308 308 309 310 310 311 311 311 312 313 314 316 317 318 321 320 321 323 329 334 337 335 336 336 335
290 286 290 284 283 280 282 286 292 295 295 297 297 298 297 298 298 302 303 304 306 307 308 309 310 308 310 312 311 311 312 312 313 314 314 316 316 319 319 321 322 324 327 330 332 334 334 337 337
293 295 284 283 279 277 281 283 283 289 291 295 296 296 297 298 298 299 301 304 306 305 304 305 308 309 310 312 312 313 314 315 315 314 314 314 315 316 318 319 320 321 323 325 326 327 331 332 332
290 289 290 289 286 281 279 280 288 291 292 293 295 297 298 299 299 299 300 302 303 303 305 305 306 308 307 309 311 312 314 316 315 313 314 313 314 315 316 318 319 320 321 321 321 323 324 326 328
294 290 291 284 283 285 284 280 293 292 295 296 296 299 301 302 301 301 300 303 304 304 304 302 307 308 309 310 310 313 314 315 315 315 314 314 314 315 317 318 319 321 322 322 322 322 324 326 326

GFSSGP_sfc_thetae_096.txt.gz
Theta_e
324 314 313 309 303 301 296 300 305 308 308 313 312 312 313 315 315 308 333 342 350 352 358 360 362 362 361 360 360 360 360 360 361 360 360 360 360 360 360 359 358 354 350 348 346 344 341 340 340
313 314 310 303 298 297 299 306 305 307 309 314 310 309 313 314 324 330 334 345 350 354 356 357 361 361 361 359 359 359 359 359 360 360 359 360 359 359 357 357 355 352 349 346 344 343 341 340 339
308 313 304 297 295 297 301 306 302 305 312 311 307 312 313 315 323 331 336 348 352 353 356 357 362 360 360 359 358 358 359 359 359 359 359 359 359 358 357 356 355 351 348 345 344 343 342 340 339
306 307 302 295 292 298 303 301 305 306 312 310 309 308 312 317 319 329 344 349 350 353 355 360 361 360 360 359 358 358 359 359 359 359 359 359 358 357 356 355 354 352 348 346 345 343 342 341 339
305 301 295 292 295 299 302 302 303 305 309 309 309 307 309 315 330 341 344 348 348 351 353 358 360 360 360 359 358 358 358 358 358 359 358 358 357 356 356 355 353 351 349 346 345 344 344 344 342
298 299 291 290 295 300 302 303 302 303 306 311 310 308 308 315 321 337 343 343 349 350 353 357 360 360 359 359 358 357 357 357 357 358 358 357 356 356 355 354 353 352 351 350 347 347 346 345 343
297 293 290 291 295 298 302 303 299 299 300 304 311 307 309 312 315 337 339 341 346 351 354 355 356 358 359 358 357 357 357 356 356 356 356 356 356 356 355 355 354 354 352 351 350 349 347 345 344
298 294 291 291 293 295 300 301 299 300 301 308 311 306 304 312 321 332 336 336 342 350 352 352 354 356 353 354 358 358 357 356 356 356 356 355 355 356 355 353 354 354 353 351 350 350 348 346 345
297 289 288 292 292 294 298 296 301 304 302 304 307 310 314 315 334 334 333 336 341 346 350 351 352 353 354 352 355 357 358 357 357 356 356 353 350 352 352 352 352 354 354 352 351 349 349 348 347
293 288 291 295 296 294 297 296 298 300 301 300 303 307 313 318 327 331 332 332 336 340 347 350 350 351 351 354 353 352 352 353 353 353 352 349 347 347 349 351 353 354 354 353 352 350 350 349 343
290 289 292 295 297 298 296 298 299 298 296 300 301 303 307 312 313 328 332 334 336 340 345 348 349 350 350 352 352 353 353 353 351 351 350 348 347 346 348 346 348 348 350 347 349 348 347 344 342
288 293 294 294 296 295 295 298 296 299 300 303 304 305 308 309 309 318 329 334 335 339 342 347 348 347 348 349 349 350 351 352 351 351 351 347 345 342 342 342 342 342 343 342 343 343 344 342 343
288 291 294 296 295 294 296 295 295 296 301 303 303 304 309 309 309 309 317 331 336 337 340 345 347 346 347 348 349 348 348 349 350 350 349 348 345 343 341 341 340 338 340 340 341 342 342 341 341
292 291 292 293 294 293 293 294 295 298 302 301 302 301 301 309 310 309 312 321 332 337 339 342 345 346 346 348 347 346 348 349 348 348 349 348 346 343 340 339 338 338 339 340 341 341 341 340 340
291 288 290 292 293 293 294 293 293 298 300 300 300 301 301 303 308 310 311 320 326 332 338 339 341 344 344 346 345 345 346 347 344 343 343 346 344 341 340 337 336 335 338 339 341 341 341 340 340
287 285 282 289 292 294 293 287 295 296 296 297 298 299 300 301 305 308 310 314 320 327 335 337 341 340 341 343 343 343 342 343 344 344 342 342 344 342 338 336 335 337 338 340 340 340 340 339 339
284 279 281 287 291 291 290 287 294 297 296 295 296 297 298 299 301 303 308 310 313 321 330 334 338 338 339 339 342 341 340 340 341 342 341 341 342 343 341 339 339 340 339 339 339 338 336 333 333
280 281 284 285 290 289 288 288 292 295 294 295 295 296 296 298 299 302 305 305 308 313 324 332 336 338 337 337 339 340 340 340 340 341 341 342 342 343 343 343 343 343 342 341 339 338 336 334 333
288 285 285 289 293 289 289 289 292 294 293 293 294 295 296 297 300 301 303 306 307 309 316 327 331 333 337 336 336 336 338 339 338 341 342 343 343 344 343 343 342 342 341 340 340 338 336 334 334
288 286 285 289 292 289 289 288 291 292 293 294 295 295 296 296 298 300 301 303 308 311 313 319 328 329 336 339 332 334 333 334 336 337 339 341 343 345 344 341 340 342 341 340 340 337 335 333 333
287 285 286 287 290 289 287 285 288 292 293 295 295 296 296 297 297 299 299 301 305 309 313 316 324 330 333 332 324 321 323 326 331 334 336 339 340 339 340 338 335 341 341 339 339 337 335 334 334
284 291 291 289 285 281 287 281 286 289 291 292 294 294 295 296 297 297 298 299 302 307 311 315 317 327 332 328 326 322 323 321 325 328 328 336 339 338 336 334 332 336 339 338 338 337 336 334 332
288 292 290 289 285 281 283 280 283 287 288 291 293 294 295 296 296 297 299 300 301 305 309 315 317 321 325 326 328 321 318 319 318 320 321 322 328 335 337 337 336 338 339 340 340 338 335 335 334
294 289 287 283 281 277 283 282 283 285 289 291 294 294 296 296 298 299 301 304 305 303 308 313 316 318 319 321 320 320 319 318 317 317 318 319 320 322 325 328 335 339 338 336 337 337 335 335 335
290 283 277 276 277 280 285 281 284 289 292 293 293 295 297 298 297 298 302 305 304 304 309 312 314 313 316 317 317 318 318 317 317 316 316 316 317 319 322 326 328 331 336 337 338 335 334 335 334
287 285 279 275 275 280 285 280 285 291 295 296 299 298 298 298 298 297 303 306 306 308 309 310 310 309 310 312 313 314 315 314 313 314 314 315 316 318 321 322 323 325 329 332 337 337 334 336 334
290 286 290 283 281 278 282 285 291 294 295 296 297 298 297 298 298 297 300 304 306 305 306 308 309 309 311 311 311 311 311 311 311 313 314 315 317 319 320 322 322 325 327 330 331 333 335 338 336
293 294 285 285 278 276 279 281 283 289 291 294 294 295 295 298 299 299 300 301 304 305 305 306 309 308 311 313 313 312 312 312 312 313 314 316 317 317 320 321 323 323 325 326 327 327 330 333 335
290 289 289 288 286 280 279 280 289 289 291 293 293 294 294 296 298 299 300 301 302 303 305 306 307 310 310 309 312 311 313 313 314 314 315 316 316 317 318 319 320 321 322 324 324 324 326 326 327
295 291 290 284 283 286 284 281 292 292 294 294 294 295 296 297 299 301 301 302 302 303 303 303 309 310 310 310 310 311 313 314 314 315 315 316 316 316 317 319 320 321 322 323 322 323 327 326 326

GFSSGP_sfc_thetae_099.txt.gz
Theta_e
325 317 322 320 310 312 307 309 313 311 313 318 320 320 321 323 320 319 343 346 348 357 361 360 362 362 362 363 363 363 363 362 362 361 361 360 361 361 361 361 360 357 353 350 348 345 343 343 346
316 320 319 314 307 303 306 311 307 310 313 317 318 318 320 321 330 336 342 347 350 358 361 358 361 361 361 361 361 362 362 362 362 361 360 360 361 361 360 359 357 354 350 348 346 344 342 341 340
314 318 313 308 306 303 306 306 308 311 315 317 315 318 319 320 327 337 345 351 352 358 360 359 361 361 360 360 360 360 361 361 361 361 360 360 360 359 358 357 356 353 349 347 345 344 344 342 341
313 316 311 304 300 304 309 307 309 310 315 317 316 314 318 322 323 335 349 352 352 355 359 361 361 360 360 360 359 359 360 360 360 360 359 359 359 358 357 356 355 353 350 346 345 345 344 343 341
313 311 304 302 300 303 306 308 310 309 309 312 316 313 317 321 336 347 351 352 350 354 358 360 360 360 360 359 359 359 359 359 359 359 359 359 358 357 356 356 355 353 352 349 346 344 345 344 341
307 309 299 297 300 303 307 309 309 308 309 311 311 313 317 323 336 347 350 351 351 353 358 360 360 359 359 359 358 358 358 358 358 358 358 358 357 356 356 356 354 353 352 351 348 347 346 345 343
304 304 298 298 299 301 305 309 307 306 308 308 312 309 318 321 324 347 350 352 352 353 357 359 358 359 359 358 358 357 358 357 357 357 356 356 356 356 355 355 355 354 352 351 350 348 347 345 344
305 305 298 299 297 298 305 307 308 307 306 311 313 310 312 320 331 344 346 350 350 352 353 357 358 355 354 355 358 357 357 357 357 357 356 355 355 356 355 353 354 354 353 351 351 349 348 346 345
305 299 296 297 297 300 305 303 307 309 306 308 311 311 314 321 336 341 341 343 346 348 352 355 356 356 355 353 355 357 356 357 357 356 357 353 349 351 351 351 354 355 353 352 350 350 349 348 347
302 298 298 301 303 301 302 303 303 304 305 306 308 312 314 321 335 337 338 338 340 344 349 353 356 356 355 351 354 353 353 353 352 352 354 352 353 353 351 352 352 353 353 352 352 351 350 347 345
299 298 300 301 303 304 302 302 304 302 302 305 305 309 312 313 328 335 339 340 341 343 347 351 356 357 355 352 353 353 352 354 355 355 356 356 352 353 350 350 350 352 352 349 349 348 348 348 349
297 300 301 301 302 301 300 303 301 303 305 309 308 310 310 313 317 328 337 340 342 344 347 351 354 356 356 354 354 353 352 353 352 354 357 355 352 352 351 349 349 351 350 349 349 346 350 351 351
297 298 299 301 301 300 301 300 301 302 307 308 308 308 310 313 319 320 330 340 343 343 347 350 353 355 356 355 354 354 353 353 354 355 356 354 352 350 351 351 350 349 348 347 348 349 350 350 351
300 299 300 300 301 300 299 301 301 304 307 307 307 308 308 310 316 319 320 327 339 345 347 349 351 355 355 356 357 356 356 355 355 354 354 352 354 354 352 351 349 349 348 346 347 348 349 349 350
299 296 298 300 301 301 301 299 299 305 306 306 307 308 308 310 311 316 323 326 336 345 349 349 350 353 354 354 355 355 354 354 353 351 353 355 356 355 354 350 349 348 347 347 347 348 349 349 350
295 295 293 298 298 299 300 295 301 304 303 304 305 306 307 309 310 313 318 325 330 341 346 349 349 350 351 352 353 352 352 352 353 350 352 352 356 356 353 348 347 346 345 343 344 346 348 348 349
293 290 291 293 298 297 298 295 302 304 303 304 305 306 306 308 312 315 314 318 324 332 340 347 349 349 351 353 351 352 352 351 351 349 345 351 350 352 352 349 346 346 343 343 345 347 347 346 345
289 289 291 292 298 298 297 297 301 304 303 303 305 306 307 308 311 314 314 315 319 323 330 341 347 349 350 350 350 348 348 349 349 348 347 349 348 348 349 349 347 346 344 346 347 348 348 346 346
293 292 292 295 298 295 297 297 300 303 303 303 304 306 307 309 312 313 314 315 317 322 323 330 338 347 347 345 343 344 343 345 345 348 350 349 349 348 349 347 349 351 349 349 349 352 349 345 346
293 292 292 295 298 296 297 296 300 301 302 304 304 306 307 309 310 312 315 316 316 321 325 326 332 343 346 346 347 347 347 347 347 347 348 349 349 350 351 350 350 348 349 346 346 343 342 343 345
293 292 292 292 297 297 295 294 297 300 301 303 305 306 307 307 308 311 313 315 316 317 323 326 330 338 344 348 348 343 347 345 345 346 347 348 349 350 352 352 350 349 347 335 335 344 342 338 343
291 296 295 294 292 289 295 286 295 299 299 302 304 306 306 307 309 310 310 313 315 316 318 323 328 332 339 347 345 344 342 340 343 346 348 350 350 349 350 351 344 344 342 345 342 339 343 346 341
293 296 295 295 293 292 292 289 293 296 296 300 303 305 307 306 307 307 309 312 314 316 317 321 325 329 335 343 346 345 345 345 345 347 350 349 349 349 347 347 347 345 343 345 346 347 345 345 342
298 296 296 293 291 285 291 290 291 295 297 300 302 303 306 307 309 310 311 313 314 317 318 319 321 327 329 337 342 346 346 344 336 338 340 342 344 346 348 347 347 345 343 343 343 347 347 345 344
297 293 286 285 285 285 294 290 293 298 300 301 301 304 306 307 308 309 309 309 314 318 319 320 320 321 325 328 336 341 345 343 339 336 337 335 333 333 336 340 340 342 347 347 346 346 346 345 342
295 293 287 281 283 286 293 287 293 300 301 303 304 305 305 305 307 308 310 311 312 315 319 319 320 321 323 324 329 336 338 338 338 336 334 332 331 333 337 337 338 338 339 342 345 343 341 344 341
294 290 296 290 291 286 289 293 298 300 300 301 302 303 303 304 306 307 309 312 313 314 316 318 318 320 322 323 328 332 333 333 331 333 332 330 331 328 331 332 333 334 334 336 338 337 341 343 344
296 298 289 290 282 281 287 289 290 296 297 299 300 301 302 304 305 307 309 311 313 314 315 316 317 318 319 322 325 327 327 327 327 327 326 327 327 328 329 330 331 332 333 335 338 336 338 339 339
294 292 293 292 290 283 283 288 298 297 298 297 299 300 302 304 306 308 310 311 311 313 313 314 316 317 319 319 321 321 320 320 321 323 325 327 329 329 328 328 328 329 330 332 333 333 333 334 335
296 293 293 287 286 288 288 288 298 299 298 299 300 302 304 304 306 309 309 309 310 310 311 311 313 312 315 319 320 320 321 321 322 322 323 326 328 329 327 326 326 327 327 329 330 329 328 330 331

GFSSGP_sfc_thetae_102.txt.gz
Theta_e
330 323 326 323 314 316 313 316 319 317 318 322 323 324 325 328 325 324 348 347 346 353 361 360 363 364 364 366 365 364 363 362 361 361 361 360 361 362 362 361 360 358 354 351 349 346 346 348 350
322 322 324 319 311 310 313 317 317 317 319 322 322 322 325 325 334 341 344 346 350 355 361 357 362 363 364 364 364 363 363 362 362 361 361 361 361 361 360 360 358 356 351 349 346 344 343 344 347
319 321 316 313 310 309 312 314 315 317 322 321 319 323 324 326 332 341 350 348 352 356 359 359 361 362 363 363 363 363 363 362 362 362 361 361 361 361 360 360 358 353 350 347 345 343 342 341 340
318 319 317 307 306 311 315 314 315 316 320 322 321 317 325 330 330 341 351 350 353 354 356 360 361 361 362 361 362 362 362 363 363 362 361 361 361 360 359 358 357 354 349 347 345 344 342 341 339
318 315 307 306 306 308 314 316 315 314 316 318 320 317 321 330 344 348 352 352 352 352 355 362 360 361 361 361 361 361 362 361 361 361 361 360 360 358 357 356 354 352 350 348 346 344 343 341 339
310 312 303 302 304 307 311 314 314 313 314 317 316 316 322 331 341 349 353 353 351 351 355 360 360 359 359 360 360 359 359 359 360 360 359 359 358 357 356 356 354 353 352 349 347 345 344 343 340
307 305 301 303 304 307 310 314 312 312 312 313 316 314 323 327 331 349 352 354 351 352 354 360 357 358 359 359 358 358 358 358 358 358 358 358 358 357 356 356 355 354 352 349 347 345 344 343 342
311 307 301 302 300 302 310 312 313 312 311 315 316 315 318 320 328 343 351 353 351 351 352 358 357 354 354 354 359 358 358 358 358 358 358 357 356 355 354 354 354 352 350 349 348 346 345 345 344
312 303 300 301 301 302 309 307 311 312 310 312 315 315 317 319 333 340 346 349 349 348 350 355 355 355 353 353 354 357 357 358 358 357 357 354 349 350 351 350 354 352 350 348 348 348 349 347 347
307 303 303 306 306 305 306 306 307 307 308 310 313 317 318 318 328 333 340 342 345 345 347 352 356 356 354 349 354 353 350 351 353 353 354 352 347 348 346 350 351 351 351 350 349 349 349 347 346
306 303 306 306 307 308 306 305 308 305 305 309 310 314 316 317 320 331 334 340 342 346 348 351 356 360 356 352 352 350 348 348 350 353 355 353 347 351 350 348 349 349 351 347 349 348 349 351 352
301 306 306 306 307 306 305 307 305 307 308 311 311 313 315 316 318 321 330 334 342 345 348 352 356 360 360 354 351 351 348 348 348 349 354 352 350 352 348 345 346 350 348 348 349 346 352 355 356
302 304 305 306 306 305 306 304 305 306 310 312 312 312 313 314 316 322 325 329 340 345 348 352 355 359 360 359 353 353 352 350 352 351 354 352 349 350 350 349 347 346 345 346 345 348 353 354 355
305 305 304 305 306 306 304 305 305 308 311 311 311 312 313 314 315 318 323 327 332 344 348 353 356 360 360 361 361 357 356 354 353 352 353 357 354 354 350 351 349 349 346 344 344 346 349 351 353
304 301 304 305 306 305 307 302 303 308 309 309 310 311 312 313 315 316 319 325 331 336 348 353 356 358 361 359 358 360 356 355 353 353 357 358 358 358 357 352 351 351 352 351 348 348 348 350 352
301 301 298 304 303 304 303 298 305 308 308 308 309 310 311 313 314 317 320 323 328 336 344 353 353 356 360 360 359 357 355 355 354 353 355 358 358 360 361 353 353 354 353 350 345 342 342 346 348
300 295 297 299 303 302 301 299 305 308 308 307 309 310 311 312 315 318 321 322 325 330 340 351 357 355 358 360 358 358 359 356 354 356 355 356 357 359 360 352 355 358 349 346 344 343 347 347 351
295 295 296 296 301 302 300 301 304 307 307 308 309 310 311 312 313 317 320 322 323 326 331 339 349 357 359 358 358 355 354 354 353 353 353 356 357 356 357 353 355 352 347 344 344 348 353 352 350
298 296 296 299 302 301 300 301 304 307 307 307 308 309 310 312 315 317 319 321 322 326 330 333 335 351 355 353 352 351 349 351 351 352 353 352 349 350 354 350 351 351 347 349 354 353 354 349 350
297 296 297 300 302 301 301 300 304 306 307 308 308 309 310 312 314 315 317 319 322 325 329 332 336 339 350 351 352 350 349 350 352 353 354 352 351 351 349 349 349 352 345 352 355 355 345 345 350
297 296 297 297 300 302 300 298 301 305 307 308 309 310 311 311 312 314 316 318 321 323 326 329 334 338 341 351 349 351 352 352 350 351 351 352 352 352 351 352 354 354 353 352 353 350 346 335 338
295 300 299 298 297 293 301 291 299 303 304 306 308 309 311 312 313 314 315 317 319 320 323 327 330 335 337 344 347 355 347 343 346 350 351 352 352 351 351 353 354 358 354 355 352 349 347 344 335
297 300 299 298 297 297 297 294 298 304 301 304 307 309 311 312 312 314 316 318 319 321 322 325 329 333 336 339 346 345 348 342 343 345 355 357 357 352 351 354 355 355 353 356 351 350 350 339 335
302 299 300 300 298 291 296 295 296 300 303 305 308 308 309 311 313 314 317 318 318 320 322 326 329 330 333 336 338 345 349 349 341 344 345 348 352 354 355 354 355 355 351 349 348 352 351 347 345
301 297 291 290 291 290 299 296 298 303 305 306 306 308 310 310 311 312 314 315 317 319 322 325 327 328 331 332 333 335 343 350 354 353 345 350 347 347 355 355 354 352 353 352 351 351 350 349 347
299 299 292 285 287 291 298 293 298 304 306 307 308 309 309 309 310 311 312 314 316 318 320 321 324 326 329 330 331 332 334 335 341 348 344 344 344 346 354 353 353 353 351 351 352 348 348 351 346
298 296 300 294 295 291 294 299 303 305 305 305 306 306 307 309 310 310 312 314 315 317 319 320 322 325 328 329 331 332 332 334 338 348 349 346 350 342 345 346 346 346 345 345 348 345 346 347 348
299 302 293 294 286 285 292 293 295 299 300 303 304 304 306 309 309 310 311 313 315 316 318 320 321 321 324 326 328 330 332 334 339 342 343 343 341 340 330 337 340 339 339 340 342 340 341 342 342
296 295 296 295 294 287 286 291 301 301 303 303 303 305 307 307 308 309 311 313 315 316 316 318 319 319 319 322 326 327 330 330 334 336 338 335 334 331 329 329 328 329 330 333 336 337 334 335 338
300 297 296 289 290 294 292 291 304 304 304 304 304 306 307 308 308 309 311 313 313 314 315 316 317 316 318 320 321 324 326 326 326 327 329 331 332 331 329 328 328 327 327 330 331 331 329 330 332

GFSSGP_sfc_thetae_105.txt.gz
Theta_e
331 327 326 324 315 318 314 315 322 319 319 324 325 322 324 330 328 325 349 345 347 355 359 360 364 366 367 367 366 364 363 362 363 362 361 361 362 362 361 361 360 358 354 351 349 348 349 350 351
324 323 323 320 312 311 314 320 319 322 324 324 324 323 323 326 338 342 342 345 349 356 360 358 363 365 366 366 365 364 363 362 362 362 361 361 362 362 360 360 358 356 351 349 346 345 346 348 350
325 322 316 314 312 310 311 321 321 321 323 324 322 324 326 328 336 343 348 348 350 355 358 361 363 364 366 366 365 364 363 363 363 362 361 361 362 362 361 360 357 353 350 347 344 343 342 342 343
319 319 317 309 309 315 316 321 319 320 323 325 324 320 326 334 334 345 348 349 351 351 354 360 362 363 365 365 363 364 363 363 363 362 361 361 362 361 361 358 356 353 350 346 345 343 342 340 338
317 315 309 308 309 314 316 321 320 319 320 321 322 320 323 335 342 348 348 349 351 350 352 361 361 362 363 364 364 363 363 363 362 362 362 361 361 360 358 357 354 352 349 347 346 344 342 340 338
311 312 303 304 308 313 314 319 319 319 320 320 320 320 325 336 341 345 349 350 352 351 353 361 360 361 362 363 362 362 362 362 362 361 361 360 359 358 356 354 353 351 349 347 345 344 343 341 338
308 308 304 305 305 309 313 318 315 317 318 317 321 317 325 328 337 346 348 350 350 352 353 359 355 358 361 361 361 361 360 360 360 360 360 360 357 356 355 353 351 351 349 347 346 344 343 342 341
310 309 304 305 303 304 313 316 317 315 315 320 318 316 320 323 330 345 347 348 348 350 352 356 355 352 353 356 360 360 360 359 359 359 359 358 356 355 354 354 353 351 349 348 346 345 344 343 345
314 305 300 303 304 306 312 309 315 317 314 315 318 320 323 322 329 335 342 344 345 347 351 356 353 352 351 350 354 358 358 359 359 358 358 355 350 352 352 349 354 352 350 348 347 347 347 347 348
308 304 304 308 309 307 309 309 311 310 310 312 314 319 322 323 324 331 336 338 341 343 346 353 355 354 353 349 355 350 350 352 353 353 355 351 349 349 344 350 354 352 351 350 350 350 350 347 343
308 304 309 308 309 310 309 308 310 308 305 311 312 316 320 321 323 327 332 336 339 342 344 348 357 361 354 350 352 350 346 346 348 351 358 356 348 348 345 348 348 348 351 345 347 348 347 348 351
304 308 309 309 310 309 307 310 308 309 309 312 313 315 316 318 320 324 329 332 335 341 345 348 355 360 362 353 350 351 344 345 345 348 360 358 350 354 352 344 346 350 346 348 349 344 348 352 355
306 307 309 309 309 309 309 307 307 308 312 314 314 314 314 316 319 322 326 329 333 337 345 348 354 362 366 367 354 353 350 346 346 348 354 352 348 354 351 351 345 347 345 346 345 344 349 353 355
308 307 308 308 308 308 306 307 308 309 313 312 313 313 315 317 318 319 321 325 328 335 345 349 352 366 362 363 366 359 358 350 348 347 351 357 352 357 348 350 347 346 345 344 345 346 349 353 352
308 304 306 307 308 307 309 304 305 310 312 311 312 313 315 316 318 318 321 324 329 332 343 350 354 361 367 364 364 362 355 353 350 351 359 360 359 361 357 348 348 346 349 353 350 347 350 345 346
304 304 300 306 307 308 307 300 308 312 311 310 311 312 313 315 317 319 321 323 326 330 336 344 347 353 363 365 364 359 357 356 352 352 350 359 358 359 358 352 351 353 352 349 347 344 341 343 344
303 297 300 302 307 305 304 301 307 310 310 310 311 312 313 314 317 320 321 322 325 327 333 340 350 351 357 365 363 364 365 358 356 356 353 362 361 358 356 355 353 357 354 353 350 344 344 343 350
298 299 300 300 305 304 302 302 306 309 309 310 311 312 313 313 315 319 321 322 324 327 331 334 342 358 362 360 364 359 358 357 357 355 356 362 358 355 360 354 358 359 352 349 347 350 345 347 350
302 300 299 302 305 302 303 303 306 309 309 309 310 311 313 314 317 319 320 322 323 327 328 333 336 352 356 354 352 353 351 353 353 355 361 361 358 357 362 353 357 359 355 352 356 349 352 346 355
301 298 299 302 305 304 303 302 306 308 309 310 310 311 312 314 315 317 319 321 322 325 329 332 335 343 348 347 355 354 354 350 351 352 359 359 359 361 360 358 355 358 350 356 356 354 344 348 353
300 299 299 299 303 304 302 300 303 307 309 310 311 312 313 313 314 316 317 319 321 322 326 332 337 342 346 350 348 358 356 353 347 347 350 357 359 359 357 359 356 356 354 347 354 355 355 343 348
297 303 301 299 298 294 303 293 302 305 307 308 310 311 312 313 315 316 317 319 321 322 324 326 331 338 340 349 343 348 343 342 342 343 345 354 361 359 357 357 357 355 351 350 355 356 355 352 340
299 303 301 300 299 298 298 296 300 306 304 307 310 311 313 314 315 315 316 319 321 322 323 326 333 334 337 342 348 339 342 337 341 344 351 356 359 361 357 358 356 358 357 358 359 358 357 348 343
304 301 301 301 299 293 298 298 298 302 305 308 311 312 313 313 314 316 317 319 320 321 323 326 329 333 335 336 340 346 347 346 340 341 342 345 350 355 358 355 357 360 360 359 356 357 357 354 348
303 299 292 291 292 291 301 298 301 306 308 309 309 311 314 314 313 313 315 316 318 320 321 323 325 328 332 333 334 336 342 346 350 347 340 341 343 347 354 356 354 354 359 359 357 356 354 354 350
300 299 291 285 288 292 300 295 301 309 310 310 310 311 312 312 314 313 314 315 316 318 320 321 322 323 327 330 333 335 337 333 334 340 340 342 338 342 341 352 349 348 354 356 357 352 351 355 352
299 296 301 295 297 293 296 300 306 309 309 309 309 310 310 311 312 313 314 315 316 317 319 320 321 323 324 326 330 333 335 337 336 342 344 342 348 346 352 341 340 342 344 353 355 349 350 352 352
301 303 293 295 287 287 292 296 297 303 305 307 307 308 310 311 312 313 313 315 316 318 319 320 320 321 322 323 326 328 331 334 336 341 342 344 349 351 351 342 336 334 343 345 350 349 350 350 344
298 296 297 297 295 289 288 292 304 303 305 307 307 307 308 309 311 312 313 314 315 316 316 318 319 318 319 322 324 325 328 330 333 336 338 343 347 347 342 341 341 340 341 339 340 340 339 338 344
301 298 297 290 291 294 293 293 307 306 308 307 307 307 309 310 310 311 311 312 312 314 315 316 318 318 318 319 320 322 326 329 329 331 334 338 339 340 337 332 331 327 326 328 327 329 330 331 334

GFSSGP_sfc_thetae_108.txt.gz
Theta_e
327 324 324 321 311 313 310 312 317 319 320 325 325 322 320 331 328 326 348 347 352 353 360 363 366 367 366 365 365 363 361 362 362 361 361 361 362 362 362 362 361 358 354 352 351 350 351 351 351
321 321 321 316 308 307 310 318 318 321 322 325 324 322 319 328 339 339 337 350 353 354 358 361 365 366 366 365 364 363 362 362 362 361 361 361 362 362 361 361 359 356 352 350 348 349 349 350 350
322 323 312 310 309 306 310 319 321 323 325 323 322 324 325 328 339 340 343 350 353 354 357 362 365 366 366 366 364 363 362 362 362 362 361 361 362 362 361 360 358 355 350 348 346 346 347 347 347
318 317 314 306 305 312 314 319 323 321 323 324 324 320 328 335 337 345 345 348 352 352 355 361 364 365 365 366 364 363 363 362 362 362 361 362 361 361 360 359 357 354 351 347 346 347 346 344 343
316 313 306 306 307 312 317 322 321 318 321 321 323 320 325 336 342 345 345 347 347 350 358 359 363 364 365 365 364 363 363 362 362 362 362 361 361 360 359 357 355 354 352 349 346 346 346 345 344
308 311 302 302 306 312 316 318 320 319 320 321 319 320 326 337 340 344 346 348 348 353 359 357 362 363 363 364 364 363 362 362 362 361 361 361 360 359 358 356 354 352 351 350 347 347 346 345 345
306 305 303 304 304 307 312 318 315 316 318 318 322 317 325 332 341 344 345 347 349 354 359 356 356 361 363 363 362 362 362 361 361 361 361 360 359 358 357 355 354 353 351 351 349 347 346 346 344
309 306 301 303 304 304 313 315 317 315 315 321 320 314 316 324 332 343 344 344 346 348 357 354 354 354 357 360 362 361 361 361 360 360 360 359 358 357 356 355 354 354 352 351 349 348 347 346 346
312 301 299 301 302 306 312 310 316 319 316 317 317 318 322 324 328 333 339 340 342 344 355 352 349 351 352 354 359 360 361 361 360 360 359 356 353 353 352 351 353 354 353 351 351 350 349 348 348
306 302 302 307 308 307 309 310 311 310 312 312 314 318 321 323 323 327 333 335 338 341 348 352 350 350 349 347 356 357 358 358 358 357 357 354 351 352 347 349 354 354 353 352 351 351 351 350 340
307 302 306 308 310 310 309 308 311 309 307 310 311 315 318 320 324 324 328 334 338 341 343 353 355 354 350 348 354 350 351 353 355 357 357 354 349 351 345 349 347 350 352 346 347 347 344 340 341
303 307 308 308 310 309 308 310 308 309 309 313 313 314 315 316 319 321 324 330 336 338 344 347 357 359 357 352 353 351 346 347 347 349 355 353 351 350 347 348 346 346 345 342 343 343 345 346 353
305 306 308 309 309 309 309 307 307 308 311 312 313 314 313 315 317 321 325 327 328 336 346 347 348 356 357 362 354 353 347 345 345 347 352 353 348 351 352 350 349 347 344 344 346 346 350 350 352
308 307 307 308 308 308 306 306 307 308 312 312 312 312 313 314 315 319 325 326 335 339 347 349 342 346 364 359 362 359 351 349 347 348 351 352 351 349 349 351 353 351 348 348 346 347 347 352 352
308 304 306 306 307 306 308 303 304 309 311 310 311 313 313 315 316 318 322 328 332 343 347 349 343 337 352 361 362 364 358 349 346 347 351 351 353 350 348 347 346 348 352 353 351 349 351 351 349
304 304 298 304 306 307 306 298 306 311 310 309 310 311 313 315 317 321 323 329 340 340 340 351 348 355 361 364 364 362 362 359 355 350 352 352 351 354 354 348 346 347 348 348 347 345 345 343 342
302 296 298 301 307 306 305 300 307 310 310 309 310 311 312 314 318 322 324 329 344 341 343 344 351 351 362 364 363 363 362 361 360 358 353 356 354 352 357 348 351 352 346 344 344 344 342 340 340
296 297 299 299 305 305 303 302 305 308 309 309 310 311 312 313 316 321 324 326 333 333 339 340 342 350 365 364 363 362 361 359 358 357 355 351 355 355 352 355 350 357 349 349 349 347 346 343 342
301 300 299 303 306 303 302 302 305 308 308 308 310 311 313 314 317 322 324 328 331 331 334 341 343 346 351 358 356 357 355 356 356 357 358 357 357 357 356 352 352 354 351 349 351 349 345 341 346
302 299 298 302 304 303 302 301 305 307 308 309 310 311 313 315 316 318 323 328 330 333 337 338 340 350 347 345 357 357 356 353 356 356 356 360 356 356 354 352 351 350 351 355 352 347 341 341 343
300 299 298 298 302 304 302 299 302 306 308 310 311 313 314 314 315 319 321 327 329 332 333 336 343 345 351 347 343 346 354 352 349 350 353 355 358 357 355 353 352 351 351 349 350 349 342 337 344
296 303 301 300 298 293 302 292 301 305 306 309 310 311 312 313 316 318 320 325 326 327 331 337 342 345 342 348 346 344 340 343 344 347 350 352 355 354 355 355 355 353 351 349 348 348 345 341 341
299 303 301 300 298 297 297 294 298 304 303 306 310 312 314 315 316 317 318 322 323 327 329 334 340 340 344 348 348 340 339 337 339 342 346 347 354 354 353 354 350 351 351 350 348 345 345 344 344
304 301 300 300 297 291 295 295 296 300 304 308 311 313 313 314 315 316 318 320 322 324 327 332 334 339 341 344 344 342 342 340 339 340 342 344 342 354 355 354 352 347 350 347 347 348 347 347 347
302 298 290 289 290 290 299 296 300 307 309 310 310 311 313 314 314 314 315 315 321 323 326 325 332 331 335 336 338 340 342 343 341 338 338 340 338 339 347 354 352 346 344 347 346 346 346 348 346
299 298 291 284 287 290 299 293 299 309 311 312 313 312 314 313 314 314 314 316 315 320 324 326 327 325 330 329 333 339 342 335 335 337 336 335 335 335 341 341 344 332 329 332 334 333 338 340 344
298 294 300 294 295 291 294 299 304 308 309 310 310 311 312 313 314 313 314 316 318 321 325 327 327 327 327 325 327 333 337 336 335 338 337 334 336 337 341 340 339 330 325 322 320 327 324 323 332
301 303 292 294 286 285 291 294 296 301 304 308 308 309 311 313 312 313 313 317 319 320 326 325 326 325 325 325 326 325 327 328 335 336 336 337 339 338 337 341 342 328 325 324 327 326 327 323 322
298 296 298 297 294 287 286 291 305 304 306 307 309 309 310 311 311 312 312 315 314 315 315 317 322 322 322 323 325 324 324 325 327 330 333 336 337 339 339 342 341 334 331 330 330 326 326 324 316
302 298 299 291 290 294 292 291 306 307 307 308 308 309 310 310 310 310 311 312 311 313 314 315 321 320 319 320 320 324 325 323 324 325 329 333 333 335 337 339 337 333 331 329 333 321 317 320 316

GFSSGP_sfc_thetae_111.txt.gz
Theta_e
328 316 316 312 301 301 299 305 312 312 316 319 319 316 325 330 329 320 343 352 355 357 362 363 363 364 364 364 363 361 361 361 361 361 361 361 362 363 362 361 360 358 354 352 351 351 352 352 353
321 318 313 306 297 294 300 310 312 317 318 320 320 318 329 328 336 338 342 353 355 357 359 361 363 363 364 364 362 361 361 361 361 360 361 361 361 362 362 360 358 357 351 350 349 350 351 351 352
321 318 305 299 297 296 299 312 314 321 322 320 317 320 325 328 335 334 346 352 355 353 357 362 364 363 363 364 362 361 361 361 361 361 361 361 361 361 360 359 357 355 350 348 346 347 349 349 350
312 307 305 295 295 302 307 313 319 320 321 321 319 319 327 340 340 342 348 351 351 350 358 363 364 363 363 363 362 361 362 362 361 361 361 361 361 360 359 358 356 354 352 347 346 348 347 346 345
308 302 295 293 298 306 310 314 319 319 317 318 319 320 324 337 341 347 348 350 348 351 357 362 363 364 364 364 363 362 361 361 361 361 361 361 360 359 359 357 355 354 353 350 347 348 346 344 343
300 301 292 291 297 306 308 310 316 314 316 317 316 322 324 337 339 339 347 347 348 354 356 359 363 363 363 363 363 361 360 360 360 360 360 360 359 358 357 356 355 354 352 352 350 348 346 343 342
300 296 293 295 298 302 306 310 308 309 313 313 316 314 316 328 337 340 341 348 354 354 353 355 358 362 363 362 361 361 360 360 359 359 359 359 358 358 357 355 354 353 352 351 350 348 347 344 343
302 297 293 296 298 299 307 309 309 309 312 317 318 312 308 317 326 337 340 351 352 352 351 351 354 358 357 359 362 361 360 360 359 359 359 358 358 357 356 353 354 353 353 352 351 349 348 346 345
305 291 290 294 297 300 306 304 309 315 313 314 313 315 318 320 324 322 332 343 350 352 349 349 349 351 353 355 360 361 362 360 360 359 359 355 351 352 352 352 354 354 353 352 351 350 348 347 346
297 293 295 302 303 300 303 302 304 307 308 309 311 316 319 318 316 318 323 330 340 347 346 346 347 347 346 355 355 354 357 357 356 356 355 351 348 348 350 350 354 354 353 352 352 351 350 348 339
299 295 301 304 305 305 302 302 305 305 302 308 307 311 311 312 314 315 319 326 336 347 346 344 345 345 344 344 354 353 352 353 353 352 352 348 347 347 347 341 347 346 351 344 346 344 343 339 338
294 301 303 304 306 302 303 306 304 303 304 309 310 311 310 309 310 311 314 318 328 340 346 346 345 344 343 344 350 348 348 351 352 352 352 349 344 340 342 342 341 343 343 340 337 338 338 337 336
297 300 304 306 305 302 305 303 304 303 308 309 309 310 308 307 308 310 312 317 325 339 346 351 349 346 345 348 348 345 344 346 346 347 349 349 343 341 339 341 339 341 340 339 335 335 337 339 339
300 301 302 303 303 302 301 302 302 304 308 308 308 307 307 308 309 309 311 313 320 338 345 348 343 342 344 346 348 346 343 343 342 343 345 347 345 341 341 340 341 341 340 339 335 337 338 341 343
302 297 300 301 301 300 303 299 301 305 307 305 306 307 308 308 309 310 311 313 316 333 343 342 333 331 333 349 349 353 346 343 341 341 342 347 347 341 343 341 342 342 341 339 340 340 339 339 343
297 295 289 297 302 303 300 293 302 305 305 304 306 307 308 308 309 309 312 314 318 337 339 339 338 336 335 351 350 353 353 345 341 340 343 347 346 345 342 342 340 340 340 341 340 339 337 340 339
293 288 291 295 302 302 300 295 302 306 304 304 305 306 307 307 308 310 313 314 315 321 331 335 335 336 335 342 353 354 353 352 347 344 344 347 346 347 344 343 342 340 340 338 336 335 335 333 332
289 290 293 294 300 300 298 297 300 303 302 303 304 305 306 307 307 311 311 312 318 321 321 322 324 329 343 352 352 354 352 351 352 349 347 347 347 346 347 346 343 344 341 339 337 334 335 333 333
296 295 293 296 300 297 295 296 299 301 300 300 302 304 304 306 309 310 314 313 316 317 316 318 319 321 331 331 346 347 348 349 351 352 351 347 348 347 344 345 347 343 343 341 340 337 335 335 334
297 294 293 297 300 297 295 295 299 301 300 301 302 303 304 306 308 310 311 312 315 317 317 320 322 327 324 330 331 343 345 347 351 351 352 351 345 349 348 344 343 347 345 343 340 341 336 336 336
295 293 294 294 298 298 296 293 296 301 302 303 304 304 305 306 307 308 310 312 314 317 320 320 322 323 332 327 326 328 330 339 341 344 347 349 348 347 345 347 346 344 345 344 344 344 338 336 334
292 299 298 297 293 288 295 286 292 298 299 302 304 303 303 306 307 309 311 311 313 315 317 321 322 325 326 328 330 328 327 328 331 332 339 346 343 336 337 330 346 343 344 342 343 347 340 333 332
295 300 297 297 292 288 291 286 289 297 297 299 301 305 305 305 306 311 311 312 312 313 318 318 320 322 326 326 326 325 325 327 330 333 332 335 340 330 330 330 345 327 329 345 344 344 344 338 336
302 297 295 293 289 284 289 288 289 294 297 300 307 307 308 310 309 309 310 310 311 312 315 314 318 317 319 322 325 327 326 325 327 328 330 331 333 336 343 345 335 328 337 345 340 334 335 339 339
297 290 283 281 282 282 292 291 290 300 304 307 305 306 307 308 307 307 307 308 308 310 311 313 315 314 319 318 319 321 324 328 328 328 327 326 328 328 330 336 340 342 334 329 326 321 325 332 331
296 292 285 279 280 285 294 287 293 303 308 307 308 307 307 307 307 306 307 307 307 309 311 312 312 311 315 316 315 317 321 324 324 326 326 327 328 329 331 332 334 336 334 333 332 323 322 323 326
296 291 297 289 290 285 289 294 299 304 305 306 308 308 307 307 306 306 307 307 307 308 310 312 311 311 314 314 312 315 317 317 319 324 328 330 329 332 332 330 328 332 333 330 331 325 323 325 323
299 301 290 291 284 280 287 290 291 299 301 305 305 306 307 306 306 306 306 307 308 307 308 310 311 313 313 313 312 315 313 315 317 319 319 322 327 330 331 332 332 330 326 327 326 323 322 321 320
293 291 294 293 290 284 279 285 300 299 302 302 304 306 306 305 306 306 306 305 305 305 305 306 308 310 311 313 313 313 312 314 314 316 318 321 323 324 326 330 332 333 324 321 318 317 320 321 320
296 293 295 288 288 289 288 287 302 302 301 302 303 305 307 306 305 305 305 306 306 304 305 306 307 309 310 310 309 309 314 313 313 313 316 318 320 322 320 320 322 324 327 326 323 320 323 324 319

GFSSGP_sfc_thetae_114.txt.gz
Theta_e
328 315 312 310 299 298 295 301 308 312 313 316 318 327 326 328 325 317 341 350 358 358 360 361 363 363 362 361 361 361 360 360 360 360 361 362 361 362 360 360 359 358 355 352 351 351 352 353 353
324 316 311 304 296 292 295 305 310 315 318 318 325 329 328 326 336 341 345 354 357 359 359 359 362 362 362 361 361 360 360 360 360 360 361 362 361 361 360 359 358 354 352 351 350 351 351 352 352
314 316 303 297 293 292 296 305 309 317 320 317 315 325 327 328 340 340 349 354 357 357 359 359 362 362 362 362 360 360 360 360 360 360 360 360 361 360 359 358 356 353 349 349 349 350 350 351 351
309 304 302 294 293 298 304 306 310 317 320 318 321 321 331 339 338 345 352 354 353 355 359 362 362 362 362 362 361 360 360 360 360 360 360 360 359 359 358 357 355 354 350 347 346 348 348 349 348
305 299 293 291 295 300 304 308 308 314 314 315 317 321 326 339 346 351 350 350 351 355 359 361 362 362 362 362 361 360 360 359 359 360 360 360 359 358 358 356 355 354 352 349 347 348 347 346 345
299 297 290 289 295 303 303 306 307 312 315 313 318 321 323 343 343 346 348 347 353 353 357 359 363 362 361 361 361 360 359 359 359 359 359 359 358 358 357 356 355 354 353 351 349 349 347 345 343
297 292 291 292 295 298 302 307 305 308 309 310 317 313 317 329 344 346 346 347 353 354 354 357 359 362 363 361 360 359 359 359 358 358 358 358 358 357 356 355 354 353 352 351 350 349 348 345 343
301 296 289 292 293 296 303 303 303 304 309 315 318 311 311 317 338 345 345 348 351 351 351 354 356 359 358 358 361 360 359 359 358 358 358 357 357 357 356 353 353 353 352 352 350 349 348 346 344
303 290 289 293 294 298 304 299 304 309 309 310 312 315 317 320 332 342 344 346 348 348 348 352 354 356 356 356 359 360 361 360 358 358 358 355 352 351 351 351 352 353 353 352 351 349 348 347 346
295 290 293 299 301 299 302 302 303 305 305 307 309 315 316 316 314 334 339 342 344 345 345 348 351 352 354 358 356 357 357 357 356 354 354 351 348 348 349 350 353 354 353 352 351 350 349 347 336
293 292 298 301 303 303 301 301 303 302 299 304 306 310 310 310 309 311 319 342 345 346 345 346 348 350 350 352 353 354 355 355 354 353 352 348 347 346 347 344 346 345 351 344 346 344 343 339 337
290 298 300 302 304 302 300 303 303 302 303 309 307 309 308 307 306 306 310 322 341 345 345 345 346 346 346 350 351 352 353 353 352 352 351 348 344 342 343 342 339 341 341 339 338 338 338 337 337
292 297 300 303 303 301 302 301 303 302 306 308 308 308 306 304 306 306 310 326 337 342 342 342 344 343 343 344 348 348 350 351 351 351 351 349 345 341 342 340 339 340 338 339 334 333 333 333 333
297 297 299 300 301 299 299 300 301 304 306 306 306 306 306 305 307 305 308 318 336 342 341 345 343 343 341 341 345 344 345 348 349 349 350 350 347 344 339 339 339 337 338 338 336 332 331 331 334
297 293 297 298 299 298 301 298 299 304 305 303 303 304 306 306 308 307 308 310 330 342 345 345 343 345 344 342 344 343 341 343 343 344 347 349 348 343 341 338 338 337 337 336 335 330 331 332 337
294 292 288 295 299 300 298 292 300 304 303 302 303 304 305 305 307 307 308 307 321 337 343 344 345 337 331 345 347 348 343 341 341 340 341 343 347 346 339 339 339 339 337 336 334 333 332 333 333
290 286 289 294 298 297 296 293 300 302 302 301 302 303 304 305 305 307 309 310 330 335 338 336 334 333 332 332 344 347 350 342 341 337 338 340 343 346 343 339 340 337 338 337 336 334 333 331 333
287 287 290 291 296 296 294 294 300 301 300 300 302 302 303 305 305 307 309 312 320 333 335 335 332 332 336 332 340 348 348 348 348 343 340 339 341 343 344 343 339 338 337 335 334 334 333 333 333
293 291 290 294 298 294 292 294 296 298 297 297 299 300 302 304 307 307 309 310 317 326 333 332 326 327 327 328 343 344 345 345 347 348 349 345 342 343 341 343 341 339 339 338 335 334 332 333 331
294 291 290 293 298 295 293 294 296 298 297 299 300 300 301 302 303 306 307 309 315 316 321 318 318 323 322 320 327 341 342 341 345 347 347 346 346 345 343 341 341 343 340 339 337 335 335 333 332
294 291 291 292 296 295 293 290 293 297 299 301 301 301 302 302 303 304 306 307 312 313 314 316 318 320 321 323 324 325 326 328 332 333 338 341 345 346 343 341 339 339 341 340 341 340 336 335 332
292 297 296 294 291 285 293 283 289 294 296 299 300 299 300 302 304 305 308 310 314 314 317 320 322 322 324 328 326 323 321 320 323 325 330 331 336 342 345 343 340 334 331 333 340 342 341 340 336
293 298 295 295 289 286 288 283 288 293 294 296 298 301 303 304 303 307 308 310 312 314 314 316 319 322 323 323 321 320 319 320 323 323 323 326 331 338 336 338 331 329 332 334 335 335 338 339 337
300 295 292 290 287 281 286 285 285 289 292 296 300 304 305 303 306 306 307 310 311 311 313 312 314 314 317 318 318 319 320 321 322 323 324 323 322 327 336 334 328 328 328 328 329 332 333 336 335
296 288 282 280 280 281 291 288 287 294 302 303 302 303 304 303 303 304 305 306 308 308 311 311 311 313 314 314 314 313 315 319 320 320 321 321 322 322 324 328 333 332 333 332 330 330 332 334 330
293 289 282 278 278 282 292 285 291 302 305 306 306 303 304 303 303 303 303 304 307 308 309 310 309 311 311 312 312 312 317 317 316 317 318 320 322 325 325 326 329 331 334 335 335 331 330 331 329
294 290 293 286 287 282 286 291 296 302 303 305 304 304 302 303 303 304 305 305 305 307 307 308 308 308 311 311 311 311 313 311 313 314 316 317 318 324 326 327 327 328 330 331 333 331 327 328 324
295 298 287 286 278 278 284 287 289 297 299 303 303 303 302 303 303 305 305 306 304 303 304 305 307 308 311 310 309 310 311 310 311 312 313 314 316 319 320 322 324 326 329 329 329 329 329 320 320
290 288 291 291 290 283 280 284 296 296 299 300 302 304 305 305 304 303 304 305 305 304 304 305 305 308 309 310 309 309 311 310 311 310 311 313 316 316 318 320 320 320 321 325 321 323 325 319 317
293 290 291 285 286 290 288 287 298 299 299 301 301 303 305 306 307 306 306 305 306 306 305 302 303 306 308 309 310 308 309 310 310 310 311 312 313 314 316 318 318 319 320 319 321 320 321 320 318

GFSSGP_sfc_thetae_117.txt.gz
Theta_e
327 317 310 308 299 297 293 300 306 308 313 315 318 325 325 325 323 314 341 350 355 355 358 360 362 362 361 361 361 360 359 360 360 359 359 360 360 360 359 360 360 358 356 353 351 351 352 353 353
322 314 309 302 294 290 294 302 304 307 316 320 328 328 327 324 338 339 341 355 355 356 357 358 362 361 361 360 360 359 359 359 359 360 360 360 360 359 358 358 358 355 353 352 350 351 352 352 353
311 313 301 296 291 291 295 301 307 310 312 317 316 324 327 329 341 340 348 356 357 355 356 358 362 360 361 360 360 359 359 359 359 360 360 359 359 359 358 358 357 353 351 351 350 351 351 352 352
306 303 300 293 291 297 300 303 305 306 313 316 323 322 330 339 340 347 353 356 354 354 355 360 362 361 360 360 359 359 359 359 359 359 359 359 358 359 357 357 355 353 350 350 349 350 351 351 352
302 298 292 289 293 298 303 304 304 304 312 312 320 321 326 341 348 350 352 354 352 354 355 358 361 361 361 360 360 359 359 358 359 359 358 358 358 358 357 356 354 353 352 350 349 350 351 351 349
297 296 290 288 294 301 302 304 303 302 309 322 323 321 323 343 346 348 350 350 354 354 356 356 360 361 360 360 360 359 358 358 358 358 358 358 358 357 357 355 355 354 353 351 350 349 348 346 345
295 292 290 291 296 297 302 304 301 302 303 308 321 319 323 337 344 346 346 349 352 355 355 355 356 359 361 359 359 359 358 357 357 357 357 358 357 357 357 355 354 354 353 352 351 350 348 345 344
300 293 288 292 294 296 303 300 299 300 303 313 321 314 316 328 343 344 343 347 347 352 353 354 356 357 355 356 359 359 358 358 357 357 357 357 357 356 356 354 354 354 353 352 351 349 348 346 345
302 290 288 292 293 296 299 298 302 306 306 308 311 316 319 336 342 340 342 345 346 348 349 352 354 355 355 354 357 359 359 359 358 357 357 354 350 350 351 352 351 354 353 352 352 350 348 347 346
296 288 292 298 299 299 300 297 299 303 304 306 309 311 318 338 339 339 340 340 343 343 346 350 352 353 354 356 354 355 355 355 354 353 351 349 346 346 349 350 352 353 353 353 352 351 349 348 338
295 292 297 300 302 301 298 300 301 301 298 302 304 307 308 314 328 337 340 341 342 345 345 348 350 351 351 353 354 354 354 354 354 352 350 346 346 344 347 344 346 345 350 345 346 344 342 339 337
291 297 299 300 302 301 300 303 301 300 302 306 306 308 306 306 311 323 333 337 341 343 343 345 348 348 349 351 351 350 351 351 351 352 350 346 342 341 342 341 339 339 340 340 338 337 336 337 337
290 295 298 300 300 299 300 299 300 300 305 306 306 306 304 304 305 309 315 323 340 342 342 343 345 346 347 345 349 349 350 350 350 351 350 349 345 341 342 340 338 338 339 338 336 335 334 332 332
295 296 297 298 298 297 297 299 299 302 306 305 304 304 303 303 304 303 310 324 333 343 342 343 343 343 342 342 345 345 348 349 349 349 349 349 346 343 340 340 339 338 337 336 335 332 330 328 328
296 292 295 296 298 297 298 296 297 303 304 303 302 302 303 304 305 305 305 316 333 338 341 340 342 343 340 340 343 343 345 346 347 348 348 349 348 344 341 338 337 337 335 334 334 332 328 328 329
293 291 287 294 297 299 298 292 299 303 301 301 302 302 302 303 305 305 306 307 328 337 339 341 343 341 337 340 342 342 342 340 343 343 344 347 348 346 339 338 337 336 333 333 332 330 329 329 329
290 286 288 293 297 297 294 291 299 301 300 300 300 301 302 302 304 305 306 305 312 336 339 340 339 338 335 342 345 344 341 338 339 337 336 338 342 346 343 340 339 336 335 335 334 331 332 330 331
287 287 289 290 294 295 293 293 296 299 298 299 299 300 301 302 303 306 307 308 313 331 339 338 335 333 333 332 333 341 346 346 340 336 336 337 338 341 342 343 338 336 335 337 334 334 333 333 333
292 290 289 293 296 293 292 292 295 298 296 295 296 298 300 300 304 304 305 309 321 328 333 335 331 331 333 332 330 334 338 342 345 345 343 339 340 341 341 341 340 336 335 336 335 335 333 334 330
292 289 289 292 295 292 292 292 295 296 296 295 296 297 299 299 302 304 304 306 315 326 331 331 331 327 326 324 337 340 340 340 341 341 340 344 344 341 341 340 341 340 338 336 336 333 332 332 331
291 289 289 290 294 293 291 289 292 296 297 298 298 298 299 300 300 302 303 305 311 319 323 326 322 323 321 318 323 324 324 325 327 327 329 332 334 339 341 342 340 340 341 337 334 334 333 332 333
288 295 295 293 289 284 291 282 288 292 294 296 298 297 298 299 301 302 302 304 310 311 313 316 318 318 319 320 320 318 316 316 320 321 325 327 332 334 336 339 339 338 336 333 337 335 330 331 333
292 296 294 293 288 285 286 283 286 290 292 293 297 299 300 303 303 301 302 307 309 313 314 317 317 320 322 321 319 318 317 318 320 321 320 321 325 332 334 332 333 333 332 330 331 332 333 337 332
299 293 290 287 285 280 285 284 283 288 290 298 301 302 302 302 303 305 308 311 310 311 312 314 316 315 318 318 318 318 317 318 319 320 319 319 320 322 326 329 330 327 325 325 328 329 327 328 330
293 286 280 279 279 279 288 285 287 293 301 301 300 300 301 302 304 306 306 307 308 308 310 311 313 312 312 313 312 312 313 317 319 317 316 316 317 319 322 324 326 327 327 326 326 325 325 326 328
291 287 281 277 277 280 289 283 289 300 303 302 302 301 301 301 300 301 303 305 306 307 308 308 310 310 310 310 310 310 314 314 313 315 315 316 316 319 321 323 324 325 328 329 328 329 329 327 328
293 288 290 285 285 282 284 289 295 300 301 303 303 302 301 301 301 301 303 303 304 305 307 307 306 307 309 310 309 309 312 311 311 312 313 314 316 320 320 320 321 322 324 326 327 328 327 329 330
294 297 287 285 279 277 282 285 286 294 297 301 301 302 303 304 304 302 301 303 304 305 306 306 307 307 307 310 309 309 310 310 310 310 311 312 313 317 316 317 316 317 319 321 322 323 326 329 328
289 287 288 287 285 278 278 283 292 295 296 297 298 302 304 307 309 308 306 303 304 302 302 303 304 306 308 309 308 308 308 309 309 308 309 310 312 314 315 316 316 316 315 315 315 317 320 322 323
291 289 288 280 281 287 288 285 297 296 295 296 297 299 300 302 304 306 306 304 303 301 303 303 304 303 303 304 306 306 306 306 307 308 308 309 311 312 314 315 315 316 316 314 314 316 318 319 319

GFSSGP_sfc_thetae_120.txt.gz
Theta_e
327 316 309 307 299 296 293 299 304 306 310 315 321 320 318 323 321 312 340 349 354 354 358 358 361 361 362 362 361 360 360 360 360 361 361 361 361 361 360 360 360 357 356 353 351 351 352 352 353
318 312 307 301 295 291 294 301 303 305 310 314 318 326 324 323 337 338 341 353 353 355 357 357 361 361 361 361 360 360 360 359 359 360 360 360 360 360 359 359 359 357 355 352 351 352 352 353 353
309 309 300 296 291 292 295 301 303 306 308 307 316 325 327 327 340 340 347 353 354 354 356 357 361 361 361 360 360 359 359 359 359 359 359 359 359 359 359 359 358 355 353 351 351 352 353 353 353
304 302 299 293 290 295 299 300 302 303 307 313 320 322 329 339 341 344 354 354 352 352 355 360 361 360 360 360 359 359 359 359 359 359 359 359 359 358 358 357 356 355 351 350 350 351 352 353 354
301 297 291 289 291 296 301 302 301 301 303 312 319 321 324 340 349 352 353 353 351 351 353 358 360 360 360 360 359 358 358 358 359 359 359 359 359 358 357 357 355 353 353 352 351 352 353 353 353
296 295 289 289 291 299 301 302 301 299 302 305 321 322 324 344 346 350 353 351 352 351 354 356 360 360 359 360 359 358 357 357 358 358 359 358 358 357 356 356 355 354 353 352 351 351 351 350 348
294 292 289 290 292 295 300 301 298 298 299 303 322 320 324 338 344 349 349 351 352 353 353 354 356 358 360 359 358 357 357 357 357 357 357 358 358 357 356 355 355 354 353 352 351 350 348 346 345
296 293 288 290 293 293 300 299 298 298 301 310 322 318 319 333 344 343 346 347 349 351 352 351 353 355 355 355 359 358 357 357 357 357 357 357 357 356 356 354 353 354 353 352 350 350 348 346 345
300 290 288 290 293 294 298 297 301 303 304 307 309 316 323 341 341 339 342 344 345 349 348 350 351 351 352 353 356 358 358 358 357 356 357 354 352 352 353 352 351 353 353 352 352 350 348 347 346
297 289 292 297 297 295 299 299 299 301 301 305 307 314 337 340 338 336 338 338 341 344 346 349 350 351 351 353 352 353 353 354 354 353 352 350 348 348 350 351 353 352 354 353 352 351 350 349 341
293 292 297 299 301 298 297 299 300 299 298 302 304 307 322 332 336 336 337 338 340 343 346 349 351 351 351 351 352 353 353 353 352 351 350 349 348 348 349 346 347 348 349 348 346 347 345 343 339
292 297 299 300 301 300 298 299 299 299 300 303 304 306 308 326 331 336 337 338 340 341 342 347 349 350 351 350 352 351 350 351 350 352 350 348 345 344 344 344 344 343 343 343 342 340 340 338 339
293 296 298 300 299 298 299 297 298 298 303 304 304 305 304 308 316 324 336 338 340 340 341 343 347 347 349 347 350 348 349 349 350 350 351 349 345 342 343 343 342 341 341 340 339 339 337 336 335
295 296 297 297 297 297 296 297 298 300 303 303 303 303 302 302 305 308 313 320 327 341 342 342 345 347 347 346 347 348 348 349 348 349 349 349 345 343 342 342 341 340 340 340 339 337 335 333 333
296 293 295 295 297 297 298 296 295 302 303 302 301 302 302 302 302 305 307 314 324 332 342 341 343 345 344 345 345 345 348 349 349 348 349 349 348 344 344 341 340 341 340 339 338 336 335 332 332
292 292 288 295 297 298 298 291 299 302 301 300 300 300 301 301 303 303 304 308 318 331 338 340 344 342 342 342 344 345 345 346 347 348 348 349 349 347 344 342 341 340 338 337 336 335 334 333 332
289 285 287 292 297 296 294 289 297 299 298 298 298 299 300 301 302 303 305 305 307 329 335 336 340 340 340 338 341 342 342 342 343 342 342 345 347 348 345 343 343 340 337 336 336 334 334 334 334
286 286 288 290 294 293 289 291 296 297 297 297 298 298 299 300 302 304 305 305 305 318 333 336 337 337 339 339 341 342 342 340 339 339 339 340 342 345 346 345 342 339 338 337 336 336 335 334 336
291 289 289 292 295 291 290 290 294 296 296 296 298 296 297 299 303 303 305 306 307 313 331 335 334 333 334 333 333 335 342 344 343 339 340 339 339 341 342 342 343 339 336 338 338 338 336 336 334
291 289 288 292 294 291 291 291 294 296 295 296 297 297 296 298 301 303 303 305 316 319 328 333 335 331 336 336 334 334 336 340 342 345 345 345 342 341 341 340 341 341 339 338 338 335 333 334 334
289 288 289 290 293 292 291 288 291 295 296 297 298 298 298 299 300 301 302 303 306 315 324 331 334 331 330 326 331 327 326 327 327 329 332 333 337 342 342 341 340 341 341 340 338 337 335 332 333
286 293 294 292 289 284 289 281 287 291 293 295 297 299 299 300 300 301 302 302 304 310 319 324 323 323 322 322 323 323 318 318 322 323 327 329 333 334 336 338 340 339 340 339 338 339 335 332 328
291 295 292 292 287 284 285 282 286 290 291 293 299 301 301 302 302 303 303 302 305 310 312 317 319 321 322 323 320 319 318 319 322 323 323 325 327 329 332 333 334 334 335 334 334 335 335 332 329
297 291 289 286 284 279 283 283 283 287 291 298 300 299 300 300 303 306 308 309 309 311 314 317 319 319 321 321 320 320 320 320 320 321 320 321 323 325 328 330 331 331 330 329 330 332 332 333 334
291 285 280 279 279 279 286 285 286 291 299 299 297 298 299 300 300 301 304 307 308 310 312 314 315 315 315 316 316 317 318 320 319 320 318 318 319 320 323 327 328 328 330 330 329 328 328 328 328
289 286 280 276 277 279 287 283 287 299 300 301 301 301 302 300 299 301 301 303 305 307 308 310 311 311 312 313 313 313 314 316 318 318 316 316 317 319 323 324 325 326 327 327 328 329 330 330 328
291 286 287 283 283 281 283 287 294 299 300 301 302 303 303 303 303 302 303 302 303 305 306 307 308 310 311 311 311 311 312 314 314 316 316 316 317 319 323 322 322 323 324 325 326 325 325 328 328
292 295 286 284 278 277 281 284 285 294 295 297 297 297 300 303 304 304 306 305 303 303 303 303 304 305 307 309 310 311 310 313 313 313 314 315 316 317 321 319 320 319 321 322 321 320 322 323 325
289 286 287 286 283 278 278 282 291 294 296 295 295 297 298 300 303 305 307 305 305 303 303 304 304 304 305 305 307 309 310 310 311 311 311 311 313 315 318 318 317 317 318 318 317 317 318 319 321
290 288 286 280 281 284 286 284 296 295 295 295 295 297 298 299 301 302 300 301 301 302 302 303 303 303 304 306 305 306 305 306 306 307 309 311 311 312 314 316 317 316 317 317 315 314 317 318 319